[[{"header":{"parameterUnit":"m.s-1","parameterCategory":1,"la1":30.6,"la2":29.2853,"lo1":-89.7004,"lo2":-87.6739,"dy":0.0162,"dx":0.0183,"nx":112,"ny":82,"refTime":"2024-08-23T18:00:00:Z","depth":0,"parameterNumber":2,"parameterNumberName":"U-component_of_WINDS"},"data":[0.0,0.0,0.0,0.0,0.0,0.0,0.0,0.0,0.0,0.0,0.0,0.0,0.0,0.0,0.0,0.0,0.0,0.0,0.0,0.0,0.0,0.0,0.0,0.0,0.0,0.0,0.0,0.0,0.0,0.0,0.0,0.0,0.0,0.0,0.0,0.0,0.0,0.0,0.0,0.0,0.0,0.0,0.0,0.0,0.0,0.0,0.0,0.0,0.0,0.0,0.0,0.0,0.0,0.0,0.0,0.0,0.0,0.0,0.0,0.0,0.0,0.0,0.0,0.0,0.0,0.0,0.0,0.0,0.0,0.0,0.0,0.0,0.0,0.0,0.0,0.0,0.0,0.0,0.0,0.0,0.0,0.0,0.0,0.0,0.0,0.0,0.0,0.0,0.0,0.0,1.3356,1.4421,1.6252,1.6967,1.5896,1.6455,1.575,1.3132,0.0,0.0,0.0,0.0,0.0,0.0,0.0,0.0,0.0,0.0,0.0,0.0,0.0,0.0,0.0,0.0,0.0,0.0,0.0,0.0,0.0,0.0,0.0,0.0,0.0,0.0,0.0,0.0,0.0,0.0,0.0,0.0,0.0,0.0,0.0,0.0,0.0,0.0,0.0,0.0,0.0,0.0,0.0,0.0,0.0,0.0,0.0,0.0,0.0,0.0,0.0,0.0,0.0,0.0,0.0,0.0,0.0,0.0,0.0,0.0,0.0,0.0,0.0,0.0,0.0,0.0,0.0,0.0,0.0,0.0,0.0,0.0,0.0,0.0,0.0,0.0,0.0,0.0,0.0,0.0,0.0,0.0,0.0,0.0,0.0,0.0,0.0,0.0,0.0,0.0,0.0,0.0,0.0,0.0,0.0,0.0,0.0,0.0,0.0,0.0,0.0,0.0,0.0,0.0,1.4637,1.6374,1.6274,1.6015,1.5825,1.5514,1.4732,1.332,0.0,0.0,0.0,0.0,0.0,0.0,0.0,0.0,0.0,0.0,0.0,0.0,0.0,0.0,0.0,0.0,0.0,0.0,0.0,0.0,0.0,0.0,0.0,0.0,0.0,0.0,0.0,0.0,0.0,0.0,0.0,0.0,0.0,0.0,0.0,0.0,0.0,0.0,0.0,0.0,0.0,0.0,0.0,0.0,0.0,0.0,0.0,0.0,0.0,0.0,0.0,0.0,0.0,0.0,0.0,0.0,0.0,0.0,0.0,0.0,0.0,0.0,0.0,0.0,0.0,0.0,0.0,0.0,0.0,0.0,0.0,0.0,0.0,0.0,0.0,0.0,0.0,0.0,0.0,0.0,0.0,0.0,0.0,0.0,0.0,0.0,0.0,0.0,0.0,0.0,0.0,0.0,0.0,0.0,0.0,0.0,0.0,0.0,0.0,0.0,0.0,0.0,0.0,1.2851,1.4191,1.6139,1.6021,1.5808,1.5808,1.5297,1.4662,1.3883,1.2938,0.0,0.0,0.0,0.0,0.0,0.0,0.0,0.0,0.0,0.0,0.0,0.0,0.0,0.0,0.0,0.0,0.0,0.0,0.0,0.0,0.0,0.0,0.0,0.0,0.0,0.0,0.0,0.0,0.0,0.0,0.0,0.0,0.0,0.0,0.0,0.0,0.0,0.0,0.0,0.0,0.0,0.0,0.0,0.0,0.0,0.0,0.0,0.0,0.0,0.0,0.0,0.0,0.0,0.0,0.0,0.0,0.0,0.0,0.0,0.0,0.0,0.0,0.0,0.0,0.0,0.0,0.0,0.0,0.0,0.0,0.0,0.0,0.0,0.0,0.0,0.0,0.0,0.0,0.0,0.0,0.0,0.0,0.0,0.0,0.0,0.0,0.0,0.0,0.0,0.0,0.0,0.0,0.0,0.0,0.0,0.0,0.0,0.0,0.0,0.0,0.0,0.0,1.3096,1.4022,1.5628,1.5808,1.5808,1.5808,1.5104,1.44,1.3766,1.2194,0.0,0.0,0.0,0.0,0.0,0.0,0.0,0.0,0.0,0.0,0.0,0.0,0.0,0.0,0.0,0.0,0.0,0.0,0.0,0.0,0.0,0.0,0.0,0.0,0.0,0.0,0.0,0.0,0.0,0.0,0.0,0.0,0.0,0.0,0.0,0.0,0.0,0.0,0.0,0.0,0.0,0.0,0.0,0.0,0.0,0.0,0.0,0.0,0.0,0.0,0.0,0.0,0.0,0.0,0.0,0.0,0.0,0.0,0.0,0.0,0.0,0.0,0.0,0.0,0.0,0.0,0.0,0.0,0.0,0.0,0.0,0.0,0.0,0.0,0.0,0.0,0.0,0.0,0.0,0.0,0.0,0.0,0.0,0.0,0.0,0.0,0.0,0.0,0.0,0.0,0.0,0.0,0.0,0.0,0.0,0.0,0.0,0.0,0.0,0.0,0.0,0.0,1.3974,1.5371,1.5761,1.5808,1.5808,1.5808,1.4499,1.3226,1.2139,1.1352,0.0,0.0,0.0,0.0,0.0,0.0,0.0,0.0,0.0,0.0,0.0,0.0,0.0,0.0,0.0,0.0,0.0,0.0,0.0,0.0,0.0,0.0,0.0,0.0,0.0,0.0,0.0,0.0,0.0,0.0,0.0,0.0,0.0,0.0,0.0,0.0,0.0,0.0,0.0,0.0,0.0,0.0,0.0,0.0,0.0,0.0,0.0,0.0,0.0,0.0,0.0,0.0,0.0,0.0,0.0,0.0,0.0,0.0,0.0,0.0,0.0,0.0,0.0,0.0,0.0,0.0,0.0,0.0,0.0,0.0,0.0,0.0,0.0,0.0,0.0,0.0,0.0,0.0,0.0,0.0,0.0,0.0,0.0,0.0,0.0,0.0,0.0,0.0,0.0,0.0,0.0,0.0,0.0,0.0,0.0,0.0,0.0,0.0,0.0,0.0,0.0,0.0,1.352,1.4903,1.5715,1.5808,1.5808,1.5808,1.499,1.3926,1.2621,0.0,0.0,0.0,0.0,0.0,0.0,0.0,0.0,0.0,0.0,0.0,0.0,0.0,0.0,0.0,0.0,0.0,0.0,0.0,0.0,0.0,0.0,0.0,0.0,0.0,0.0,0.0,0.0,0.0,0.0,0.0,0.0,0.0,0.0,0.0,0.0,0.0,0.0,0.0,0.0,0.0,0.0,0.0,0.0,0.0,0.0,0.0,0.0,0.0,0.0,0.0,0.0,0.0,0.0,0.0,0.0,0.0,0.0,0.0,0.0,0.0,0.0,0.0,0.0,0.0,0.0,0.0,0.0,0.0,0.0,0.0,0.0,0.0,0.0,0.0,0.0,0.0,0.0,0.0,0.0,0.0,0.0,0.0,0.0,0.0,0.0,0.0,0.0,0.0,0.0,0.0,0.0,0.0,0.0,0.0,0.0,0.0,0.0,0.0,0.0,0.0,0.0,1.1765,1.3487,1.495,1.5721,1.5808,1.5808,1.5808,1.5037,1.3947,1.2516,0.0,0.0,0.0,0.0,0.0,0.0,0.0,0.0,0.0,0.0,0.0,0.0,0.0,0.0,0.0,0.0,0.0,0.0,0.0,0.0,0.0,0.0,0.0,0.0,0.0,0.0,0.0,0.0,0.0,0.0,0.0,0.0,0.0,0.0,0.0,0.0,0.0,0.0,0.0,0.0,0.0,0.0,0.0,0.0,0.0,0.0,0.0,0.0,0.0,0.0,0.0,0.0,0.0,0.0,0.0,0.0,0.0,0.0,0.0,0.0,0.0,0.0,0.0,0.0,0.0,0.0,0.0,0.0,0.0,0.0,0.0,0.0,0.0,0.0,0.0,0.0,0.0,0.0,0.0,0.0,0.0,0.0,0.0,0.0,0.0,0.0,0.0,0.0,0.0,0.0,0.0,0.0,0.0,0.0,0.0,0.0,0.0,0.0,0.0,0.0,0.0,0.0,1.1855,1.4188,1.5808,1.5808,1.5808,1.5808,1.5808,1.4452,1.298,0.0,0.0,0.0,0.0,0.0,0.0,0.0,0.0,0.0,0.0,0.0,0.0,0.0,0.0,0.0,0.0,0.0,0.0,0.0,0.0,0.0,0.0,0.0,0.0,0.0,0.0,0.0,0.0,0.0,0.0,0.0,0.0,0.0,0.0,0.0,0.0,0.0,0.0,0.0,0.0,0.0,0.0,0.0,0.0,0.0,0.0,0.0,0.0,0.0,0.0,0.0,0.0,0.0,0.0,0.0,0.0,0.0,0.0,0.0,0.0,0.0,0.0,0.0,0.0,0.0,0.0,0.0,0.0,0.0,0.0,0.0,0.0,0.0,0.0,0.0,0.0,0.0,0.0,0.0,0.0,0.0,0.0,0.0,0.0,0.0,0.0,0.0,0.0,0.0,0.0,0.0,0.0,0.0,0.0,0.0,0.0,0.0,0.0,0.0,0.0,0.0,0.0,0.0,1.2111,1.4294,1.5808,1.5808,1.5808,1.5808,1.5808,1.5057,1.3674,1.1546,0.0,0.0,0.0,0.0,0.0,0.0,0.0,0.0,0.0,0.0,0.0,0.0,0.0,0.0,0.0,0.0,0.0,0.0,0.0,0.0,0.0,0.0,0.0,0.0,0.0,0.0,0.0,0.0,0.0,0.0,0.0,0.0,0.0,0.0,0.0,0.0,0.0,0.0,0.0,0.0,0.0,0.0,0.0,0.0,0.0,0.0,0.0,0.0,0.0,0.0,0.0,0.0,0.0,0.0,0.0,0.0,0.0,0.0,0.0,0.0,0.0,0.0,0.0,0.0,0.0,0.0,0.0,0.0,0.0,0.0,0.0,0.0,0.0,0.0,0.0,0.0,0.0,0.0,0.0,0.0,0.0,0.0,0.0,0.0,0.0,0.0,0.0,0.0,0.0,0.0,0.0,0.0,0.0,0.0,0.0,0.0,0.0,0.0,0.0,0.0,0.0,0.0,1.2225,1.4347,1.5808,1.5808,1.5808,1.5808,1.5808,1.5404,1.425,1.2091,0.0,0.0,0.0,0.0,0.0,0.0,0.0,0.0,0.0,0.0,0.0,0.0,0.0,0.0,0.0,0.0,0.0,0.0,0.0,0.0,0.0,0.0,0.0,0.0,0.0,0.0,0.0,0.0,0.0,0.0,0.0,0.0,0.0,0.0,0.0,0.0,0.0,0.0,0.0,0.0,0.0,0.0,0.0,0.0,0.0,0.0,0.0,0.0,0.0,0.0,0.0,0.0,0.0,0.0,0.0,0.0,0.0,0.0,0.0,0.0,0.0,0.0,0.0,0.0,0.0,0.0,0.0,0.0,0.0,0.0,0.0,0.0,0.0,0.0,0.0,0.0,0.0,0.0,0.0,0.0,0.0,0.0,0.0,0.0,0.0,0.0,0.0,0.0,0.0,0.0,0.0,0.0,0.0,0.0,0.0,0.0,0.0,0.0,0.0,0.0,0.0,0.0,1.2225,1.4347,1.5808,1.5808,1.5808,1.5808,1.5808,1.5541,1.4671,1.2957,0.0,0.0,0.0,0.0,0.0,0.0,0.0,0.0,0.0,0.0,0.0,0.0,0.0,0.0,0.0,0.0,0.0,0.0,0.0,0.0,0.0,0.0,0.0,0.0,0.0,0.0,0.0,0.0,0.0,0.0,0.0,0.0,0.0,0.0,0.0,0.0,0.0,0.0,0.0,0.0,0.0,0.0,0.0,0.0,0.0,0.0,0.0,0.0,0.0,0.0,0.0,0.0,0.0,0.0,0.0,0.0,0.0,0.0,0.0,0.0,1.2935,1.3525,0.0,0.0,0.0,0.0,0.0,0.0,0.0,0.0,0.0,0.0,0.0,0.0,0.0,0.0,0.0,0.0,0.0,0.0,0.0,0.0,0.0,0.0,0.0,0.0,0.0,0.0,0.0,0.0,0.0,0.0,0.0,0.0,0.0,0.0,0.0,0.0,0.0,0.0,0.0,0.0,1.2225,1.4347,1.5808,1.5808,1.5808,1.5808,1.5808,1.5541,1.4743,1.3206,1.2332,0.0,0.0,0.0,0.0,0.0,0.0,0.0,0.0,0.0,0.0,0.0,0.0,0.0,0.0,0.0,0.0,0.0,0.0,0.0,0.0,0.0,0.0,0.0,0.0,0.0,0.0,0.0,0.0,0.0,0.0,0.0,0.0,0.0,0.0,0.0,0.0,0.0,0.0,0.0,0.0,0.0,0.0,0.0,0.0,0.0,0.0,0.0,0.0,0.0,0.0,0.0,0.0,0.0,0.0,0.0,0.0,0.0,0.0,0.0,1.4505,1.4361,0.0,0.0,0.0,0.0,0.0,0.0,0.0,0.0,0.0,0.0,0.0,0.0,0.0,0.0,0.0,0.0,0.0,0.0,0.0,0.0,0.0,0.0,0.0,0.0,0.0,0.0,0.0,0.0,0.0,0.0,0.0,0.0,0.0,0.0,0.0,0.0,0.0,0.0,0.0,0.0,1.2437,1.4456,1.5808,1.5808,1.5808,1.5808,1.5808,1.5668,1.5157,1.4122,1.3347,0.0,0.0,0.0,0.0,0.0,0.0,0.0,0.0,0.0,0.0,0.0,0.0,0.0,0.0,0.0,0.0,0.0,0.0,0.0,0.0,0.0,0.0,0.0,0.0,0.0,0.0,0.0,0.0,0.0,0.0,0.0,0.0,0.0,0.0,0.0,0.0,0.0,0.0,0.0,0.0,0.0,0.0,0.0,0.0,0.0,0.0,0.0,0.0,0.0,0.0,0.0,0.0,0.0,2.3091,2.3257,2.3539,2.3237,2.3266,2.3259,1.7752,1.6372,1.7874,1.6307,0.0,0.0,0.0,0.0,0.0,0.0,0.0,0.0,0.0,0.0,0.0,0.0,0.0,0.0,0.0,0.0,0.0,0.0,0.0,0.0,0.0,0.0,1.4632,1.4573,1.5486,1.58,1.3699,0.0,0.0,0.0,0.0,0.0,0.0,0.0,0.0,0.0,0.0,0.0,1.2898,1.4649,1.5808,1.5808,1.5808,1.5808,1.5808,1.5808,1.5581,1.5093,1.4455,1.3821,0.0,0.0,0.0,0.0,0.0,0.0,0.0,0.0,0.0,0.0,0.0,0.0,0.0,0.0,0.0,0.0,0.0,0.0,0.0,0.0,0.0,0.0,0.0,0.0,0.0,0.0,0.0,0.0,0.0,0.0,0.0,0.0,1.2639,1.349,0.0,0.0,0.0,0.0,0.0,0.0,0.0,0.0,0.0,0.0,0.0,0.0,0.0,2.1546,2.1789,2.1772,2.2215,2.3091,2.3091,2.3881,2.5318,2.3783,2.3919,2.5308,2.443,0.0,1.8196,2.082,0.0,0.0,0.0,0.0,0.0,0.0,0.0,0.0,0.0,0.0,0.0,0.0,0.0,0.0,0.0,0.0,0.0,0.0,0.0,0.0,0.0,0.0,1.5959,1.5665,1.614,1.6498,1.5936,1.4666,1.3437,1.2822,1.2084,1.1337,0.0,0.0,0.0,0.0,0.0,0.0,1.3782,1.5014,1.5808,1.5808,1.5808,1.5808,1.5808,1.5808,1.5668,1.5357,1.4776,1.4166,1.3554,1.2835,0.0,0.0,0.0,0.0,0.0,0.0,0.0,0.0,0.0,0.0,0.0,0.0,0.0,0.0,0.0,0.0,0.0,0.0,0.0,0.0,0.0,0.0,0.0,0.0,0.0,0.0,0.0,0.0,0.0,1.1982,1.3708,1.4065,1.3753,1.3354,0.0,0.0,0.0,0.0,0.0,0.0,0.0,0.0,0.0,1.6879,2.1874,2.4553,2.4553,2.4553,2.4553,2.4553,2.4553,2.4953,2.5664,2.4904,2.3298,2.1151,2.1151,1.9853,1.8047,2.1629,2.1756,1.9407,0.0,0.0,0.0,0.0,1.2444,1.3617,1.5115,1.5705,1.5808,1.5808,0.0,0.0,0.0,0.0,0.0,0.0,0.0,1.5177,0.0,0.0,1.5872,1.6208,1.652,1.6667,1.6547,1.5931,1.505,1.3898,1.3082,1.2195,1.0947,1.0694,0.0,0.0,0.0,1.3554,1.4242,1.5351,1.6012,1.5821,1.5808,1.5808,1.5808,1.5808,1.5748,1.5628,1.5244,1.4897,1.4621,1.3716,1.2812,0.0,0.0,0.0,0.0,0.0,0.0,0.0,0.0,0.0,0.0,0.0,0.0,0.0,0.0,0.0,0.0,0.0,0.0,0.0,0.0,0.0,0.0,0.0,0.0,0.0,0.0,0.0,0.0,1.3522,1.4862,1.4644,1.5396,1.5313,0.0,0.0,0.0,0.0,0.0,0.0,1.8281,1.9169,1.9644,1.9631,2.3367,2.5689,2.6362,2.6371,2.6371,2.6371,2.6371,2.5557,2.4101,2.4101,2.1882,1.8063,1.8063,1.8063,1.8258,2.0684,2.1676,2.1391,1.8169,1.5774,1.4103,1.4103,1.5021,1.6255,1.6255,1.6255,1.6255,1.6255,1.6048,1.5808,1.5808,0.0,0.0,0.0,0.0,1.6927,1.6927,1.6393,1.6012,1.666,1.6874,1.6927,1.6927,1.6814,1.6319,1.501,1.4342,1.3527,1.2087,1.2098,0.0,1.2144,1.3434,1.4583,1.5001,1.5845,1.6273,1.5948,1.5921,1.5888,1.5815,1.5808,1.5808,1.5808,1.5601,1.5504,1.5504,1.4574,1.3774,1.3139,0.0,0.0,0.0,0.0,0.0,0.0,0.0,0.0,0.0,0.0,0.0,0.0,0.0,0.0,0.0,0.0,0.0,0.0,0.0,0.0,0.0,0.0,0.0,0.0,0.0,0.0,0.0,0.0,0.0,1.6092,1.6821,0.0,0.0,0.0,0.0,1.4023,1.6348,1.823,1.9191,1.942,2.0899,2.3991,2.4323,2.5664,2.8144,2.8164,2.8164,2.8164,2.8164,2.5192,1.9726,1.9726,1.956,1.9308,1.9308,1.9308,1.9243,1.8272,1.7874,1.786,1.7633,1.7472,1.7365,1.7365,1.7443,1.7521,1.7521,1.7521,1.7521,1.7521,1.674,1.5808,1.5808,1.5681,0.0,0.0,1.6567,1.7535,1.7535,1.7327,1.7125,1.7166,1.7361,1.7535,1.7535,1.7101,1.668,1.6593,1.6326,1.5936,1.5264,0.0,1.4899,1.5137,1.5264,1.5638,1.6486,1.6647,1.6573,1.6304,1.6277,1.6163,1.5828,1.5808,1.5808,1.5808,1.5788,1.5781,1.5781,1.5484,1.4903,1.4056,1.2832,0.0,0.0,0.0,0.0,0.0,0.0,0.0,0.0,0.0,0.0,0.0,0.0,0.0,0.0,0.0,0.0,0.0,0.0,0.0,0.0,0.0,0.0,0.0,0.0,0.0,0.0,0.0,0.0,1.6155,1.7257,0.0,1.5674,1.6556,1.7192,1.7114,1.8674,2.003,2.0941,2.1359,2.2067,2.3131,2.4523,2.4372,2.2589,2.2576,2.2576,2.2576,2.2576,2.1466,1.9395,1.9395,1.9395,1.9395,1.9395,1.9395,1.9361,1.894,1.8759,1.8759,1.8759,1.8759,1.8759,1.8759,1.8759,1.8759,1.8759,1.8759,1.8632,1.7862,1.7295,1.6961,1.6961,1.6961,1.6961,1.6961,1.7542,1.817,1.817,1.8117,1.8043,1.8043,1.8117,1.817,1.817,1.8003,1.7856,1.7856,1.7001,1.611,1.5498,1.5778,1.5932,1.5464,1.6063,1.6591,1.6693,1.6899,1.6899,1.6587,1.6553,1.6433,1.6139,1.6112,1.6032,1.5815,1.5808,1.5808,1.5808,1.5708,1.5438,1.4937,1.4142,1.2793,0.0,0.0,0.0,0.0,0.0,0.0,0.0,0.0,0.0,0.0,0.0,0.0,0.0,0.0,0.0,0.0,0.0,0.0,0.0,0.0,0.0,0.0,0.0,0.0,0.0,1.5093,1.6508,1.6082,1.7557,1.7995,1.6429,1.7667,1.8563,1.8481,1.9662,2.0575,2.1036,2.1194,2.1336,2.1443,2.2843,2.2229,1.9417,1.9395,1.9395,1.9401,1.9796,1.9983,1.9983,1.9983,1.9983,1.9983,1.9983,1.9762,1.9395,1.9395,1.9395,1.9395,1.9395,1.9395,1.9395,1.9395,1.9395,1.9395,1.9395,1.9395,1.9267,1.8471,1.821,1.821,1.821,1.821,1.821,1.821,1.8505,1.8784,1.8784,1.8691,1.8571,1.8532,1.849,1.849,1.849,1.849,1.849,1.849,1.7722,1.6892,1.6373,1.6749,1.6887,1.613,1.6759,1.7214,1.6919,1.714,1.7207,1.6913,1.6879,1.6725,1.633,1.6203,1.6039,1.5815,1.5715,1.5708,1.5801,1.5621,1.5444,1.528,1.4476,1.3347,1.1864,0.0,0.0,0.0,0.0,0.0,0.0,0.0,0.0,0.0,0.0,0.0,0.0,0.0,0.0,0.0,0.0,0.0,0.0,0.0,0.0,0.0,0.0,0.0,1.4806,1.638,1.7021,1.5993,1.768,1.8074,1.5937,1.788,1.8795,1.7642,1.9063,1.9801,1.9421,1.8853,1.8806,1.9381,1.9435,1.9448,1.9448,1.9448,1.9448,1.9468,2.0568,2.1109,2.1109,2.1109,2.1109,2.1109,2.1109,2.0468,1.9448,1.9448,1.9448,1.9448,1.9408,1.9395,1.9395,1.9395,1.9395,1.9395,1.9395,1.9395,1.9395,1.9395,1.9395,1.9395,1.9395,1.9395,1.9395,1.9395,1.9395,1.9395,1.9395,1.9114,1.8779,1.8564,1.8489,1.8462,1.8517,1.8462,1.8406,1.8517,1.8462,1.8307,1.8062,1.8009,1.7836,1.7294,1.7441,0.0,1.7253,1.7434,1.7495,1.7233,1.7199,1.6965,1.6357,1.6012,1.5821,1.5821,1.5571,1.5538,1.5795,1.5314,1.5013,1.5013,1.3834,1.3113,1.2843,0.0,0.0,0.0,0.0,0.0,0.0,0.0,0.0,0.0,0.0,0.0,0.0,0.0,0.0,0.0,0.0,0.0,0.0,0.0,0.0,0.0,1.1542,1.3083,1.4448,1.6156,1.6794,1.5538,1.6284,1.6217,1.4451,1.5712,1.6514,1.6163,1.8279,1.9516,1.941,1.9241,1.9227,1.9395,2.0187,2.0628,2.0628,2.0628,2.0628,2.0635,2.0955,2.1109,2.1109,2.1109,2.1109,2.1109,2.1109,2.0929,2.0628,2.0628,2.0628,2.0548,1.9729,1.9395,1.9395,1.9395,1.9395,1.9395,1.9395,1.9395,1.9395,1.9395,1.9395,1.9395,1.9395,1.9395,1.9395,1.9395,1.9395,1.9395,1.9395,1.9314,1.9221,1.9167,1.8266,1.7735,1.8889,1.733,1.6361,1.871,1.7266,1.6247,1.8056,1.837,1.8243,1.7829,1.7842,1.7782,1.7528,1.7555,1.7495,1.7233,1.7199,1.702,1.662,1.6319,1.6152,1.6152,1.5879,1.5721,1.5801,1.5655,1.5591,1.5591,1.4442,1.3822,0.0,0.0,0.0,0.0,0.0,0.0,0.0,0.0,0.0,0.0,0.0,0.0,0.0,0.0,0.0,0.0,0.0,0.0,0.0,0.0,0.0,0.0,1.1914,1.284,1.3839,1.4828,1.5229,1.4631,1.5009,1.4963,1.4074,1.5122,1.6229,1.7106,1.8548,1.9609,2.0104,2.0094,2.0094,2.0094,2.0755,2.1109,2.1109,2.1109,2.1109,2.1109,2.1109,2.1109,2.1109,2.1109,2.1109,2.1109,2.1109,2.1109,2.1109,2.1109,2.1109,0.0,0.0,0.0,0.0,0.0,2.0094,2.0027,1.9568,1.9395,1.9395,1.9395,1.9395,1.9395,1.9395,1.9395,1.9395,1.9395,1.9395,1.9395,1.9395,1.8409,1.7484,1.7958,1.7003,1.6262,1.7191,1.5908,1.5138,1.7038,1.5878,0.0,1.6586,1.7308,1.7747,1.7961,1.8123,1.8049,1.7642,1.7695,1.7662,1.7388,1.738,1.724,1.6939,1.6652,0.0,0.0,0.0,1.5695,1.5478,1.5464,0.0,0.0,0.0,0.0,0.0,0.0,0.0,0.0,1.3969,1.4707,0.0,0.0,0.0,0.0,0.0,0.0,0.0,0.0,0.0,0.0,0.0,0.0,0.0,0.0,0.0,0.0,1.2354,1.2529,1.2831,1.2731,1.2838,1.343,1.3799,1.3967,1.3924,1.4888,1.6311,1.8234,1.8408,1.8868,1.9884,1.9941,0.0,0.0,0.0,1.9941,1.9941,2.0722,2.1109,2.1109,2.1109,2.1109,2.1109,2.1109,2.1109,2.1109,2.1109,2.1109,2.1109,2.1109,2.1109,2.1109,2.1109,2.1109,2.1109,2.1109,2.1109,2.0962,1.995,0.0,0.0,1.9595,1.9502,1.9249,1.8525,1.8823,1.9395,1.9395,1.9395,1.9395,1.9395,1.6785,1.4401,1.5596,1.5107,1.4436,1.4615,1.4356,1.4192,1.455,1.4321,1.4158,1.4545,1.5545,1.657,1.7439,1.7958,1.8076,1.7509,1.7788,1.7949,1.7669,0.0,0.0,1.7273,1.6794,1.6415,1.6158,1.5699,1.5261,1.4972,1.4819,1.4834,1.5087,1.5096,1.4955,1.4631,1.4874,1.4288,1.2994,1.3973,1.5272,0.0,0.0,0.0,0.0,0.0,0.0,0.0,0.0,0.0,0.0,0.0,0.0,0.0,0.0,0.0,1.0446,1.0869,1.1153,1.043,1.0277,1.0741,1.2021,1.2508,1.2246,1.0975,1.1195,1.1619,1.2022,1.2251,1.2466,1.2701,1.2705,1.2705,1.2705,1.2705,1.2705,1.2705,1.8282,2.1109,2.1109,2.1109,0.0,2.1109,2.1109,2.1109,2.1109,2.1109,2.1109,2.1109,2.1109,2.1109,2.1109,2.1109,2.1109,2.1109,2.1109,2.1109,2.1076,2.0848,2.0768,2.0768,2.0768,2.0134,1.8438,1.3223,1.5276,0.0,1.9395,1.9395,1.9395,1.9395,1.529,1.1596,1.3427,1.345,1.3403,1.4636,1.2789,1.1648,1.4251,1.2582,1.1555,1.4153,1.4806,1.4971,1.4941,1.6035,1.6772,1.6426,1.7565,1.829,1.7962,1.7929,1.7802,1.7548,1.6166,1.5309,1.5255,1.388,1.3526,1.4558,1.3619,1.308,1.3152,1.3247,1.3406,1.3604,1.3645,1.3805,1.4088,1.4038,1.4103,0.0,0.0,0.0,0.0,0.0,0.0,0.0,0.0,0.0,0.0,0.0,1.2164,1.2062,0.0,1.1357,1.0572,1.0386,1.0208,0.9773,0.9687,1.0012,1.0804,1.108,1.0939,1.032,1.0276,1.0373,1.049,1.0603,1.0688,1.0688,1.0688,1.0688,1.0688,1.0688,1.0688,1.0688,1.4166,1.5913,1.5913,1.5913,1.5913,1.5913,1.5913,1.5913,1.5913,1.5913,1.7891,2.1109,2.1109,2.1109,2.1109,2.1109,2.1109,2.1109,2.1109,2.1109,2.1109,2.1109,2.1109,2.0519,1.7017,1.552,1.4452,1.1242,1.2488,1.5039,1.5039,1.5039,1.5039,1.5039,1.2783,1.0715,1.1628,1.168,1.1716,1.2492,1.1336,1.0604,1.2112,1.1049,1.0393,1.1929,1.2213,1.2688,1.4182,1.5048,1.5458,1.5185,1.5813,1.6174,1.5889,1.5866,1.578,1.5674,1.4721,1.4153,1.4153,1.3158,1.2931,1.3614,1.3037,1.2778,1.294,1.3016,1.2872,1.2537,1.2609,1.2481,1.22,1.22,1.3044,0.0,0.0,0.0,0.0,0.0,0.0,0.0,1.1838,1.1984,1.2971,1.2734,1.2489,1.2947,1.1717,1.0709,1.0913,1.0211,0.969,0.9775,0.9792,0.9836,0.9957,1.0028,1.0167,1.0466,1.0415,1.0466,1.0671,1.0688,1.0688,1.0688,1.0688,1.0688,1.0688,1.0688,1.0688,1.0688,1.0688,1.0688,1.0688,1.0688,1.0688,1.0688,1.0688,1.0688,1.0688,1.0688,1.3905,1.9088,1.9088,1.9088,1.9088,1.9088,1.9088,1.9253,2.0589,2.0227,1.9088,1.9088,1.9088,1.8148,1.2545,1.0688,1.0688,1.0688,1.0688,1.0688,1.0688,1.0688,1.0688,1.0688,1.0688,1.0647,1.0485,1.0422,1.0368,1.0368,1.0373,1.0287,1.0126,1.0082,1.0025,0.99,0.9852,1.0697,1.3267,1.3919,1.4059,1.3844,1.4053,1.41,1.3896,1.3881,1.3747,1.3389,1.3106,1.2962,1.2962,1.2441,1.227,1.2544,1.2307,1.2298,1.2576,1.2626,1.2259,1.1458,1.1601,1.1141,1.0109,1.0382,1.196,1.0702,1.0758,1.1315,1.2041,1.2222,1.2807,0.0,1.421,1.3153,1.4332,1.3824,1.2804,1.1592,1.1814,1.1612,0.9959,0.9759,0.9771,0.9788,0.9792,0.9798,0.9812,1.0086,1.0317,1.0477,1.0602,1.0683,1.0684,1.0688,1.0688,1.0688,1.0688,1.0688,1.0688,1.0688,1.0688,1.0688,1.0688,1.0688,1.0688,1.0688,1.0688,1.0688,1.0688,1.0688,1.0688,1.0688,1.1144,1.1861,1.1861,1.1861,1.1861,1.1861,1.1861,1.2606,1.8832,1.7178,1.1861,1.1861,1.1861,1.1729,1.0949,1.0688,1.0688,1.0688,1.0688,1.0688,1.0688,1.0688,1.0688,1.0688,1.0688,1.0681,1.0657,1.0644,1.067,1.067,1.0565,1.0463,1.0446,1.0341,1.0249,1.0264,1.0117,1.0067,1.0292,1.1555,1.2444,1.2423,1.3672,1.4524,1.4499,1.4499,1.3883,1.2318,1.19,1.1707,1.1707,1.0503,1.0352,1.1591,1.0554,0.9976,1.0023,1.0263,1.03,1.0215,1.0402,1.0459,1.0443,1.0477,1.0685,1.2816,1.2552,1.2538,1.3608,1.4257,1.4649,1.465,1.4348,1.4013,1.3939,1.3116,1.2248,1.1619,1.1171,1.0614,0.9813,0.9737,0.9792,0.9792,0.9792,0.9748,0.9629,0.9944,1.0271,1.047,1.0629,1.0688,1.0688,1.0688,1.0688,1.0688,1.0688,1.0688,1.0688,1.0688,1.0688,1.0688,1.0688,1.0688,1.0688,1.0688,1.0688,1.0688,1.0688,1.0688,1.0688,1.0688,1.0688,1.0688,1.0688,1.0688,1.0688,1.0688,1.0688,1.1045,1.397,1.3193,1.0688,1.0688,1.0688,1.0688,1.0688,1.0688,1.0688,1.0688,1.0688,1.0688,1.0688,1.0688,1.0688,1.0688,1.0688,1.0688,1.0688,1.0688,1.0688,1.0688,1.067,1.0599,1.051,1.0443,1.0378,1.0293,1.0226,1.0131,0.9947,1.0418,1.0808,1.0808,1.1378,1.1796,1.1796,1.1796,1.1497,1.0771,1.0584,1.0513,1.0513,0.996,0.99,1.0484,1.008,0.9836,0.9836,1.0076,1.0185,1.0185,1.0331,1.0465,1.0493,1.0582,1.0626,1.3865,1.3868,1.383,1.4443,1.5308,1.5551,1.3824,1.3727,1.3777,1.3043,1.2018,1.1252,1.1252,1.0463,0.9792,0.9792,0.993,1.0038,1.0038,0.9856,0.9676,0.9582,0.9798,1.0077,1.0341,1.0544,1.0673,1.0684,1.0688,1.0688,1.0688,1.0688,1.0688,1.0688,1.0688,1.0688,1.0688,1.0688,1.0688,1.0688,1.0688,1.0688,1.0688,1.0688,1.0688,1.0688,1.0688,1.0688,1.0688,1.0688,1.0688,1.0688,1.0688,1.0688,1.0688,1.0688,1.0688,1.0688,1.0688,1.0688,1.0688,1.0688,1.0688,1.0688,1.0688,1.0688,1.0688,1.0688,1.0688,1.0688,1.0688,1.0688,1.0688,1.0688,1.0688,1.0688,1.0688,1.0688,1.0654,1.0575,1.0555,1.0521,1.0419,1.0368,1.03,1.0157,1.0011,0.9917,0.9802,0.9792,0.9792,0.9792,0.9792,0.9792,0.9792,0.9792,0.9792,0.9792,0.9832,0.9852,0.9852,1.0001,1.0082,1.0082,1.0263,1.0369,1.0369,1.0483,1.0555,1.0558,1.0637,1.0688,1.2843,1.3876,1.4727,1.3767,1.4396,1.4884,1.3602,1.2567,1.1879,1.1862,1.0804,0.9876,0.9876,0.9819,0.9792,0.9792,1.0278,1.0661,1.0661,0.9944,0.95,0.9748,0.97,0.9707,1.0001,1.0295,1.0561,1.0677,1.0688,1.0688,1.0688,1.0688,1.0688,1.0688,1.0688,1.0688,1.0688,1.0688,1.0688,1.0688,1.0688,1.0688,1.0688,1.0688,1.0688,1.0688,1.0688,1.0688,1.0688,1.0688,1.0688,1.0688,1.0688,1.0688,1.0688,1.0688,1.0688,1.0688,1.0688,1.0688,1.0688,1.0688,1.0688,1.0688,1.0688,1.0688,1.0688,1.0688,1.0688,1.0688,1.0688,1.0688,1.0688,1.0688,1.0688,1.0688,1.0688,1.0688,1.0684,1.0681,1.0681,1.0677,1.0674,1.0582,1.0483,1.048,1.0358,1.0158,0.9829,0.9792,0.9792,0.9792,0.9792,0.9792,0.9792,0.9792,0.9792,0.9792,0.993,0.998,0.998,1.0192,1.0305,1.0305,1.0412,1.0483,1.0487,1.0639,1.0681,1.0681,1.0684,1.0688,1.274,1.3509,1.4103,1.3342,1.3865,1.414,1.2648,1.2177,1.1733,1.0595,0.9831,0.9351,0.9224,0.9416,0.9636,0.9768,1.0164,1.0429,1.0429,1.0222,0.9958,0.9626,0.9758,0.9869,0.9866,1.0049,1.0268,1.0551,1.0568,1.0612,1.0714,1.0688,1.0688,1.0688,1.0688,1.0688,1.0688,1.0688,1.0688,1.0688,1.0688,1.0688,1.0688,1.0688,1.0688,1.0688,1.0688,1.0688,1.0688,1.0688,1.0688,1.0688,1.0688,1.0688,1.0688,1.0688,1.0688,1.0688,1.0688,1.0688,1.0688,1.0688,1.0688,1.0688,1.0688,1.0688,1.0688,1.0688,1.0688,1.0688,1.0688,1.0688,1.0688,1.0688,1.0688,1.0688,1.0688,1.0688,1.0688,1.0688,1.0688,1.0688,1.0688,1.0644,1.0609,1.0507,1.0403,1.0274,1.0141,1.0127,1.0127,1.0127,1.0127,1.0127,1.0127,1.0127,1.0127,1.0127,1.0175,1.0202,1.0202,1.0344,1.0422,1.0422,1.0568,1.0643,1.0643,1.0697,1.0688,1.0688,1.0688,1.0688,1.2443,1.2883,1.3181,1.2682,1.2951,1.2925,1.1358,1.1153,1.0931,0.9721,0.9249,0.9032,0.8858,0.9034,0.9264,0.9447,0.9849,0.9878,0.9145,0.8973,0.8848,0.857,0.8841,0.9054,0.9017,0.9093,0.9237,0.9523,0.9582,0.965,0.9739,1.0349,1.0416,0.9742,1.0349,1.0382,0.9742,1.0382,1.0688,1.0688,1.0688,1.0688,1.0688,1.0688,1.0688,1.0688,1.0688,1.0688,1.0688,1.0688,1.0688,1.0688,1.0688,1.0688,1.0688,1.0688,1.0688,1.0688,1.0688,1.0688,1.0688,1.0688,1.0688,1.0688,1.0688,1.0688,1.0688,1.0688,1.0688,1.0688,1.0688,1.0688,1.0688,1.0688,1.0688,1.0688,1.0688,1.0688,1.0688,1.0688,1.0688,1.0688,1.0688,1.0688,1.0654,1.0588,1.0493,1.0399,1.0293,1.0312,1.0312,1.0312,1.0312,1.0312,1.0312,1.0312,1.0312,1.0312,1.0327,1.0354,1.0354,1.0493,1.0571,1.0571,1.067,1.0688,1.0688,1.0688,1.0688,1.0688,1.0688,1.0688,1.1909,1.1998,1.2091,1.1776,1.1678,1.1328,0.9932,0.9598,0.9496,0.9209,0.8963,0.8719,0.8568,0.8508,0.8494,0.8646,0.9149,0.8894,0.6979,0.643,0.6374,0.667,0.7046,0.7333,0.7466,0.7385,0.7399,0.7504,0.7733,0.7857,0.7864,0.9507,0.9643,0.7931,0.9543,0.9609,0.7897,0.9576,1.0419,1.0419,1.0485,1.0585,1.0688,1.0688,1.0485,1.015,1.015,1.0349,1.0688,1.0688,1.0688,1.0688,1.0688,1.0688,1.0688,1.0688,1.0688,1.0688,1.0688,1.0688,1.0688,1.0688,1.0688,1.0688,1.0688,1.0688,1.0688,1.0688,1.0688,1.0688,1.0688,1.0688,1.0688,1.0688,1.0688,1.0688,1.0688,1.0688,1.0688,1.0688,1.0688,1.0688,1.0688,1.0688,1.0688,1.0688,1.0688,1.0619,1.0337,1.0335,1.0335,1.0335,1.0335,1.0335,1.0335,1.0335,1.0335,1.0335,1.0429,1.0504,1.0504,1.0643,1.0688,1.0688,1.0688,1.0688,1.0688,1.0688,1.0688,1.0688,1.0688,1.0688,1.07,1.1179,1.1613,1.0461,1.0165,1.0047,0.9697,0.9435,0.9182,0.8764,0.7758,0.6835,0.6464,0.5733,0.5235,0.5381,0.5827,0.597,0.5463,0.5528,0.5582,0.5417,0.5562,0.566,0.5587,0.4506,0.3825,0.3839,0.5101,0.5895,0.606,0.65,0.6533,0.6064,0.65,0.6533,0.6064,0.6533,0.6767,0.6767,0.76,0.8972,1.0688,1.0688,0.78,0.2717,0.2717,0.5759,1.0688,1.0688,1.0688,1.0688,1.0688,1.0688,1.0688,1.0688,1.0688,1.0688,1.0688,1.0688,1.0688,1.0688,1.0688,1.0688,1.0688,1.0688,1.0688,1.0688,1.0688,1.0688,1.0688,1.0688,1.0688,1.0688,1.0688,1.0688,1.0688,1.0688,1.0688,1.0688,1.0688,1.0688,1.0688,1.0688,1.0688,1.0688,1.0688,1.0694,1.0619,1.0609,1.0609,1.0609,1.0609,1.0609,1.0609,1.0609,1.0609,1.0609,1.0643,1.0663,1.0663,1.0667,1.0688,1.0688,1.0688,1.0688,1.0688,1.0688,1.0688,1.0688,1.0688,1.0688,0.9977,1.0275,1.0632,0.9813,0.9557,0.9422,0.9096,0.8835,0.84,0.7416,0.6514,0.5686,0.4951,0.431,0.3951,0.4101,0.4458,0.4482,0.3809,0.3954,0.4076,0.3962,0.3989,0.403,0.3932,0.3135,0.2256,0.146,0.305,0.409,0.4223,0.4961,0.5029,0.4226,0.4994,0.5397,0.5397,0.5397,0.5397,0.5397,0.6064,0.7067,0.8304,0.6729,0.3822,0.0,0.0,0.2282,0.5993,0.5993,0.5993,0.5993,0.5993,0.7933,1.0688,1.0688,1.0688,1.0688,1.0688,1.0688,1.0688,1.0688,1.0688,1.0688,1.0688,1.0688,1.0688,1.0688,1.0688,1.0688,1.0688,1.0688,1.0688,1.0688,1.0688,1.0688,1.0688,1.0688,1.0688,1.0688,1.0688,1.0688,1.0688,1.0688,1.0688,1.0688,1.0688,1.0688,1.0688,1.0688,1.0688,1.0688,1.0688,1.0688,1.0688,1.0688,1.0688,1.0688,1.0688,1.0688,1.0688,1.0688,1.0688,1.0688,1.0688,1.0688,1.0688,1.0688,1.0688,1.0688,1.0688,1.0688,0.9566,0.9517,0.9639,0.9639,0.9479,0.9127,0.84,0.7994,0.7338,0.5839,0.5223,0.4653,0.3686,0.3398,0.3339,0.344,0.3708,0.3429,0.2111,0.2055,0.2211,0.2342,0.2351,0.2351,0.2351,0.2351,0.168,0.0135,0.1445,0.2351,0.2351,0.3824,0.3958,0.2383,0.3856,0.4693,0.4693,0.4693,0.4693,0.4693,0.4693,0.4693,0.4593,0.1445,0.0,0.0,0.0,0.0,0.0,0.0,0.0,0.0,0.0,0.3788,0.9274,0.9274,0.9679,1.0213,1.0047,1.015,1.0382,1.0621,1.0688,1.0688,1.0688,1.0688,1.0688,1.0688,1.0688,1.0688,1.0688,1.0688,1.0688,1.0688,1.0688,1.0688,1.0688,1.0688,1.0688,1.0688,1.0688,1.0688,1.0688,1.0688,1.0688,1.0688,1.0688,1.0688,1.0688,1.0688,1.0688,1.0688,1.0688,1.0688,1.0688,1.0688,1.0688,1.0688,1.0688,1.0688,1.0688,1.0688,1.0688,1.0688,1.0688,1.0688,1.0688,1.0688,1.0688,1.0688,1.0688,1.0688,0.9477,0.9609,0.9754,0.9754,0.9369,0.8781,0.7989,0.7174,0.6333,0.5376,0.3798,0.2457,0.206,0.1258,0.0657,0.0685,0.0741,0.0682,0.0404,0.0415,0.0456,0.0469,0.0471,0.0471,0.0471,0.0471,0.0336,0.0034,0.0303,0.0471,0.0471,0.0773,0.0807,0.0471,0.0773,0.0941,0.0941,0.0941,0.0941,0.0941,0.0941,0.0941,0.0908,0.0303,0.0,0.0,0.0,0.0,0.0,0.0,0.0,0.0,0.0,0.0773,0.1846,0.1846,0.4356,0.7598,0.6631,0.7265,0.8701,1.0216,1.0688,1.0688,1.0688,1.0688,1.0688,1.0688,1.0688,1.0688,1.0688,1.0688,1.0688,1.0688,1.0688,1.0688,1.0688,1.0688,1.0688,1.0688,1.0688,1.0688,1.0688,1.0688,1.0688,1.0688,1.0688,1.0688,1.0688,1.0688,1.0688,1.0688,1.0688,1.0688,1.0688,1.0688,1.0688,1.0688,1.0688,1.0688,1.0688,1.0688,1.0688,1.0688,1.0688,1.0688,1.0688,1.0688,1.0688,1.0688,1.0688,1.0688,0.9456,0.9636,0.9792,0.9792,0.8668,0.739,0.6792,0.5692,0.4465,0.3357,0.2333,0.1463,0.0868,0.0349,0.0,0.0,0.0,0.0,0.0,0.0,0.0,0.0,0.0,0.0,0.0,0.0,0.0,0.0,0.0,0.0,0.0,0.0,0.0,0.0,0.0,0.0,0.0,0.0,0.0,0.0,0.0,0.0,0.0,0.0,0.0,0.0,0.0,0.0,0.0,0.0,0.0,0.0,0.0,0.0,0.0,0.0,0.2248,0.5292,0.5362,0.593,0.6798,0.7669,0.9208,1.0688,1.0688,1.0688,1.0688,1.0688,1.0688,1.0688,1.0688,1.0688,1.0688,1.0688,1.0688,1.0688,1.0688,1.0688,1.0688,1.0688,1.0688,1.0688,1.0688,1.0688,1.0688,1.0688,1.0688,1.0688,1.0688,1.0688,1.0688,1.0688,1.0688,1.0688,1.0688,1.0688,1.0688,1.0688,1.0688,1.0688,1.0688,1.0688,1.0688,1.0688,1.0688,1.0688,1.0688,1.0688,1.0688,1.0688,1.0688,1.0688,0.8906,0.9003,0.905,0.8817,0.7117,0.5412,0.4964,0.3945,0.2764,0.1555,0.1157,0.0805,0.0129,0.0,0.0,0.0,0.0,0.0,0.0,0.0,0.0,0.0,0.0,0.0,0.0,0.0,0.0,0.0,0.0,0.0,0.0,0.0,0.0,0.0,0.0,0.0,0.0,0.0,0.0,0.0,0.0,0.0,0.0,0.0,0.0,0.0,0.0,0.0,0.0,0.0,0.0,0.0,0.0,0.0,0.0,0.0,0.121,0.2952,0.3923,0.4494,0.4827,0.4827,0.7234,1.0114,1.0114,1.0382,1.0688,1.0688,1.0688,1.0688,1.0688,1.0688,1.0688,1.0688,1.0688,1.0688,1.0688,1.0688,1.0688,1.0688,1.0688,1.0688,1.0688,1.0688,1.0688,1.0688,1.0688,1.0688,1.0688,1.0688,1.0688,1.0688,1.0688,1.0688,1.0688,1.0688,1.0688,1.0688,1.0688,1.0688,1.0688,1.0688,1.0688,1.0688,1.0688,1.0688,1.0688,1.0688,1.0688,1.0688,1.0688,1.0688,0.7211,0.6884,0.664,0.5607,0.4175,0.2884,0.2291,0.2139,0.1974,0.1422,0.0677,0.01,0.0015,0.0,0.0,0.0,0.0,0.0,0.0,0.0,0.0,0.0,0.0,0.0,0.0,0.0,0.0,0.0,0.0,0.0,0.0,0.0,0.0,0.0,0.0,0.0,0.0,0.0,0.0,0.0,0.0,0.0,0.0,0.0,0.0,0.0,0.0,0.0,0.0,0.0,0.0,0.0,0.0,0.0,0.0,0.0,0.0135,0.0336,0.0471,0.1579,0.2953,0.2953,0.5359,0.8233,0.8233,0.9407,1.0688,1.0688,1.0688,1.0688,1.0688,1.0688,1.0688,1.0688,1.0688,1.0688,1.0688,1.0688,1.0688,1.0688,1.0688,1.0688,1.0688,1.0688,1.0688,1.0688,1.0688,1.0688,1.0688,1.0688,1.0688,1.0688,1.0688,1.0688,1.0688,1.0688,1.0688,1.0688,1.0688,1.0688,1.0688,1.0688,1.0688,1.0688,1.0688,1.0688,1.0688,1.0688,1.0688,1.0688,1.0688,1.0688,0.8028,0.6335,0.4173,0.2404,0.1502,0.101,0.0771,0.0763,0.0739,0.0558,0.0246,0.0,0.0,0.0,0.0,0.0,0.0,0.0,0.0,0.0,0.0,0.0,0.0,0.0,0.0,0.0,0.0,0.0,0.0,0.0,0.0,0.0,0.0,0.0,0.0,0.0,0.0,0.0,0.0,0.0,0.0,0.0,0.0,0.0,0.0,0.0,0.0,0.0,0.0,0.0,0.0,0.0,0.0,0.0,0.0,0.0,0.0,0.0,0.0,0.0471,0.1075,0.1075,0.2048,0.3587,0.5761,0.7667,0.9072,0.9072,0.9845,1.0688,1.0688,1.0688,1.0688,1.0688,1.0688,1.0688,1.0688,1.0688,1.0688,1.0688,1.0688,1.0688,1.0688,1.0688,1.0688,1.0688,1.0688,1.0688,1.0688,1.0688,1.0688,1.0688,1.0688,1.0688,1.0688,1.0688,1.0688,1.0688,1.0688,1.0688,1.0688,1.0688,1.0688,1.0688,1.0688,1.0688,1.0688,1.0688,1.0688,1.0688,1.0688,1.0735,0.7395,0.5501,0.2989,0.0592,0.0,0.0,0.0,0.0,0.0,0.0,0.0,0.0,0.0,0.0,0.0,0.0,0.0,0.0,0.0,0.0,0.0,0.0,0.0,0.0,0.0,0.0,0.0,0.0,0.0,0.0,0.0,0.0,0.0,0.0,0.0,0.0,0.0,0.0,0.0,0.0,0.0,0.0,0.0,0.0,0.0,0.0,0.0,0.0,0.0,0.0,0.0,0.0,0.0,0.0,0.0,0.0,0.0,0.0,0.0,0.0,0.0,0.0,0.0,0.0471,0.3021,0.5394,0.7231,0.7231,0.8537,1.0011,1.0552,1.0688,1.0688,1.0688,1.0688,1.0688,1.0688,1.0688,1.0688,1.0688,1.0688,1.0688,1.0688,1.0688,1.0688,1.0688,1.0688,1.0688,1.0688,1.0688,1.0688,1.0688,1.0688,1.0688,1.0688,1.0688,1.0688,1.0688,1.0688,1.0688,1.0688,1.0688,1.0688,1.0688,1.0688,1.0688,1.0688,1.0688,1.0711,1.0752,1.0752,1.086,0.4284,0.3924,0.3505,0.0693,0.0,0.0,0.0,0.0,0.0,0.0,0.0,0.0,0.0,0.0,0.0,0.0,0.0,0.0,0.0,0.0,0.0,0.0,0.0,0.0,0.0,0.0,0.0,0.0,0.0,0.0,0.0,0.0,0.0,0.0,0.0,0.0,0.0,0.0,0.0,0.0,0.0,0.0,0.0,0.0,0.0,0.0,0.0,0.0,0.0,0.0,0.0,0.0,0.0,0.0,0.0,0.0,0.0,0.0,0.0,0.0,0.0,0.0,0.0,0.0,0.0034,0.2585,0.5431,0.5431,0.6698,0.8432,1.0213,1.0688,1.0688,1.0688,1.0688,1.0688,1.0688,1.0688,1.0688,1.0688,1.0688,1.0688,1.0688,1.0688,1.0688,1.0688,1.0688,1.0688,1.0688,1.0688,1.0688,1.0688,1.0688,1.0688,1.0688,1.0688,1.0688,1.0688,1.0688,1.0688,1.0688,1.0688,1.0688,1.0688,1.0688,1.0688,1.0688,1.0688,1.0765,1.0914,1.0914,1.107,0.4931,0.3844,0.2629,0.1728,0.0739,0.0,0.0,0.0,0.0,0.0,0.0,0.0,0.0,0.0,0.0,0.0,0.0,0.0,0.0,0.0,0.0,0.0,0.0,0.0,0.0,0.0,0.0,0.0,0.0,0.0,0.0,0.0,0.0,0.0,0.0,0.0,0.0,0.0,0.0,0.0,0.0,0.0,0.0,0.0,0.0,0.0,0.0,0.0,0.0,0.0,0.0,0.0,0.0,0.0,0.0,0.0,0.0,0.0,0.0,0.0,0.0,0.0,0.0,0.0,0.0,0.168,0.3824,0.5063,0.5797,0.6631,0.8402,0.7969,0.7369,0.8568,0.7936,0.7067,0.7067,0.7067,0.7067,0.7067,0.7067,0.7067,0.7067,0.7067,0.7469,0.867,0.887,0.9305,1.0552,1.0688,1.0688,1.0688,1.0688,1.0688,1.0688,1.0688,1.0688,1.0688,1.0688,1.0688,1.0688,0.9507,0.944,1.0688,0.9474,0.9474,1.0688,1.0688,1.0765,1.0917,1.105,1.1199,0.4219,0.3238,0.201,0.1489,0.0684,0.0,0.0,0.0,0.0,0.0,0.0,0.0,0.0,0.0,0.0,0.0,0.0,-0.0192,-0.0762,-0.0949,-0.1014,-0.1024,-0.1011,-0.0751,-0.0066,0.0,0.0,0.0,0.0,0.0,0.0,0.0,0.0,0.0,0.0,0.0,0.0,0.0,0.0,0.0,0.0,0.0,0.0,0.0,0.0,0.0,0.0,0.0,0.0,0.0,0.0,0.0,0.0,0.0,0.0,0.0,0.0,0.0,0.0,0.0,0.0,0.0,0.0,0.0,0.0,0.0773,0.2048,0.3856,0.4393,0.4794,0.6562,0.6531,0.6331,0.7398,0.6498,0.5397,0.5397,0.5028,0.4727,0.4727,0.5095,0.5397,0.5397,0.5397,0.5763,0.6862,0.7029,0.7431,0.854,0.9274,0.944,0.8773,0.9274,0.9676,0.9676,1.0316,1.0688,1.0688,1.0688,1.0382,0.9709,0.8601,0.8233,0.8706,0.76,0.79,0.9676,1.0491,1.0934,1.1033,1.124,1.1385,0.0,0.2198,0.1614,0.0323,0.0,0.0,0.0,0.0,0.0,0.0,0.0,0.0,0.0,0.0,0.0,0.0,0.0,-0.0508,-0.1992,-0.2583,-0.2816,-0.272,-0.2714,-0.1994,-0.019,0.0,0.0,0.0,0.0,0.0,0.0,0.0,0.0,0.0,0.0,0.0,0.0,0.0,0.0,0.0,0.0,0.0,0.0,0.0,0.0,0.0,0.0,0.0,0.0,0.0,0.0,0.0,0.0,0.0,0.0,0.0,0.0,0.0,0.0,0.0,0.0,0.0,0.0,0.0,0.0,0.0,0.0336,0.2048,0.2518,0.2919,0.4794,0.593,0.6662,0.6929,0.5962,0.5029,0.5029,0.4124,0.3353,0.3353,0.4258,0.5029,0.5029,0.5029,0.5063,0.5197,0.5195,0.5263,0.5397,0.6798,0.7196,0.5563,0.6862,0.7831,0.7831,0.9474,1.0518,1.0518,1.0518,0.9709,0.7897,0.7695,0.6929,0.5431,0.5397,0.6264,0.7997,1.0005,1.1048,1.1203,1.1463,1.1573,0.1968,0.0,0.0975,0.0201,0.0,0.0,0.0,0.0,0.0,0.0,0.0,0.0,0.0,0.0,0.0,0.0,0.0,-0.0518,-0.1983,-0.3461,-0.3956,-0.2842,-0.2697,-0.2002,-0.0163,0.0,0.0,0.0,0.0,0.0,0.0,0.0,0.0,0.0,0.0,0.0,0.0,0.0,0.0,0.0,0.0,0.0,0.0,0.0,0.0,0.0,0.0,0.0,0.0,0.0,0.0,0.0,0.0,0.0,0.0,0.0,0.0,0.0,0.0,0.0,0.0,0.0,0.0,0.0,0.0,0.0,0.0101,0.0504,0.0639,0.1143,0.3421,0.2852,0.2383,0.5128,0.3488,0.1277,0.1277,0.1042,0.084,0.084,0.1075,0.1277,0.1277,0.1277,0.1747,0.312,0.3321,0.3824,0.5228,0.5763,0.5863,0.5429,0.5763,0.5997,0.5997,0.7633,0.8634,0.8634,0.8634,0.7833,0.6097,0.4692,0.4392,0.5397,0.5397,0.6264,0.7997,0.865,0.9737,1.1203,1.1355,1.1508,0.1457,0.0942,0.0409,0.0082,0.0,0.0,0.0,0.0,0.0,0.0,0.0,0.0,0.0,-0.05,-0.0715,-0.0095,-0.1092,-0.2553,-0.4342,-0.6007,-0.657,-0.5209,-0.4296,-0.3122,-0.1395,-0.0502,0.0,0.0,0.0,0.0,0.0,0.0,0.0,0.0,0.0,0.0,0.0,0.0,0.0,0.0,0.0,0.0,0.0,0.0,0.0,0.0,0.0,0.0,0.0,0.0,0.0,0.0,0.0,0.0,0.0,0.0,0.0,0.0,0.0,0.0,0.0,0.0,0.0,0.0,0.0,0.0,0.0,0.0,0.0,0.0303,0.1612,0.0975,0.0504,0.245,0.1411,0.0,0.0,0.0,0.0,0.0,0.0,0.0,0.0,0.0,0.0336,0.1311,0.1445,0.1814,0.2786,0.3657,0.3858,0.3021,0.3657,0.4158,0.4158,0.5026,0.5926,0.6762,0.6798,0.5995,0.4225,0.3221,0.2785,0.2919,0.3724,0.5076,0.6892,0.7915,0.938,1.1305,1.1423,1.1541,0.1042,0.0464,0.0,0.0,0.0,0.0,0.0,0.0,0.0,0.0,0.0,-0.0058,-0.0269,-0.1068,-0.1455,-0.0734,-0.2834,-0.5264,-0.7191,-0.8742,-0.92,-0.7983,-0.6472,-0.489,-0.3274,-0.1711,-0.084,-0.084,-0.084,-0.0706,-0.0437,-0.0404,-0.0269,0.0,0.0,0.0,0.0,0.0,0.0,0.0,0.0,0.0,0.0,0.0,0.0,0.0,0.0,0.0,0.0,0.0,0.0,0.0,0.0,0.0,0.0,0.0,0.0,0.0,0.0,0.0,0.0,0.0,0.0,0.0,0.0,0.0,0.0,0.0,0.0,0.0,0.0,0.0,0.0,0.0,0.0,0.0,0.0,0.0,0.0,0.0,0.0,0.0,0.0,0.0,0.0,0.0,0.0,0.0,0.0,0.1344,0.1713,0.0168,0.1378,0.2283,0.2283,0.2283,0.2953,0.4494,0.4827,0.4191,0.235,0.2283,0.1579,0.0034,0.1515,0.325,0.5162,0.712,0.9081,1.0963,1.1402,1.1584,0.0924,0.046,0.0,0.0,0.0,0.0,0.0,0.0,0.0,0.0,0.0,-0.0341,-0.1489,-0.0939,-0.0974,-0.3043,-0.5045,-0.6655,-0.7603,-0.8994,-0.9443,-0.8126,-0.7716,-0.6881,-0.514,-0.4728,-0.4559,-0.4559,-0.4559,-0.3891,-0.2383,-0.2283,-0.1579,-0.0034,0.0,0.0,0.0,0.0,0.0,0.0,0.0,0.0,0.0,0.0,0.0,0.0,0.0,0.0,0.0,0.0,0.0,0.0,0.0,0.0,0.0,0.0,0.0,0.0,0.0,0.0,0.0,0.0,0.0,0.0,0.0,0.0,0.0,0.0,0.0,0.0,0.0,0.0,0.0,0.0,0.0,0.0,0.0,0.0,0.0,0.0,0.0,0.0,0.0,0.0,0.0,0.0,0.0,0.0,0.0,0.0235,0.0303,0.0034,0.0235,0.0404,0.0404,0.0404,0.0538,0.0807,0.2283,0.2317,0.0504,0.0404,0.0269,0.0,0.0272,0.1301,0.3151,0.5227,0.7173,0.8997,1.0785,1.1584,0.0409,0.0217,0.0,0.0,0.0,0.0,0.0,0.0,0.0,0.0,0.0,-0.0405,-0.176,-0.214,-0.323,-0.6182,-0.6888,-0.7513,-0.8722,-0.9539,-0.984,-0.9407,-0.8473,-0.7617,-0.6863,-0.5941,-0.5397,-0.5397,-0.5397,-0.5029,-0.4193,-0.4158,-0.3791,-0.2953,-0.1981,-0.1914,-0.2919,-0.0975,0.0,0.0,0.0,0.0,0.0,0.0,0.0,0.0,0.0,0.0,0.0,0.0,0.0,0.0,0.0,0.0,0.0,0.0,0.0,0.0,0.0,0.0,0.0,0.0,0.0,0.0,0.0,0.0,0.0,0.0,0.0,0.0,0.0,0.0,0.0,0.0,0.0,0.0,0.0,0.0,0.0,0.0,0.0,0.0,0.0,0.0,0.0,0.0,0.0,0.0,0.0,0.0,0.0,0.0,0.0,0.0,0.0,0.0,0.0,0.0,0.0773,0.0874,0.0034,0.0,0.0,0.0,0.0,0.1446,0.436,0.5326,0.732,1.0212,1.1149,1.1584,0.0,0.0,0.0,0.0,0.0,0.0,0.0,0.0,-0.0095,-0.0448,-0.0489,-0.0972,-0.2632,-0.412,-0.5814,-0.8035,-0.8074,-0.8312,-0.9734,-0.9998,-1.0184,-1.051,-0.9326,-0.8506,-0.8626,-0.7434,-0.6633,-0.6633,-0.6633,-0.6466,-0.603,-0.5997,-0.583,-0.5397,-0.4059,-0.399,-0.5397,-0.2652,-0.1042,-0.0639,-0.0202,0.0,0.0,0.0,0.0,0.0,0.0,0.0,0.0,0.0,0.0,0.0,0.0,0.0,0.0,0.0,0.0,0.0,0.0,0.0,0.0,0.0,0.0,0.0,0.0,0.0,0.0,0.0,0.0,0.0,0.0,0.0,0.0,0.0,0.0,0.0,0.0,0.0,0.0,0.0,0.0,0.0,0.0,0.0,0.0,0.0,0.0,0.0,0.0,0.0,0.0,0.0,0.0,0.0,0.0,0.0,0.0,0.0,0.0,0.0,0.0,0.0,0.0,0.0,0.0445,0.2147,0.5132,0.6031,0.8012,1.0926,1.14,1.1584,0.0,0.0,0.0,0.0,0.0,0.0,0.0,0.0,-0.0388,-0.1753,-0.1933,-0.2652,-0.5228,-0.6804,-0.7529,-0.6942,-0.8097,-0.935,-1.0144,-1.0256,-1.0375,-1.0637,-1.0571,-1.0508,-1.0485,-1.0386,-1.0319,-1.0319,-1.0319,-0.9576,-0.7897,-0.7797,-0.7065,-0.5462,-0.5263,-0.5263,-0.5397,-0.513,-0.4158,-0.2484,-0.0807,0.0,0.0,0.0,0.0,0.0,0.0,0.0,0.0,0.0,0.0,0.0,0.0,0.0,0.0,0.0,0.0,0.0,0.0,0.0,0.0,0.0,0.0,0.0,0.0,0.0,0.0,0.0,0.0,0.0,0.0,0.0,0.0,0.0,0.0,0.0,0.0,0.0,0.0,0.0,0.0,0.0,0.0,0.0,0.0,0.0,0.0,0.0,0.0,0.0,0.0,0.0,0.0,0.0,0.0,0.0,0.0,0.0,0.0,0.0,0.0,0.0,0.0,0.0,0.1759,0.2831,0.3113,0.6729,0.8624,0.8956,1.0743,1.1584,0.0,-0.0609,-0.1209,-0.1033,-0.1691,-0.2164,-0.1409,-0.1819,-0.2548,-0.3186,-0.3434,-0.4101,-0.586,-0.7415,-0.8355,-0.812,-0.8905,-0.97,-1.0052,-1.0297,-1.0453,-1.0565,-1.0663,-1.0688,-1.0688,-1.0688,-1.0688,-1.0688,-1.0688,-1.0416,-0.9709,-0.9676,-0.9374,-0.8706,-0.76,-0.7567,-0.8673,-0.65,-0.5596,-0.596,-0.4191,-0.2752,-0.168,-0.168,-0.1075,0.0,0.0,0.0,0.0,0.0,0.0,0.0,0.0,0.0,0.0,0.0,0.0,0.0,0.0,0.0,0.0,0.0,0.0,0.0,0.0,0.0,0.0,0.0,0.0,0.0,0.0,0.0,0.0,0.0,0.0,0.0,0.0,0.0,0.0,0.0,0.0,0.0,0.0,0.0,0.0,0.0,0.0,0.0,0.0,0.0,0.0,0.0,0.0,0.0,0.0,0.0,0.0,0.0,0.0,0.0,0.0,0.0,0.0,0.0,0.1899,0.3497,0.4716,0.7378,0.9321,1.0521,1.1253,1.1584,-0.0416,-0.1105,-0.1796,-0.2145,-0.3159,-0.3959,-0.347,-0.3623,-0.4042,-0.4663,-0.5274,-0.5942,-0.6785,-0.7874,-0.8703,-0.8879,-0.9369,-0.9792,-0.9991,-1.0194,-1.0371,-1.0419,-1.0558,-1.0649,-1.0649,-1.0694,-1.0688,-1.0688,-1.0688,-1.0688,-1.0688,-1.0688,-1.0688,-1.0688,-0.9507,-0.944,-1.0688,-0.8271,-0.7667,-0.8837,-0.7636,-0.583,-0.3556,-0.3556,-0.2551,-0.084,-0.084,-0.0538,0.0,0.0,0.0,0.0,0.0,0.0,0.0,0.0,0.0,0.0,0.0,0.0,0.0,0.0,0.0,0.0,0.0,0.0,0.0,0.0,0.0,0.0,0.0,0.0,0.0,0.0,0.0,0.0,0.0,0.0,0.0,0.0,0.0,0.0,0.0,0.0,0.0,0.0,0.0,0.0,0.0,0.0,0.0,0.0,0.0,0.0,0.0,0.0,0.0,0.0,0.0,0.0,0.0,0.0,0.0269,0.084,0.2794,0.475,0.6664,0.8632,1.0305,1.1584,1.1584,1.1584,-0.1299,-0.1369,-0.1528,-0.3189,-0.4164,-0.5003,-0.6062,-0.5137,-0.4503,-0.6171,-0.748,-0.8298,-0.8298,-0.8417,-0.8584,-0.8862,-0.9288,-0.968,-0.9974,-0.9984,-1.0076,-1.0259,-1.0437,-1.049,-1.049,-1.0629,-1.0684,-1.0684,-1.0688,-1.0688,-1.0688,-1.0688,-1.0688,-1.0688,-1.0688,-1.0688,-1.0688,-1.0688,-1.0688,-1.0688,-1.0688,-0.8839,-0.5431,-0.5431,-0.4426,-0.2719,-0.2719,-0.168,-0.0034,0.0,0.0,0.0,0.0,0.0,0.0,0.0,0.0,0.0,0.0,0.0,0.0,0.0,0.0,0.0,0.0,0.0,0.0,0.0,0.0,0.0,0.0,0.0,0.0,0.0,0.0,0.0,0.0,0.0,0.0,0.0,0.0,0.0,0.0,0.0,0.0,0.0,0.0,0.0,0.0,0.0,0.0,0.0,0.0,0.0,0.0,0.0,0.0,0.0,0.0,0.0,0.0,0.0,0.084,0.2686,0.4751,0.6698,0.8516,1.0573,1.1584,1.1584,1.1584,1.1584,-0.1022,-0.2043,-0.3105,-0.4127,-0.5503,-0.6733,-0.7232,-0.7081,-0.7068,-0.7991,-0.8328,-0.8444,-0.8444,-0.8628,-0.8804,-0.8896,-0.9288,-0.9676,-0.9832,-0.995,-1.0004,-1.0079,-1.0253,-1.0376,-1.0376,-1.0473,-1.0561,-1.0561,-1.066,-1.0688,-1.0688,-1.0688,-1.0688,-1.0688,-1.0688,-1.0688,-1.0688,-1.0688,-1.0688,-1.0688,-1.0688,-0.9477,-0.7231,-0.7231,-0.6262,-0.4526,-0.3254,-0.2383,-0.1814,-0.0538,0.0,0.0,0.0,0.0,0.0,0.0,0.0,0.0,0.0,0.0,0.0,0.0,0.0,0.0,0.0,0.0,0.0,0.0,0.0,0.0,0.0,0.0,0.0,0.0,0.0,0.0,0.0,0.0,0.0,0.0,0.0,0.0,0.0,0.0,0.0,0.0,0.0,0.0,0.0,0.0,0.0,0.0,0.0,0.0,0.0,0.0,0.0,0.0,0.0,0.0,0.0,0.0,0.1116,0.3487,0.5783,0.7486,0.8627,1.0617,1.1584,1.1584,1.1584,1.1584,-0.2144,-0.3163,-0.4157,-0.545,-0.6531,-0.7421,-0.7957,-0.8169,-0.8399,-0.8825,-0.8716,-0.8591,-0.8652,-0.8859,-0.9042,-0.9078,-0.941,-0.9694,-0.9778,-0.9869,-0.9927,-0.9927,-1.0062,-1.0188,-1.0188,-1.0324,-1.0409,-1.0409,-1.0544,-1.0629,-1.0629,-1.0654,-1.0688,-1.0688,-1.0688,-1.0688,-1.0688,-1.0688,-1.0688,-1.0688,-1.0688,-1.0147,-0.9072,-0.9072,-0.8102,-0.6295,-0.3789,-0.2685,-0.2551,-0.074,0.0,0.0,0.0,0.0,0.0,0.0,0.0,0.0,0.0,0.0,0.0,0.0,0.0,0.0,0.0,0.0,0.0,0.0,0.0,0.0,0.0,0.0,0.0,0.0,0.0,0.0,0.0,0.0,0.0,0.0,0.0,0.0,0.0,0.0,0.0,0.0,0.0,0.0,0.0,0.0,0.0,0.0,0.0,0.0,0.0,0.0,0.0,0.0,0.0,0.0,0.0,0.0,0.0744,0.232,0.5768,0.8261,0.9721,1.0989,1.1584,1.1584,1.1584,1.1584,-0.3991,-0.4448,-0.4766,-0.6831,-0.7288,-0.7435,-0.8275,-0.8591,-0.8727,-0.8879,-0.8801,-0.8747,-0.8885,-0.9055,-0.9226,-0.9366,-0.9608,-0.9771,-0.9771,-0.9781,-0.9792,-0.9792,-0.9913,-0.9998,-0.9998,-1.0168,-1.0259,-1.0259,-1.0392,-1.0473,-1.0473,-1.0616,-1.0667,-1.0667,-1.0681,-1.0688,-1.0688,-1.0688,-1.0688,-1.0688,-1.0688,-1.0688,-1.0688,-1.0688,-0.9709,-0.7831,-0.459,-0.2986,-0.2585,-0.0908,-0.0135,0.0,0.0,0.0,0.0,0.0,0.0,0.0,0.0,0.0,0.0,0.0,0.0,0.0,0.0,0.0,0.0,0.0,0.0,0.0,0.0,0.0,0.0,0.0,0.0,0.0,0.0,0.0,0.0,0.0,0.0,0.0,0.0,0.0,0.0,0.0,0.0,0.0,0.0,0.0,0.0,0.0,0.0,0.0,0.0,0.0,0.0,0.0,0.0,0.0303,0.0941,0.0336,0.0,0.0,0.5274,0.9119,1.1313,1.1492,1.1584,1.1584,1.1584,1.1584,-0.3624,-0.4364,-0.5117,-0.6627,-0.7529,-0.8104,-0.8298,-0.852,-0.8727,-0.8879,-0.8885,-0.8872,-0.8906,-0.9055,-0.9221,-0.9226,-0.9456,-0.9656,-0.9656,-0.9721,-0.9792,-0.9792,-0.9819,-0.9839,-0.9839,-0.9978,-1.0069,-1.0069,-1.0239,-1.0327,-1.0327,-1.0463,-1.0541,-1.0541,-1.0656,-1.0688,-1.0688,-1.0688,-1.0688,-1.0688,-1.0688,-1.0688,-1.0688,-1.0688,-0.9709,-0.7964,-0.7196,-0.5292,-0.2685,-0.2283,-0.1277,0.0,0.0,0.0,0.0,0.0,0.0,0.0,0.0,0.0,0.0,0.0,0.0,0.0,0.0,0.0,0.0,0.0,0.0,0.0,0.0,0.0,0.0,0.0,0.0,0.0,0.0,0.0,0.0,0.0,0.0,0.0,0.0,0.0,0.0,0.0,0.0,0.0,0.0,0.0,0.0,0.0,0.0,0.0,0.0,0.0,0.0,0.0,0.0,0.2517,0.8169,0.2985,0.0,0.0,0.6891,1.0817,1.1555,1.1563,1.1584,1.1584,1.1584,1.1584,-0.4275,-0.5044,-0.5755,-0.7089,-0.779,-0.818,-0.8277,-0.8417,-0.854,-0.8689,-0.8808,-0.8912,-0.8912,-0.9055,-0.921,-0.921,-0.9376,-0.95,-0.95,-0.9629,-0.969,-0.969,-0.9751,-0.9792,-0.9792,-0.9863,-0.991,-0.991,-1.0052,-1.0171,-1.0171,-1.031,-1.0392,-1.0392,-1.047,-1.0541,-1.0609,-1.0612,-1.0649,-1.0688,-1.0688,-1.0688,-1.0688,-1.0688,-1.018,-0.9238,-0.8366,-0.696,-0.5158,-0.4324,-0.2919,-0.1277,-0.1277,-0.0773,0.0,0.0,0.0,0.0,0.0,0.0,0.0,0.0,0.0,0.0,0.0,0.0,0.0,0.0,0.0,0.0,0.0,0.0,0.0,0.0,0.0,0.0,0.0,0.0,0.0,0.0,0.0,0.0,0.0,0.0,0.0,0.0,0.0,0.0,0.0,0.0,0.0,0.0,0.0,0.0,0.0,0.0,0.0,0.0,0.0,0.1679,0.5426,0.5292,0.5125,0.5125,0.8963,1.1172,1.1584,1.1584,1.1584,1.1584,1.1584,1.1584,-0.4975,-0.5762,-0.6417,-0.7634,-0.7976,-0.8047,-0.8201,-0.8277,-0.8328,-0.8447,-0.8686,-0.8872,-0.8872,-0.9018,-0.9145,-0.9145,-0.9271,-0.9373,-0.9373,-0.9473,-0.9571,-0.9571,-0.9696,-0.9754,-0.9754,-0.9775,-0.9792,-0.9792,-0.9907,-0.9981,-0.9981,-1.0158,-1.0243,-1.0243,-1.0266,-1.0337,-1.0456,-1.0456,-1.0531,-1.068,-1.0674,-1.0688,-1.0688,-1.0688,-1.0688,-1.0621,-0.9105,-0.8299,-0.7897,-0.6431,-0.4593,-0.2685,-0.2685,-0.1579,0.0,0.0,0.0,0.0,0.0,0.0,0.0,0.0,0.0,0.0,0.0,0.0,0.0,0.0,0.0,0.0,0.0,0.0,0.0,0.0,0.0,0.0,0.0,0.0,0.0,0.0,0.0,0.0,0.0,0.0,0.0,0.0,0.0,0.0,0.0,0.0,0.0,0.0,0.0,0.0,0.0,0.0,0.0,0.0,0.0,0.0,0.0,0.5693,0.9485,1.084,1.0738,1.1016,1.1584,1.1584,1.1584,1.1584,1.1584,1.1584,-0.4477,-0.5607,-0.678,-0.7482,-0.7827,-0.7995,-0.804,-0.8174,-0.8301,-0.8321,-0.8533,-0.874,-0.874,-0.8838,-0.894,-0.894,-0.9089,-0.9241,-0.9241,-0.9342,-0.9441,-0.9441,-0.9547,-0.9639,-0.9639,-0.9717,-0.9792,-0.9792,-0.9808,-0.9819,-0.9819,-0.9967,-1.0049,-1.0049,-1.0212,-1.0322,-1.0342,-1.0342,-1.0382,-1.0524,-1.0623,-1.0688,-1.0688,-1.0688,-1.0688,-1.0688,-1.0452,-0.944,-0.7997,-0.7764,-0.5693,-0.2685,-0.2685,-0.1579,0.0,0.0,0.0,0.0,0.0,0.0,0.0,0.0,0.0,0.0,0.0,0.0,0.0,0.0,0.0,0.0,0.0,0.0,0.0,0.0,0.0,0.0,0.0,0.0,0.0,0.0,0.0,0.0,0.0,0.0,0.0,0.0,0.0,0.0,0.0,0.0,0.0,0.0,0.0,0.0,0.0,0.0,0.0,0.0,0.0,0.0,0.0,0.0907,0.4592,1.1345,1.0985,1.1016,1.1584,1.1584,1.1584,1.1584,1.1584,1.1584,-0.4678,-0.573,-0.6661,-0.7407,-0.7756,-0.7908,-0.7996,-0.8067,-0.814,-0.814,-0.8313,-0.8516,-0.8679,-0.8737,-0.8811,-0.8896,-0.8963,-0.9032,-0.9032,-0.9189,-0.9281,-0.9281,-0.9417,-0.9483,-0.9483,-0.9615,-0.9703,-0.9703,-0.9748,-0.9792,-0.9792,-0.9852,-0.989,-0.989,-0.9988,-1.0066,-1.012,-1.012,-1.0226,-1.0375,-1.0521,-1.0592,-1.0595,-1.068,-1.0688,-1.0688,-1.0688,-1.0246,-0.9507,-0.9507,-0.7434,-0.4226,-0.4226,-0.2484,0.0,0.0,0.0,0.0,0.0,0.0,0.0,0.0,0.0,0.0,0.0,0.0,0.0,0.0,0.0,0.0,0.0,0.0,0.0,0.0,0.0,0.0,0.0,0.0,0.0,0.0,0.0,0.0,0.0,0.0,0.0,0.0,0.0,0.0,0.0,0.0,0.0,0.0,0.0,0.0,0.0,0.0,0.0,0.0,0.0,0.0,0.0,0.0,0.3494,1.0936,1.1154,1.132,1.1584,1.1584,1.1584,1.1584,1.1584,1.1584,-0.4612,-0.5477,-0.6144,-0.6987,-0.7394,-0.7624,-0.7851,-0.7932,-0.7966,-0.7982,-0.8108,-0.8292,-0.855,-0.8628,-0.8703,-0.8828,-0.8852,-0.8869,-0.8906,-0.9032,-0.9128,-0.9128,-0.926,-0.9352,-0.9352,-0.9462,-0.9551,-0.9551,-0.9686,-0.9737,-0.9737,-0.9771,-0.9792,-0.9792,-0.9792,-0.9846,-0.9957,-0.9967,-1.0076,-1.0222,-1.0368,-1.0439,-1.0443,-1.0595,-1.0663,-1.0663,-1.0704,-1.0688,-1.0688,-1.0688,-0.8607,-0.5397,-0.5397,-0.3187,0.0,0.0,0.0,0.0,0.0,0.0,0.0,0.0,0.0,0.0,0.0,0.0,0.0,0.0,0.0,0.0,0.0,0.0,0.0,0.0,0.0,0.0,0.0,0.0,0.0,0.0,0.0,0.0,0.0,0.0,0.0,0.0,0.0,0.0,0.0,0.0,0.0,0.0,0.0,0.0,0.0,0.0,0.0,0.0,0.0,0.0,0.0,0.0,0.2517,0.7867,1.0356,1.1584,1.1584,1.1584,1.1584,1.1584,1.1584,1.1584,-0.382,-0.4514,-0.5153,-0.5907,-0.6525,-0.7066,-0.7522,-0.7726,-0.7841,-0.7986,-0.7995,-0.8077,-0.8287,-0.843,-0.8543,-0.8699,-0.8723,-0.8747,-0.8889,-0.8919,-0.8923,-0.8923,-0.9079,-0.9221,-0.9221,-0.9332,-0.9424,-0.9424,-0.9534,-0.9618,-0.9618,-0.9717,-0.9792,-0.9792,-0.9792,-0.9795,-0.9802,-0.9947,-1.0021,-1.0032,-1.0219,-1.0322,-1.0297,-1.0439,-1.0504,-1.051,-1.0623,-1.0688,-1.0688,-1.0688,-0.8607,-0.5397,-0.5397,-0.3187,0.0,0.0,0.0,0.0,0.0,0.0,0.0,0.0,0.0,0.0,0.0,0.0,0.0,0.0,0.0,0.0,0.0,0.0,0.0,0.0,0.0,0.0,0.0,0.0,0.0,0.0,0.0,0.0,0.0,0.0,0.0,0.0,0.0,0.0,0.0,0.0,0.0,0.0,0.0,0.0,0.0,0.0,0.0,0.0,0.0,0.0,0.0,0.0,0.0168,0.0538,0.7842,1.1584,1.1584,1.1584,1.1584,1.1584,1.1584,1.1584,-0.3366,-0.4087,-0.4797,-0.5453,-0.6141,-0.6705,-0.6963,-0.7431,-0.7804,-0.7858,-0.7946,-0.8033,-0.8088,-0.8245,-0.842,-0.854,-0.8564,-0.8581,-0.8638,-0.873,-0.8767,-0.8767,-0.8923,-0.9015,-0.9015,-0.9175,-0.9264,-0.9264,-0.9403,-0.9462,-0.9462,-0.9605,-0.9686,-0.9686,-0.9744,-0.9792,-0.9792,-0.9846,-0.9873,-0.9876,-1.0028,-1.0103,-1.0106,-1.0287,-1.0405,-1.0493,-1.0551,-1.0629,-1.0688,-1.0688,-0.8607,-0.5464,-0.6197,-0.3822,0.0,0.0,0.0,0.0,0.0,0.0,0.0,0.0,0.0,0.0,0.0,0.0,0.0,0.0,0.0,0.0,0.0,0.0,0.0,0.0,0.0,0.0,0.0,0.0,0.0,0.0,0.0,0.0,0.0,0.0,0.0,0.0,0.0,0.0,0.0,0.0,0.0,0.0,0.0,0.0,0.0,0.0,0.0,0.0,0.0,0.0,0.0,0.0,0.0,0.0,0.275,0.6603,1.1584,1.1584,1.1584,1.1584,1.1584,1.1584,-0.2836,-0.3489,-0.4175,-0.5019,-0.5562,-0.6039,-0.6573,-0.7041,-0.7434,-0.7689,-0.7834,-0.7952,-0.7982,-0.8098,-0.8241,-0.8413,-0.8437,-0.8454,-0.8502,-0.857,-0.8632,-0.8632,-0.874,-0.8835,-0.8835,-0.8994,-0.9111,-0.9111,-0.9247,-0.9332,-0.9332,-0.9449,-0.9557,-0.9608,-0.967,-0.9744,-0.9792,-0.9792,-0.9792,-0.9792,-0.9893,-0.994,-0.9947,-1.0134,-1.0256,-1.0348,-1.0399,-1.0534,-1.0688,-1.0688,-0.8839,-0.603,-0.6796,-0.4189,0.0,0.0,0.0,0.0,0.0,0.0,0.0,0.0,0.0,0.0,0.0,0.0,0.0,0.0,0.0,0.0,0.0,0.0,0.0,0.0,0.0,0.0,0.0,0.0,0.0,0.0,0.0,0.0,0.0,0.0,0.0,0.0,0.0,0.0,0.0,0.0,0.0,0.0,0.0,0.0,0.0,0.0,0.0,0.0,0.0,0.0,0.0,0.0,0.0,0.0,0.0,0.2528,0.7693,0.9687,1.0959,1.1584,1.1584,1.1584,0.0,0.0,0.0,-0.4505,-0.4764,-0.5042,-0.6335,-0.6559,-0.6685,-0.7414,-0.7682,-0.781,-0.7976,-0.7982,-0.806,-0.8264,-0.8287,-0.8338,-0.8478,-0.8498,-0.8502,-0.8502,-0.8611,-0.8706,-0.871,-0.8818,-0.8906,-0.8912,-0.9066,-0.9204,-0.9204,-0.9322,-0.9445,-0.9598,-0.9608,-0.9676,-0.9785,-0.9788,-0.9792,-0.9792,-0.9792,-0.9792,-0.9795,-0.9944,-0.9984,-0.9997,-1.0209,-1.0439,-1.0674,-1.0677,-0.9268,-0.7091,-0.7162,-0.4255,0.0,0.0,0.0,0.0,0.0,0.0,0.0,0.0,0.0,0.0,0.0,0.0,0.0,0.0,0.0,0.0,0.0,0.0,0.0,0.0,0.0,0.0,0.0,0.0,0.0,0.0,0.0,0.0,0.0,0.0,0.0,0.0,0.0,0.0,0.0,0.0,0.0,0.0,0.0,0.0,0.0,0.0,0.0,0.0,0.0,0.0,0.0,0.0,0.0,0.0,0.0,0.0,0.0,0.5836,0.9643,1.1472,1.1548,1.1584,-0.1265,0.0,0.0,0.0,0.0,0.0,-0.5027,-0.5569,-0.6158,-0.6695,-0.699,-0.7293,-0.7763,-0.7851,-0.7898,-0.8054,-0.8077,-0.8091,-0.8131,-0.8258,-0.8355,-0.8355,-0.8485,-0.8587,-0.8699,-0.8723,-0.8791,-0.8902,-0.895,-0.897,-0.897,-0.9165,-0.9315,-0.9439,-0.9551,-0.9629,-0.9666,-0.9741,-0.9792,-0.9792,-0.9792,-0.9792,-0.9792,-0.9836,-0.9913,-0.9987,-1.0062,-1.0222,-1.0412,-1.0514,-0.9145,-0.7129,-0.8993,-0.5726,0.0,0.0,0.0,0.0,0.0,0.0,0.0,0.0,0.0,0.0,0.0,0.0,0.0,0.0,0.0,0.0,0.0,0.0,0.0,0.0,0.0,0.0,0.0,0.0,0.0,0.0,0.0,0.0,0.0,0.0,0.0,0.0,0.0,0.0,0.0,0.0,0.0,0.0,0.0,0.0,0.0,0.0,0.0,0.0,0.0,0.0,0.0,0.0,0.0,0.0,0.0,0.0,0.0,0.5382,0.824,0.8814,1.0707,1.1584,-0.0834,-0.141,-0.2127,-0.2891,0.0,0.0,-0.4771,-0.5192,-0.563,-0.6348,-0.6664,-0.6955,-0.7421,-0.7584,-0.7678,-0.7807,-0.7881,-0.7942,-0.7982,-0.8091,-0.8174,-0.8174,-0.8328,-0.8454,-0.852,-0.8638,-0.872,-0.8808,-0.8875,-0.8912,-0.8912,-0.9018,-0.9162,-0.9311,-0.94,-0.9479,-0.9608,-0.9693,-0.9734,-0.9792,-0.9792,-0.9792,-0.9792,-0.9792,-0.9839,-0.9923,-0.9923,-0.9974,-1.01,-1.0246,-0.954,-0.8407,-0.8964,-0.5421,0.0,0.0,0.0,0.0,0.0,0.0,0.0,0.0,0.0,0.0,0.0,0.0,0.0,0.0,0.0,0.0,0.0,0.0,0.0,0.0,0.0,0.0,0.0,0.0,0.0,0.0,0.0,0.0,0.0,0.0,0.0,0.0,0.0,0.0,0.0,0.0,0.0,0.0,0.0,0.0,0.0,0.0,0.0,0.0,0.0,0.0,0.0,0.0,0.0,0.0,0.0,0.0,0.0,0.3017,0.6146,0.936,1.0887,1.1584,-0.0653,-0.0853,-0.1281,-0.2892,-0.3055,0.0,-0.4894,-0.5068,-0.5136,-0.6079,-0.6392,-0.6583,-0.6904,-0.7119,-0.7294,-0.7424,-0.7628,-0.7804,-0.7989,-0.7988,-0.7988,-0.7988,-0.816,-0.8277,-0.8294,-0.8509,-0.8669,-0.8682,-0.8798,-0.8885,-0.8885,-0.8902,-0.897,-0.9152,-0.92,-0.9311,-0.9557,-0.9591,-0.9673,-0.9768,-0.9785,-0.9792,-0.9792,-0.9792,-0.9792,-0.9792,-0.9792,-0.9792,-0.9802,-0.9937,-1.0123,-1.013,-0.7909,-0.4162,0.0,0.0,0.0,0.0,0.0,0.0,0.0,0.0,0.0,0.0,0.0,0.0,0.0,0.0,0.0,0.0,0.0,0.0,0.0,0.0,0.0,0.0,0.0,0.0,0.0,0.0,0.0,0.0,0.0,0.0,0.0,0.0,0.0,0.0,0.0,0.0,0.0,0.0,0.0,0.0,0.0,0.0,0.0,0.0,0.0,0.0,0.0,0.0,0.0,0.0,0.0,0.0,0.0,0.0,0.3562,1.0344,1.1217,1.1584,-0.0137,-0.0524,-0.0983,-0.1339,-0.2434,0.0,-0.3295,-0.403,-0.4773,-0.4866,-0.4991,-0.5284,-0.5942,-0.617,-0.6342,-0.6518,-0.7069,-0.7594,-0.7959,-0.7988,-0.7988,-0.7988,-0.804,-0.8133,-0.8284,-0.8349,-0.843,-0.8543,-0.8669,-0.8727,-0.8727,-0.8845,-0.8923,-0.8953,-0.9121,-0.9238,-0.9271,-0.9486,-0.9625,-0.9652,-0.9737,-0.9792,-0.9792,-0.9792,-0.9792,-0.9792,-0.9792,-0.9792,-0.9792,-0.9822,-0.9863,-0.9704,-0.7647,-0.4045,0.0,0.0,0.0,0.0,0.0,0.0,0.0,0.0,0.0,0.0,0.0,0.0,0.0,0.0,0.0,0.0,0.0,0.0,0.0,0.0,0.0,0.0,0.0,0.0,0.0,0.0,0.0,0.0,0.0,0.0,0.0,0.0,0.0,0.0,0.0,0.0,0.0,0.0,0.0,0.0,0.0,0.0,0.0,0.0,0.0,0.0,0.0,0.0,0.0,0.0,0.0,0.0,0.0,0.0,0.0766,0.2402,0.8672,1.1584,0.0,-0.0218,-0.0544,-0.0911,-0.1634,0.0,0.0,-0.3348,-0.4134,-0.4433,-0.4661,-0.4986,-0.5586,-0.5759,-0.5861,-0.6025,-0.6661,-0.7177,-0.7248,-0.7685,-0.7988,-0.7988,-0.7988,-0.8044,-0.8147,-0.825,-0.8355,-0.8498,-0.8554,-0.8628,-0.8706,-0.8754,-0.8831,-0.8909,-0.9008,-0.9107,-0.921,-0.9335,-0.9459,-0.9608,-0.9683,-0.9721,-0.9792,-0.9792,-0.9792,-0.9792,-0.9792,-0.9792,-0.9792,-0.9792,-0.9792,-0.9521,-0.6889,-0.4124,-0.1514,-0.0411,0.0,0.0,0.0,0.0,0.0,0.0,0.0,0.0,0.0,0.0,0.0,0.0,0.0,0.0,0.0,0.0,0.0,0.0,0.0,0.0,0.0,0.0,0.0,0.0,0.0,0.0,0.0,0.0,0.0,0.0,0.0,0.0,0.0,0.0,0.0,0.0,0.0,0.0,0.0,0.0,0.0,0.0,0.0,0.0,0.0,0.0,0.0,0.0,0.0,0.0,0.0,0.0,0.0,0.0109,0.3998,0.791,0.0,0.0,-0.0142,-0.0737,-0.0981,-0.1271,0.0,0.0,0.0,-0.4097,-0.4397,-0.4732,-0.5322,-0.5409,-0.5436,-0.5562,-0.6177,-0.6576,-0.6318,-0.7112,-0.7716,-0.7716,-0.7844,-0.7918,-0.7888,-0.7997,-0.8175,-0.8381,-0.8342,-0.84,-0.8615,-0.8679,-0.874,-0.8865,-0.8896,-0.8967,-0.9138,-0.9197,-0.9305,-0.952,-0.9581,-0.9669,-0.9751,-0.9778,-0.9792,-0.9792,-0.9792,-0.9792,-0.9792,-0.9792,-0.9606,-0.9052,-0.6049,-0.4364,-0.3326,-0.0878,0.0,0.0,0.0,0.0,0.0,0.0,0.0,0.0,0.0,0.0,0.0,0.0,0.0,0.0,0.0,0.0,0.0,0.0,0.0,0.0,0.0,0.0,0.0,0.0,0.0,0.0,0.0,0.0,0.0,0.0,0.0,0.0,0.0,0.0,0.0,0.0,0.0,0.0,0.0,0.0,0.0,0.0,0.0,0.0,0.0,0.0,0.0,0.0,0.0,0.0,0.0,0.0,0.0,0.0,0.0,0.3382,0.0,0.0,-0.0019,-0.01,-0.0913,-0.1586,-0.117,0.0,-0.2866,-0.3195,0.0,-0.3616,-0.4614,0.0,0.0,-0.4807,-0.5338,-0.5698,-0.5545,-0.6178,-0.6671,-0.6671,-0.7241,-0.7597,-0.7485,-0.7339,-0.7472,-0.8023,-0.7723,-0.7763,-0.8318,-0.8567,-0.872,-0.8733,-0.8841,-0.8919,-0.8936,-0.9117,-0.9228,-0.9237,-0.9479,-0.9618,-0.9639,-0.9734,-0.9792,-0.9792,-0.9792,-0.9792,-0.9792,-0.9792,-0.8958,-0.7484,-0.5621,-0.4824,-0.4343,-0.116,0.0,0.0,0.0,0.0,0.0,0.0,0.0,0.0,0.0,0.0,0.0,0.0,0.0,0.0,0.0,0.0,0.0,0.0,0.0,0.0,0.0,0.0,0.0,0.0,0.0,0.0,0.0,0.0,0.0,0.0,0.0,0.0,0.0,0.0,0.0,0.0,0.0,0.0,0.0,0.0,0.0,0.0,0.0,0.0,0.0,0.0,0.0,0.0,0.0,0.0,0.0,0.0,0.0,0.0,0.0,0.0474,0.0,0.0,0.0,0.0,-0.0389,-0.0692,-0.0439,-0.1106,-0.1861,-0.2161,0.0,0.0,0.0,0.0,0.0,0.0,-0.5047,-0.5209,-0.4914,-0.5521,-0.6076,-0.6358,-0.6651,-0.692,-0.7095,-0.7107,-0.7296,-0.7729,-0.7529,-0.7617,-0.8109,-0.834,-0.8533,-0.8706,-0.8743,-0.8821,-0.8912,-0.8998,-0.9097,-0.921,-0.9311,-0.942,-0.9483,-0.9632,-0.9696,-0.9703,-0.9754,-0.9792,-0.9792,-0.9792,-0.939,-0.859,-0.666,-0.4914,-0.3232,-0.087,0.0,0.0,0.0,0.0,0.0,0.0,0.0,0.0,0.0,0.0,0.0,0.0,0.0,0.0,0.0,0.0,0.0,0.0,0.0,0.0,0.0,0.0,0.0,0.0,0.0,0.0,0.0,0.0,0.0,0.0,0.0,0.0,0.0,0.0,0.0,0.0,0.0,0.0,0.0,0.0,0.0,0.0,0.0,0.0,0.0,0.0,0.0,0.0,0.0,0.0,0.0,0.0,0.0,0.0,0.0,0.0,0.0,0.0,0.0,0.0,0.0,0.0,0.0,-0.0414,-0.0942,-0.1421,-0.2374,0.0,0.0,0.0,0.0,0.0,0.0,-0.4852,-0.4474,-0.4926,-0.5419,-0.5764,-0.5986,-0.6256,-0.6624,-0.6681,-0.6887,-0.738,-0.7223,-0.7355,-0.7918,-0.8123,-0.8326,-0.8581,-0.8669,-0.8737,-0.8848,-0.8889,-0.8963,-0.9121,-0.9162,-0.924,-0.9352,-0.9479,-0.9568,-0.9615,-0.969,-0.9754,-0.9792,-0.9792,-0.9542,-0.8927,-0.6935,-0.4731,-0.2493,-0.0678,0.0,0.0,0.0,0.0,0.0,0.0,0.0,0.0,0.0,0.0,0.0,0.0,0.0,0.0,0.0,0.0,0.0,0.0,0.0,0.0,0.0,0.0,0.0,0.0,0.0,0.0,0.0,0.0,0.0,0.0,0.0,0.0,0.0,0.0,0.0,0.0,0.0,0.0,0.0,0.0,0.0,0.0,0.0,0.0,0.0,0.0,0.0,0.0,0.0,0.0,0.0,0.0,0.0,0.0,0.0,0.0,0.0,0.0,0.0,0.0,0.0,0.0,0.0,-0.0015,-0.0271,-0.113,-0.2069,-0.2974,-0.3839,0.0,0.0,0.0,0.0,0.0,0.0,-0.4395,-0.4546,-0.4559,-0.5181,-0.5728,-0.6012,-0.5803,-0.6003,-0.6864,-0.6563,-0.6763,-0.7763,-0.7939,-0.8094,-0.8304,-0.856,-0.8713,-0.8716,-0.8838,-0.8912,-0.8919,-0.9114,-0.921,-0.9221,-0.9345,-0.9469,-0.9608,-0.9615,-0.9693,-0.9792,-0.9792,-0.8897,-0.7299,-0.5621,-0.4272,-0.3014,-0.0802,0.0,0.0,0.0,0.0,0.0,0.0,0.0,0.0,0.0,0.0,0.0,0.0,0.0,0.0,0.0,0.0,0.0,0.0,0.0,0.0,0.0,0.0,0.0,0.0,0.0,0.0,0.0,0.0,0.0,0.0,0.0,0.0,0.0,0.0,0.0,0.0,0.0,0.0,0.0,0.0,0.0,0.0,0.0,0.0,0.0,0.0,0.0,0.0,0.0,0.0,0.0,0.0,0.0,0.0,0.0,0.0,0.0,0.0,-0.112,-0.0214,-0.0676,-0.1091,-0.0202,0.0,-0.008,-0.0378,-0.1156,-0.2047,-0.297,0.0,0.0,0.0,0.0,0.0,0.0,-0.4053,-0.4069,-0.4158,-0.4748,-0.5145,-0.5145,-0.5413,-0.5855,-0.646,-0.6454,-0.6794,-0.7628,-0.7787,-0.8004,-0.8287,-0.8485,-0.8608,-0.871,-0.8835,-0.8912,-0.8912,-0.896,-0.9011,-0.9015,-0.9192,-0.9288,-0.9345,-0.952,-0.9635,-0.969,-0.9751,-0.8867,-0.7299,-0.6383,-0.4913,-0.3044,-0.0802,0.0,0.0,0.0,0.0,0.0,0.0,0.0,0.0,0.0,0.0,0.0,0.0,0.0,0.0,0.0,0.0,0.0,0.0,0.0,0.0,0.0,0.0,0.0,0.0,0.0,0.0,0.0,0.0,0.0,0.0,0.0,0.0,0.0,0.0,0.0,0.0,0.0,0.0,0.0,0.0,0.0,0.0,0.0,0.0,0.0,0.0,0.0,0.0,0.0,0.0,0.0,0.0,0.0,0.0,0.0,0.0,-0.0965,-0.1816,0.0,-0.1635,-0.2065,0.0,-0.1405,-0.1173,-0.1177,-0.1208,-0.1771,-0.255,-0.3478,0.0,0.0,0.0,0.0,0.0,0.0,-0.39,-0.387,-0.3866,-0.4321,-0.4669,-0.4691,-0.5008,-0.546,-0.6073,-0.6202,-0.6586,-0.7371,-0.7624,-0.7851,-0.8124,-0.8328,-0.8505,-0.8628,-0.8754,-0.8855,-0.8912,-0.8912,-0.8912,-0.8916,-0.9035,-0.9131,-0.9221,-0.939,-0.951,-0.9615,-0.9677,-0.8793,-0.7299,-0.6353,-0.4882,-0.3044,-0.0802,0.0,0.0,0.0,0.0,0.0,0.0,0.0,0.0,0.0,0.0,0.0,0.0,0.0,0.0,0.0,0.0,0.0,0.0,0.0,0.0,0.0,0.0,0.0,0.0,0.0,0.0,0.0,0.0,0.0,0.0,0.0,0.0,0.0,0.0,0.0,0.0,0.0,0.0,0.0,0.0,0.0,0.0,0.0,0.0,0.0,0.0,0.0,0.0,0.0,0.0,0.0,0.0,0.0,0.0,0.0,0.0]},{"header":{"parameterUnit":"m.s-1","parameterCategory":1,"la1":30.6,"la2":29.2853,"lo1":-89.7004,"lo2":-87.6739,"dy":0.0162,"dx":0.0183,"nx":112,"ny":82,"refTime":"2024-08-23T18:00:00:Z","depth":0,"parameterNumber":3,"parameterNumberName":"V-component_of_WINDS"},"data":[0.0,0.0,0.0,0.0,0.0,0.0,0.0,0.0,0.0,0.0,0.0,0.0,0.0,0.0,0.0,0.0,0.0,0.0,0.0,0.0,0.0,0.0,0.0,0.0,0.0,0.0,0.0,0.0,0.0,0.0,0.0,0.0,0.0,0.0,0.0,0.0,0.0,0.0,0.0,0.0,0.0,0.0,0.0,0.0,0.0,0.0,0.0,0.0,0.0,0.0,0.0,0.0,0.0,0.0,0.0,0.0,0.0,0.0,0.0,0.0,0.0,0.0,0.0,0.0,0.0,0.0,0.0,0.0,0.0,0.0,0.0,0.0,0.0,0.0,0.0,0.0,0.0,0.0,0.0,0.0,0.0,0.0,0.0,0.0,0.0,0.0,0.0,0.0,0.0,0.0,3.2394,3.4129,3.9418,4.3004,4.3453,4.2177,3.88,3.2759,0.0,0.0,0.0,0.0,0.0,0.0,0.0,0.0,0.0,0.0,0.0,0.0,0.0,0.0,0.0,0.0,0.0,0.0,0.0,0.0,0.0,0.0,0.0,0.0,0.0,0.0,0.0,0.0,0.0,0.0,0.0,0.0,0.0,0.0,0.0,0.0,0.0,0.0,0.0,0.0,0.0,0.0,0.0,0.0,0.0,0.0,0.0,0.0,0.0,0.0,0.0,0.0,0.0,0.0,0.0,0.0,0.0,0.0,0.0,0.0,0.0,0.0,0.0,0.0,0.0,0.0,0.0,0.0,0.0,0.0,0.0,0.0,0.0,0.0,0.0,0.0,0.0,0.0,0.0,0.0,0.0,0.0,0.0,0.0,0.0,0.0,0.0,0.0,0.0,0.0,0.0,0.0,0.0,0.0,0.0,0.0,0.0,0.0,0.0,0.0,0.0,0.0,0.0,0.0,3.2072,3.9409,4.2121,4.341,4.3479,4.2054,3.8885,3.3546,0.0,0.0,0.0,0.0,0.0,0.0,0.0,0.0,0.0,0.0,0.0,0.0,0.0,0.0,0.0,0.0,0.0,0.0,0.0,0.0,0.0,0.0,0.0,0.0,0.0,0.0,0.0,0.0,0.0,0.0,0.0,0.0,0.0,0.0,0.0,0.0,0.0,0.0,0.0,0.0,0.0,0.0,0.0,0.0,0.0,0.0,0.0,0.0,0.0,0.0,0.0,0.0,0.0,0.0,0.0,0.0,0.0,0.0,0.0,0.0,0.0,0.0,0.0,0.0,0.0,0.0,0.0,0.0,0.0,0.0,0.0,0.0,0.0,0.0,0.0,0.0,0.0,0.0,0.0,0.0,0.0,0.0,0.0,0.0,0.0,0.0,0.0,0.0,0.0,0.0,0.0,0.0,0.0,0.0,0.0,0.0,0.0,0.0,0.0,0.0,0.0,0.0,0.0,3.1313,3.4795,4.1839,4.3137,4.3506,4.3506,4.2029,3.8828,3.3465,3.0388,0.0,0.0,0.0,0.0,0.0,0.0,0.0,0.0,0.0,0.0,0.0,0.0,0.0,0.0,0.0,0.0,0.0,0.0,0.0,0.0,0.0,0.0,0.0,0.0,0.0,0.0,0.0,0.0,0.0,0.0,0.0,0.0,0.0,0.0,0.0,0.0,0.0,0.0,0.0,0.0,0.0,0.0,0.0,0.0,0.0,0.0,0.0,0.0,0.0,0.0,0.0,0.0,0.0,0.0,0.0,0.0,0.0,0.0,0.0,0.0,0.0,0.0,0.0,0.0,0.0,0.0,0.0,0.0,0.0,0.0,0.0,0.0,0.0,0.0,0.0,0.0,0.0,0.0,0.0,0.0,0.0,0.0,0.0,0.0,0.0,0.0,0.0,0.0,0.0,0.0,0.0,0.0,0.0,0.0,0.0,0.0,0.0,0.0,0.0,0.0,0.0,0.0,3.5618,3.8461,4.301,4.3506,4.3506,4.3506,4.1497,3.8133,3.3133,2.9577,0.0,0.0,0.0,0.0,0.0,0.0,0.0,0.0,0.0,0.0,0.0,0.0,0.0,0.0,0.0,0.0,0.0,0.0,0.0,0.0,0.0,0.0,0.0,0.0,0.0,0.0,0.0,0.0,0.0,0.0,0.0,0.0,0.0,0.0,0.0,0.0,0.0,0.0,0.0,0.0,0.0,0.0,0.0,0.0,0.0,0.0,0.0,0.0,0.0,0.0,0.0,0.0,0.0,0.0,0.0,0.0,0.0,0.0,0.0,0.0,0.0,0.0,0.0,0.0,0.0,0.0,0.0,0.0,0.0,0.0,0.0,0.0,0.0,0.0,0.0,0.0,0.0,0.0,0.0,0.0,0.0,0.0,0.0,0.0,0.0,0.0,0.0,0.0,0.0,0.0,0.0,0.0,0.0,0.0,0.0,0.0,0.0,0.0,0.0,0.0,0.0,0.0,3.7438,4.2231,4.3378,4.3506,4.3506,4.3506,3.9971,3.6277,3.2848,2.7748,0.0,0.0,0.0,0.0,0.0,0.0,0.0,0.0,0.0,0.0,0.0,0.0,0.0,0.0,0.0,0.0,0.0,0.0,0.0,0.0,0.0,0.0,0.0,0.0,0.0,0.0,0.0,0.0,0.0,0.0,0.0,0.0,0.0,0.0,0.0,0.0,0.0,0.0,0.0,0.0,0.0,0.0,0.0,0.0,0.0,0.0,0.0,0.0,0.0,0.0,0.0,0.0,0.0,0.0,0.0,0.0,0.0,0.0,0.0,0.0,0.0,0.0,0.0,0.0,0.0,0.0,0.0,0.0,0.0,0.0,0.0,0.0,0.0,0.0,0.0,0.0,0.0,0.0,0.0,0.0,0.0,0.0,0.0,0.0,0.0,0.0,0.0,0.0,0.0,0.0,0.0,0.0,0.0,0.0,0.0,0.0,0.0,0.0,0.0,0.0,0.0,0.0,3.671,4.0946,4.3249,4.3506,4.3506,4.3506,4.1185,3.7622,3.2666,0.0,0.0,0.0,0.0,0.0,0.0,0.0,0.0,0.0,0.0,0.0,0.0,0.0,0.0,0.0,0.0,0.0,0.0,0.0,0.0,0.0,0.0,0.0,0.0,0.0,0.0,0.0,0.0,0.0,0.0,0.0,0.0,0.0,0.0,0.0,0.0,0.0,0.0,0.0,0.0,0.0,0.0,0.0,0.0,0.0,0.0,0.0,0.0,0.0,0.0,0.0,0.0,0.0,0.0,0.0,0.0,0.0,0.0,0.0,0.0,0.0,0.0,0.0,0.0,0.0,0.0,0.0,0.0,0.0,0.0,0.0,0.0,0.0,0.0,0.0,0.0,0.0,0.0,0.0,0.0,0.0,0.0,0.0,0.0,0.0,0.0,0.0,0.0,0.0,0.0,0.0,0.0,0.0,0.0,0.0,0.0,0.0,0.0,0.0,0.0,0.0,0.0,3.2216,3.7055,4.1075,4.3267,4.3506,4.3506,4.3506,4.1313,3.7677,3.2288,0.0,0.0,0.0,0.0,0.0,0.0,0.0,0.0,0.0,0.0,0.0,0.0,0.0,0.0,0.0,0.0,0.0,0.0,0.0,0.0,0.0,0.0,0.0,0.0,0.0,0.0,0.0,0.0,0.0,0.0,0.0,0.0,0.0,0.0,0.0,0.0,0.0,0.0,0.0,0.0,0.0,0.0,0.0,0.0,0.0,0.0,0.0,0.0,0.0,0.0,0.0,0.0,0.0,0.0,0.0,0.0,0.0,0.0,0.0,0.0,0.0,0.0,0.0,0.0,0.0,0.0,0.0,0.0,0.0,0.0,0.0,0.0,0.0,0.0,0.0,0.0,0.0,0.0,0.0,0.0,0.0,0.0,0.0,0.0,0.0,0.0,0.0,0.0,0.0,0.0,0.0,0.0,0.0,0.0,0.0,0.0,0.0,0.0,0.0,0.0,0.0,0.0,3.2516,3.8982,4.3506,4.3506,4.3506,4.3506,4.3506,3.9843,3.5785,0.0,0.0,0.0,0.0,0.0,0.0,0.0,0.0,0.0,0.0,0.0,0.0,0.0,0.0,0.0,0.0,0.0,0.0,0.0,0.0,0.0,0.0,0.0,0.0,0.0,0.0,0.0,0.0,0.0,0.0,0.0,0.0,0.0,0.0,0.0,0.0,0.0,0.0,0.0,0.0,0.0,0.0,0.0,0.0,0.0,0.0,0.0,0.0,0.0,0.0,0.0,0.0,0.0,0.0,0.0,0.0,0.0,0.0,0.0,0.0,0.0,0.0,0.0,0.0,0.0,0.0,0.0,0.0,0.0,0.0,0.0,0.0,0.0,0.0,0.0,0.0,0.0,0.0,0.0,0.0,0.0,0.0,0.0,0.0,0.0,0.0,0.0,0.0,0.0,0.0,0.0,0.0,0.0,0.0,0.0,0.0,0.0,0.0,0.0,0.0,0.0,0.0,0.0,3.3275,3.9339,4.3506,4.3506,4.3506,4.3506,4.3506,4.1368,3.7569,3.1776,0.0,0.0,0.0,0.0,0.0,0.0,0.0,0.0,0.0,0.0,0.0,0.0,0.0,0.0,0.0,0.0,0.0,0.0,0.0,0.0,0.0,0.0,0.0,0.0,0.0,0.0,0.0,0.0,0.0,0.0,0.0,0.0,0.0,0.0,0.0,0.0,0.0,0.0,0.0,0.0,0.0,0.0,0.0,0.0,0.0,0.0,0.0,0.0,0.0,0.0,0.0,0.0,0.0,0.0,0.0,0.0,0.0,0.0,0.0,0.0,0.0,0.0,0.0,0.0,0.0,0.0,0.0,0.0,0.0,0.0,0.0,0.0,0.0,0.0,0.0,0.0,0.0,0.0,0.0,0.0,0.0,0.0,0.0,0.0,0.0,0.0,0.0,0.0,0.0,0.0,0.0,0.0,0.0,0.0,0.0,0.0,0.0,0.0,0.0,0.0,0.0,0.0,3.3587,3.9486,4.3506,4.3506,4.3506,4.3506,4.3506,4.2323,3.9085,3.322,0.0,0.0,0.0,0.0,0.0,0.0,0.0,0.0,0.0,0.0,0.0,0.0,0.0,0.0,0.0,0.0,0.0,0.0,0.0,0.0,0.0,0.0,0.0,0.0,0.0,0.0,0.0,0.0,0.0,0.0,0.0,0.0,0.0,0.0,0.0,0.0,0.0,0.0,0.0,0.0,0.0,0.0,0.0,0.0,0.0,0.0,0.0,0.0,0.0,0.0,0.0,0.0,0.0,0.0,0.0,0.0,0.0,0.0,0.0,0.0,0.0,0.0,0.0,0.0,0.0,0.0,0.0,0.0,0.0,0.0,0.0,0.0,0.0,0.0,0.0,0.0,0.0,0.0,0.0,0.0,0.0,0.0,0.0,0.0,0.0,0.0,0.0,0.0,0.0,0.0,0.0,0.0,0.0,0.0,0.0,0.0,0.0,0.0,0.0,0.0,0.0,0.0,3.3587,3.9486,4.3506,4.3506,4.3506,4.3506,4.3506,4.2772,4.0241,3.5419,0.0,0.0,0.0,0.0,0.0,0.0,0.0,0.0,0.0,0.0,0.0,0.0,0.0,0.0,0.0,0.0,0.0,0.0,0.0,0.0,0.0,0.0,0.0,0.0,0.0,0.0,0.0,0.0,0.0,0.0,0.0,0.0,0.0,0.0,0.0,0.0,0.0,0.0,0.0,0.0,0.0,0.0,0.0,0.0,0.0,0.0,0.0,0.0,0.0,0.0,0.0,0.0,0.0,0.0,0.0,0.0,0.0,0.0,0.0,0.0,1.8624,1.8467,0.0,0.0,0.0,0.0,0.0,0.0,0.0,0.0,0.0,0.0,0.0,0.0,0.0,0.0,0.0,0.0,0.0,0.0,0.0,0.0,0.0,0.0,0.0,0.0,0.0,0.0,0.0,0.0,0.0,0.0,0.0,0.0,0.0,0.0,0.0,0.0,0.0,0.0,0.0,0.0,3.3587,3.9486,4.3506,4.3506,4.3506,4.3506,4.3506,4.2772,4.0506,3.6285,3.3485,0.0,0.0,0.0,0.0,0.0,0.0,0.0,0.0,0.0,0.0,0.0,0.0,0.0,0.0,0.0,0.0,0.0,0.0,0.0,0.0,0.0,0.0,0.0,0.0,0.0,0.0,0.0,0.0,0.0,0.0,0.0,0.0,0.0,0.0,0.0,0.0,0.0,0.0,0.0,0.0,0.0,0.0,0.0,0.0,0.0,0.0,0.0,0.0,0.0,0.0,0.0,0.0,0.0,0.0,0.0,0.0,0.0,0.0,0.0,2.0958,2.0297,0.0,0.0,0.0,0.0,0.0,0.0,0.0,0.0,0.0,0.0,0.0,0.0,0.0,0.0,0.0,0.0,0.0,0.0,0.0,0.0,0.0,0.0,0.0,0.0,0.0,0.0,0.0,0.0,0.0,0.0,0.0,0.0,0.0,0.0,0.0,0.0,0.0,0.0,0.0,0.0,3.4112,3.9717,4.3506,4.3506,4.3506,4.3506,4.3506,4.3121,4.1644,3.8799,3.5817,0.0,0.0,0.0,0.0,0.0,0.0,0.0,0.0,0.0,0.0,0.0,0.0,0.0,0.0,0.0,0.0,0.0,0.0,0.0,0.0,0.0,0.0,0.0,0.0,0.0,0.0,0.0,0.0,0.0,0.0,0.0,0.0,0.0,0.0,0.0,0.0,0.0,0.0,0.0,0.0,0.0,0.0,0.0,0.0,0.0,0.0,0.0,0.0,0.0,0.0,0.0,0.0,0.0,4.0096,4.0383,4.0874,4.035,4.04,4.0134,2.6662,2.4765,3.0997,2.8316,0.0,0.0,0.0,0.0,0.0,0.0,0.0,0.0,0.0,0.0,0.0,0.0,0.0,0.0,0.0,0.0,0.0,0.0,0.0,0.0,0.0,0.0,3.3954,3.4595,3.6372,3.6832,3.297,0.0,0.0,0.0,0.0,0.0,0.0,0.0,0.0,0.0,0.0,0.0,3.5316,4.0249,4.3506,4.3506,4.3506,4.3506,4.3506,4.3506,4.2882,4.1397,3.8342,3.5888,0.0,0.0,0.0,0.0,0.0,0.0,0.0,0.0,0.0,0.0,0.0,0.0,0.0,0.0,0.0,0.0,0.0,0.0,0.0,0.0,0.0,0.0,0.0,0.0,0.0,0.0,0.0,0.0,0.0,0.0,0.0,0.0,2.1864,2.3424,0.0,0.0,0.0,0.0,0.0,0.0,0.0,0.0,0.0,0.0,0.0,0.0,0.0,3.7086,3.6898,3.7474,3.8526,4.0096,4.0096,4.1467,4.3907,4.1297,4.1534,4.389,4.1735,0.0,3.1556,3.6152,0.0,0.0,0.0,0.0,0.0,0.0,0.0,0.0,0.0,0.0,0.0,0.0,0.0,0.0,0.0,0.0,0.0,0.0,0.0,0.0,0.0,0.0,4.2826,4.2248,4.3384,4.4272,4.298,3.6878,3.1322,3.0161,2.9538,2.8597,0.0,0.0,0.0,0.0,0.0,0.0,3.78,4.1322,4.3506,4.3506,4.3506,4.3506,4.3506,4.3506,4.3121,4.2194,4.039,3.8658,3.7052,3.3546,0.0,0.0,0.0,0.0,0.0,0.0,0.0,0.0,0.0,0.0,0.0,0.0,0.0,0.0,0.0,0.0,0.0,0.0,0.0,0.0,0.0,0.0,0.0,0.0,0.0,0.0,0.0,0.0,0.0,2.0754,2.3772,2.4423,2.3881,2.3187,0.0,0.0,0.0,0.0,0.0,0.0,0.0,0.0,0.0,2.9271,3.7934,4.2634,4.2634,4.2634,4.2634,4.2634,4.2634,4.3328,4.4564,4.3244,4.4108,4.6682,4.6682,4.446,4.0774,4.0306,3.7777,3.3698,0.0,0.0,0.0,0.0,2.5374,3.2623,3.5234,3.9365,4.3506,4.3506,0.0,0.0,0.0,0.0,0.0,0.0,0.0,4.1699,0.0,0.0,4.3608,4.4607,4.5388,4.5792,4.5461,4.2399,3.8826,3.5795,3.4247,3.2348,2.8894,2.8843,0.0,0.0,0.0,3.7239,3.9129,4.2176,4.3993,4.3543,4.3506,4.3506,4.3506,4.3506,4.3341,4.301,4.1882,4.0928,4.0238,3.6992,3.4098,0.0,0.0,0.0,0.0,0.0,0.0,0.0,0.0,0.0,0.0,0.0,0.0,0.0,0.0,0.0,0.0,0.0,0.0,0.0,0.0,0.0,0.0,0.0,0.0,0.0,0.0,0.0,0.0,2.3451,2.597,2.6049,2.7597,2.7733,0.0,0.0,0.0,0.0,0.0,0.0,3.3322,3.5397,3.576,3.4087,4.0523,4.455,4.5717,4.5734,4.5734,4.5734,4.5734,4.6105,4.6795,4.6795,4.7808,4.9544,4.9544,4.9544,4.916,4.4231,4.22,4.1644,3.6095,3.1899,2.8955,2.8955,3.5657,4.4736,4.4736,4.4736,4.4736,4.4736,4.4167,4.3506,4.3506,0.0,0.0,0.0,0.0,4.6507,4.6507,4.5039,4.3993,4.5773,4.6361,4.6507,4.6507,4.6195,4.4837,4.124,3.9405,3.7165,3.3096,3.3238,0.0,3.3366,3.6909,4.0065,4.1285,4.3534,4.4709,4.3892,4.3818,4.3726,4.3524,4.3506,4.3506,4.3506,4.2937,4.2598,4.2598,4.011,3.7845,3.5977,0.0,0.0,0.0,0.0,0.0,0.0,0.0,0.0,0.0,0.0,0.0,0.0,0.0,0.0,0.0,0.0,0.0,0.0,0.0,0.0,0.0,0.0,0.0,0.0,0.0,0.0,0.0,0.0,0.0,3.0265,3.2441,0.0,0.0,0.0,0.0,2.9276,3.2879,3.6414,3.9403,4.1587,4.2438,4.1764,4.2181,4.4451,4.8748,4.8781,4.8781,4.8781,4.8781,5.0184,5.2761,5.2761,5.2843,5.2957,5.2957,5.2957,5.269,4.928,4.7886,4.7849,4.7476,4.7202,4.6992,4.6992,4.7442,4.8058,4.8058,4.8058,4.8058,4.8058,4.5993,4.3506,4.3506,4.3157,0.0,0.0,4.5516,4.8177,4.8177,4.7526,4.6892,4.7003,4.7617,4.8177,4.8177,4.6985,4.5828,4.559,4.4856,4.3709,4.1937,0.0,4.0865,4.1589,4.1937,4.2965,4.5296,4.5736,4.5535,4.4718,4.4645,4.4333,4.3561,4.3506,4.3506,4.3506,4.3451,4.3433,4.3433,4.2543,4.0946,3.8553,3.5257,0.0,0.0,0.0,0.0,0.0,0.0,0.0,0.0,0.0,0.0,0.0,0.0,0.0,0.0,0.0,0.0,0.0,0.0,0.0,0.0,0.0,0.0,0.0,0.0,0.0,0.0,0.0,0.0,3.4253,3.6799,0.0,3.5204,3.6434,3.7454,3.7554,4.0276,4.2833,4.4908,4.497,4.5432,4.652,4.4757,4.6323,5.1643,5.1691,5.1691,5.1691,5.1691,5.2225,5.3196,5.3196,5.3196,5.3196,5.3196,5.3196,5.3104,5.1948,5.1453,5.1453,5.1453,5.1453,5.1453,5.1453,5.1453,5.1453,5.1453,5.1453,5.1104,4.8994,4.7517,4.6599,4.6599,4.6599,4.6599,4.6599,4.8196,4.9921,4.9921,4.9691,4.9489,4.9489,4.9691,4.9921,4.9921,4.9462,4.9058,4.9058,4.6709,4.4186,4.258,4.3351,4.3773,4.2488,4.4058,4.5507,4.5865,4.6351,4.6351,4.5571,4.548,4.5149,4.4342,4.4268,4.4048,4.3524,4.3506,4.3506,4.3506,4.3231,4.2415,4.1038,3.8854,3.5209,0.0,0.0,0.0,0.0,0.0,0.0,0.0,0.0,0.0,0.0,0.0,0.0,0.0,0.0,0.0,0.0,0.0,0.0,0.0,0.0,0.0,0.0,0.0,0.0,0.0,3.3751,3.7077,3.7264,4.0499,4.1884,3.9725,4.1748,4.3468,4.4139,4.5355,4.7109,4.9484,4.8309,4.8418,5.0287,4.8503,4.9345,5.3167,5.3196,5.3196,5.3214,5.4297,5.4811,5.4811,5.4811,5.4811,5.4811,5.4811,5.4205,5.3196,5.3196,5.3196,5.3196,5.3196,5.3196,5.3196,5.3196,5.3196,5.3196,5.3196,5.3196,5.2847,5.0663,4.9948,4.9948,4.9948,4.9948,4.9948,4.9948,5.0755,5.161,5.161,5.1353,5.1022,5.0829,5.0802,5.0802,5.0802,5.0802,5.0802,5.0802,4.8608,4.6333,4.4984,4.6094,4.6397,4.4241,4.5966,4.7214,4.6406,4.7012,4.7195,4.6388,4.6296,4.5874,4.4792,4.4443,4.4066,4.3524,4.3249,4.3231,4.3488,4.2992,4.2433,4.1911,3.9772,3.667,3.2596,0.0,0.0,0.0,0.0,0.0,0.0,0.0,0.0,0.0,0.0,0.0,0.0,0.0,0.0,0.0,0.0,0.0,0.0,0.0,0.0,0.0,0.0,0.0,3.4411,3.6899,3.9028,3.946,4.3623,4.5738,4.3937,4.6128,4.7868,4.8388,4.7783,4.9086,5.2999,5.1709,5.1581,5.3159,5.3306,5.3343,5.3343,5.3343,5.3343,5.3398,5.651,5.7997,5.7997,5.7997,5.7997,5.7997,5.7997,5.6235,5.3343,5.3343,5.3343,5.3343,5.3232,5.3196,5.3196,5.3196,5.3196,5.3196,5.3196,5.3196,5.3196,5.3196,5.3196,5.3196,5.3196,5.3196,5.3196,5.3196,5.3196,5.3196,5.3196,5.2425,5.1508,5.1004,5.0886,5.0896,5.0875,5.0896,5.0916,5.0875,5.0896,5.064,4.9794,4.9647,4.9087,4.7434,4.7838,0.0,4.7241,4.7819,4.7984,4.7186,4.7094,4.6452,4.4865,4.3993,4.3543,4.3543,4.2782,4.269,4.3469,4.2002,4.1177,4.1177,3.801,3.5965,3.5107,0.0,0.0,0.0,0.0,0.0,0.0,0.0,0.0,0.0,0.0,0.0,0.0,0.0,0.0,0.0,0.0,0.0,0.0,0.0,0.0,0.0,3.6397,3.91,3.8387,4.202,4.5141,4.6187,4.8491,4.9912,4.9679,5.0503,5.1109,5.1262,5.1439,5.2026,5.3148,5.2774,5.2737,5.3196,5.5464,5.6675,5.6675,5.6675,5.6675,5.6693,5.7574,5.7997,5.7997,5.7997,5.7997,5.7997,5.7997,5.7501,5.6675,5.6675,5.6675,5.6455,5.4113,5.3196,5.3196,5.3196,5.3196,5.3196,5.3196,5.3196,5.3196,5.3196,5.3196,5.3196,5.3196,5.3196,5.3196,5.3196,5.3196,5.3196,5.3196,5.2976,5.2719,5.2572,5.2768,5.2907,5.261,5.3041,5.3307,5.2653,5.3042,5.2832,5.0813,5.0472,5.0123,4.9068,4.9105,4.894,4.8076,4.815,4.7984,4.7186,4.7094,4.6682,4.5663,4.4837,4.4378,4.4378,4.3626,4.3267,4.3488,4.3084,4.2837,4.2837,3.968,3.791,0.0,0.0,0.0,0.0,0.0,0.0,0.0,0.0,0.0,0.0,0.0,0.0,0.0,0.0,0.0,0.0,0.0,0.0,0.0,0.0,0.0,0.0,4.104,4.3964,4.4397,4.6584,4.8669,5.0095,5.1388,5.2397,5.2987,5.3063,5.298,5.2745,5.3021,5.3783,5.5141,5.5207,5.5207,5.5207,5.7024,5.7997,5.7997,5.7997,5.7997,5.7997,5.7997,5.7997,5.7997,5.7997,5.7997,5.7997,5.7997,5.7997,5.7997,5.7997,5.7997,0.0,0.0,0.0,0.0,0.0,5.5207,5.5023,5.3673,5.3196,5.3196,5.3196,5.3196,5.3196,5.3196,5.3196,5.3196,5.3196,5.3196,5.3196,5.3196,5.3462,5.371,5.3574,5.3823,5.4032,5.3805,5.4137,5.4357,5.3833,5.4146,0.0,5.2603,5.1917,5.1087,4.9768,4.9876,4.9674,4.8471,4.8618,4.8526,4.7691,4.759,4.7287,4.6461,4.5672,0.0,0.0,0.0,4.3194,4.2525,4.2488,0.0,0.0,0.0,0.0,0.0,0.0,0.0,0.0,4.0283,4.0477,0.0,0.0,0.0,0.0,0.0,0.0,0.0,0.0,0.0,0.0,0.0,0.0,0.0,0.0,0.0,0.0,4.5906,4.9332,5.0988,5.0591,5.0664,5.2045,5.2999,5.3883,5.4701,5.4608,5.4302,5.3811,5.3937,5.5287,5.816,5.8326,0.0,0.0,0.0,5.8326,5.8326,5.8115,5.7997,5.7997,5.7997,5.7997,5.7997,5.7997,5.7997,5.7997,5.7997,5.7997,5.7997,5.7997,5.7997,5.7997,5.7997,5.7997,5.7997,5.7997,5.7997,5.7593,5.4719,0.0,0.0,5.3746,5.3489,5.3248,5.3422,5.3339,5.3196,5.3196,5.3196,5.3196,5.3196,5.4055,5.482,5.439,5.4589,5.4831,5.4783,5.4771,5.4753,5.4659,5.4639,5.4621,5.4519,5.3551,5.2158,5.0202,5.0537,5.0433,4.8851,4.9291,4.9399,4.8545,0.0,0.0,4.7296,4.6535,4.5799,4.5082,4.4334,4.3246,4.1773,4.1848,4.2257,4.2976,4.3076,4.4776,4.8138,4.884,4.9523,5.0019,4.415,4.3656,0.0,0.0,0.0,0.0,0.0,0.0,0.0,0.0,0.0,0.0,0.0,0.0,0.0,0.0,0.0,4.5135,4.8524,5.1501,5.3504,5.3653,5.3542,5.353,5.4862,5.5961,5.6463,5.7096,5.743,5.7327,5.8576,5.9609,6.0238,6.0257,6.0257,6.0257,6.0257,6.0257,6.0257,5.8765,5.7997,5.7997,5.7997,0.0,5.7997,5.7997,5.7997,5.7997,5.7997,5.7997,5.7997,5.7997,5.7997,5.7997,5.7997,5.7997,5.7997,5.7997,5.7997,5.7905,5.7281,5.706,5.706,5.706,5.5317,5.3452,5.4814,5.4278,0.0,5.3196,5.3196,5.3196,5.3196,5.5369,5.7315,5.6332,5.6567,5.692,5.6595,5.652,5.6308,5.5605,5.5466,5.525,5.4602,5.4307,5.3755,5.2647,5.2345,5.1908,5.0932,5.0654,5.0251,4.9435,4.9344,4.8995,4.8131,4.7624,4.7291,4.7124,4.6671,4.6124,4.5481,4.6443,4.7064,4.7226,4.7869,4.8858,5.0221,5.0372,5.1522,5.3508,5.1601,5.0854,0.0,0.0,0.0,0.0,0.0,0.0,0.0,0.0,0.0,0.0,0.0,3.7716,3.9529,0.0,4.6745,4.9209,5.1482,5.3448,5.4899,5.5112,5.5193,5.5421,5.6183,5.7106,5.8154,5.828,5.864,5.9492,6.0325,6.0806,6.0806,6.0806,6.0806,6.0806,6.0806,6.0806,6.0806,5.987,5.9389,5.9389,5.9389,5.9389,5.9389,5.9389,5.9389,5.9389,5.9389,5.8864,5.7997,5.7997,5.7997,5.7997,5.7997,5.7997,5.7997,5.7997,5.7997,5.7997,5.7997,5.7997,5.8146,5.9103,5.8302,5.7166,5.8003,5.7667,5.6994,5.6994,5.6994,5.6994,5.6994,5.8262,5.9254,5.8126,5.7896,5.7909,5.7686,5.7646,5.7388,5.6529,5.6349,5.6076,5.523,5.5088,5.482,5.3988,5.3693,5.3251,5.2415,5.2127,5.1689,5.0877,5.0803,5.0625,5.0187,4.96,4.9257,4.9257,4.8683,4.8258,4.807,4.8655,4.9188,4.9589,4.9993,5.0918,5.2348,5.2772,5.3926,5.5751,5.6191,5.5941,0.0,0.0,0.0,0.0,0.0,0.0,0.0,3.2251,3.4377,3.6949,4.0158,4.311,4.5153,4.7884,5.0518,5.261,5.3944,5.4953,5.5612,5.5708,5.5958,5.6651,5.7055,5.7844,5.9358,5.9069,5.9358,6.071,6.0806,6.0806,6.0806,6.0806,6.0806,6.0806,6.0806,6.0806,6.0806,6.0806,6.0806,6.0806,6.0806,6.0806,6.0806,6.0806,6.0806,6.0806,6.0806,5.9931,5.8528,5.8528,5.8528,5.8528,5.8528,5.8528,5.8495,5.8142,5.8227,5.8528,5.8528,5.8528,5.8786,6.0311,6.0806,6.0806,6.0806,6.0806,6.0806,6.0806,6.0806,6.0806,6.0806,6.0806,6.0575,5.9652,5.9108,5.88,5.88,5.864,5.8338,5.7613,5.7363,5.7036,5.6324,5.6055,5.5681,5.4864,5.4682,5.4364,5.3653,5.3497,5.3202,5.2549,5.2492,5.2447,5.2358,5.1604,5.1157,5.1157,5.0602,5.0262,5.0194,5.0414,5.0858,5.1514,5.1844,5.2835,5.4492,5.532,5.6331,5.7517,5.8877,5.9115,2.5798,2.7753,3.0467,3.253,3.313,3.4892,0.0,4.2162,4.2524,4.5716,4.8112,4.9846,5.0463,5.1815,5.3061,5.3733,5.4822,5.5593,5.5689,5.5708,5.5747,5.5824,5.7203,5.8511,5.9415,6.0127,6.0589,6.0787,6.0806,6.0806,6.0806,6.0806,6.0806,6.0806,6.0806,6.0806,6.0806,6.0806,6.0806,6.0806,6.0806,6.0806,6.0806,6.0806,6.0806,6.0806,6.0806,6.0684,6.0489,6.0489,6.0489,6.0489,6.0489,6.0489,6.0278,5.8611,5.9056,6.0489,6.0489,6.0489,6.0514,6.074,6.0806,6.0806,6.0806,6.0806,6.0806,6.0806,6.0806,6.0806,6.0806,6.0806,6.0768,6.0633,6.0556,6.0512,6.0512,5.9915,5.9338,5.9242,5.8646,5.8127,5.8025,5.7376,5.6552,5.5698,5.525,5.4996,5.4901,5.4583,5.4322,5.4228,5.4228,5.4046,5.3623,5.2857,5.2399,5.2399,5.2654,5.2644,5.2285,5.3361,5.3988,5.4079,5.5544,5.6431,5.6665,5.7524,5.8387,5.9223,5.9415,5.9458,3.3386,3.3966,3.4449,3.7323,3.9103,4.0872,4.3704,4.5076,4.6468,4.9013,5.1178,5.2657,5.2819,5.3853,5.4762,5.4951,5.5401,5.5708,5.5708,5.5708,5.5458,5.4785,5.6395,5.8063,5.9377,6.0281,6.0806,6.0806,6.0806,6.0806,6.0806,6.0806,6.0806,6.0806,6.0806,6.0806,6.0806,6.0806,6.0806,6.0806,6.0806,6.0806,6.0806,6.0806,6.0806,6.0806,6.0806,6.0806,6.0806,6.0806,6.0806,6.0806,6.0806,6.0806,6.0702,5.9916,6.0132,6.0806,6.0806,6.0806,6.0806,6.0806,6.0806,6.0806,6.0806,6.0806,6.0806,6.0806,6.0806,6.0806,6.0806,6.0806,6.0806,6.0806,6.0806,6.0806,6.0806,6.0512,6.0108,5.9608,5.9223,5.8858,5.8377,5.7992,5.7453,5.6593,5.5873,5.5441,5.5441,5.5306,5.5199,5.5199,5.5199,5.5122,5.493,5.4609,5.4403,5.4403,5.4567,5.4578,5.4409,5.5399,5.5958,5.5958,5.7146,5.7761,5.7761,5.8588,5.916,5.9511,6.0012,6.0262,3.752,3.8102,3.8323,4.1214,4.3912,4.5894,4.5933,4.7774,4.989,5.1358,5.311,5.4395,5.4395,5.5109,5.5708,5.5708,5.6497,5.7113,5.7113,5.5895,5.4876,5.4516,5.5568,5.6967,5.8646,5.98,6.0531,6.0787,6.0806,6.0806,6.0806,6.0806,6.0806,6.0806,6.0806,6.0806,6.0806,6.0806,6.0806,6.0806,6.0806,6.0806,6.0806,6.0806,6.0806,6.0806,6.0806,6.0806,6.0806,6.0806,6.0806,6.0806,6.0806,6.0806,6.0806,6.0806,6.0806,6.0806,6.0806,6.0806,6.0806,6.0806,6.0806,6.0806,6.0806,6.0806,6.0806,6.0806,6.0806,6.0806,6.0806,6.0806,6.0806,6.0806,6.0806,6.0806,6.0806,6.0806,6.0614,5.9973,5.9858,5.9665,5.9088,5.88,5.8415,5.7786,5.6959,5.6242,5.5766,5.5708,5.5708,5.5708,5.5708,5.5708,5.5708,5.5708,5.5708,5.5708,5.5939,5.6055,5.6055,5.6901,5.7363,5.7363,5.8204,5.8621,5.8621,5.9454,5.9858,5.9877,6.0517,6.0806,3.5107,3.7995,4.1445,4.3498,4.6453,4.9163,5.0323,5.222,5.3722,5.3785,5.4785,5.5654,5.5654,5.5684,5.5708,5.5708,5.8478,6.0652,6.0652,5.6395,5.3876,5.5458,5.5011,5.5228,5.6901,5.8575,5.9896,6.0748,6.0806,6.0806,6.0806,6.0806,6.0806,6.0806,6.0806,6.0806,6.0806,6.0806,6.0806,6.0806,6.0806,6.0806,6.0806,6.0806,6.0806,6.0806,6.0806,6.0806,6.0806,6.0806,6.0806,6.0806,6.0806,6.0806,6.0806,6.0806,6.0806,6.0806,6.0806,6.0806,6.0806,6.0806,6.0806,6.0806,6.0806,6.0806,6.0806,6.0806,6.0806,6.0806,6.0806,6.0806,6.0806,6.0806,6.0806,6.0806,6.0806,6.0806,6.0787,6.0768,6.0768,6.0748,6.0729,6.0012,5.9454,5.9435,5.8742,5.7607,5.592,5.5708,5.5708,5.5708,5.5708,5.5708,5.5708,5.5708,5.5708,5.5708,5.6497,5.6964,5.6964,5.78,5.8256,5.8256,5.905,5.9454,5.9473,6.0339,6.0768,6.0768,6.0787,6.0806,3.8493,4.1653,4.456,4.7112,4.9785,5.1978,5.2683,5.3815,5.4613,5.4348,5.3697,5.3029,5.2477,5.3573,5.4824,5.5574,5.7646,5.9146,5.9146,5.7973,5.6472,5.4766,5.5516,5.6151,5.6132,5.717,5.8421,5.9838,5.9935,6.0185,6.0762,6.0806,6.0806,6.0806,6.0806,6.0806,6.0806,6.0806,6.0806,6.0806,6.0806,6.0806,6.0806,6.0806,6.0806,6.0806,6.0806,6.0806,6.0806,6.0806,6.0806,6.0806,6.0806,6.0806,6.0806,6.0806,6.0806,6.0806,6.0806,6.0806,6.0806,6.0806,6.0806,6.0806,6.0806,6.0806,6.0806,6.0806,6.0806,6.0806,6.0806,6.0806,6.0806,6.0806,6.0806,6.0806,6.0806,6.0806,6.0806,6.0806,6.0806,6.0806,6.0806,6.0556,6.0165,5.9588,5.8813,5.8083,5.7511,5.7434,5.7434,5.7434,5.7434,5.7434,5.7434,5.7434,5.7434,5.7434,5.7703,5.7857,5.7857,5.8665,5.9108,5.9108,5.9935,6.0358,6.0358,6.0666,6.0806,6.0806,6.0806,6.0806,4.1923,4.4562,4.6833,5.0281,5.2307,5.358,5.4014,5.4515,5.464,5.3757,5.2452,5.1221,5.0399,5.1399,5.2708,5.3746,5.5857,5.7676,5.8567,5.8298,5.7487,5.6087,5.6618,5.6961,5.6729,5.7211,5.8118,5.9496,5.9863,6.0287,6.0846,6.0825,6.0814,6.0866,6.0825,6.0819,6.0866,6.0819,6.0806,6.0806,6.0806,6.0806,6.0806,6.0806,6.0806,6.0806,6.0806,6.0806,6.0806,6.0806,6.0806,6.0806,6.0806,6.0806,6.0806,6.0806,6.0806,6.0806,6.0806,6.0806,6.0806,6.0806,6.0806,6.0806,6.0806,6.0806,6.0806,6.0806,6.0806,6.0806,6.0806,6.0806,6.0806,6.0806,6.0806,6.0806,6.0806,6.0806,6.0806,6.0806,6.0806,6.0806,6.0806,6.0806,6.0614,6.005,5.9511,5.8973,5.8377,5.8294,5.8294,5.8294,5.8294,5.8294,5.8294,5.8294,5.8294,5.8294,5.8569,5.8723,5.8723,5.9511,5.9954,5.9954,6.0512,6.0806,6.0806,6.0806,6.0806,6.0806,6.0806,6.0806,4.5034,4.6706,4.8496,5.2844,5.3926,5.402,5.4413,5.4434,5.3857,5.2063,5.0996,5.0086,4.9062,4.9033,4.9432,5.0317,5.3421,5.6551,5.8963,5.7552,5.7047,5.9117,5.8168,5.7641,5.8431,5.8559,5.8932,5.9765,6.0523,6.0961,6.1019,6.0883,6.0882,6.101,6.0897,6.0887,6.1014,6.0892,6.0833,6.0833,6.0821,6.0804,6.0806,6.0806,6.0821,6.0858,6.0858,6.0825,6.0806,6.0806,6.0806,6.0806,6.0806,6.0806,6.0806,6.0806,6.0806,6.0806,6.0806,6.0806,6.0806,6.0806,6.0806,6.0806,6.0806,6.0806,6.0806,6.0806,6.0806,6.0806,6.0806,6.0806,6.0806,6.0806,6.0806,6.0806,6.0806,6.0806,6.0806,6.0806,6.0806,6.0806,6.0806,6.0806,6.0806,6.0806,6.0806,6.0223,5.8627,5.8429,5.8429,5.8429,5.8429,5.8429,5.8429,5.8429,5.8429,5.8429,5.9146,5.9569,5.9569,6.0358,6.0806,6.0806,6.0806,6.0806,6.0806,6.0806,6.0806,6.0806,6.0806,6.0806,4.658,4.9656,5.252,5.3976,5.435,5.4372,5.4475,5.351,5.1909,4.9543,4.7476,4.5229,4.246,4.4102,4.6169,4.6998,5.2156,5.6502,5.773,5.9097,5.9681,5.8951,5.9114,5.9124,5.8699,5.9321,5.9858,6.0073,6.0194,6.0534,6.1185,6.1199,6.1195,6.1224,6.1199,6.1195,6.1224,6.1195,6.117,6.117,6.1072,6.0945,6.0806,6.0806,6.1047,6.1463,6.1463,6.1214,6.0806,6.0806,6.0806,6.0806,6.0806,6.0806,6.0806,6.0806,6.0806,6.0806,6.0806,6.0806,6.0806,6.0806,6.0806,6.0806,6.0806,6.0806,6.0806,6.0806,6.0806,6.0806,6.0806,6.0806,6.0806,6.0806,6.0806,6.0806,6.0806,6.0806,6.0806,6.0806,6.0806,6.0806,6.0806,6.0806,6.0806,6.0806,6.0806,6.0646,6.0223,6.0165,6.0165,6.0165,6.0165,6.0165,6.0165,6.0165,6.0165,6.0165,6.0358,6.0473,6.0473,6.0691,6.0806,6.0806,6.0806,6.0806,6.0806,6.0806,6.0806,6.0806,6.0806,6.0806,4.9453,5.2102,5.4221,5.4435,5.4203,5.3433,5.1587,5.0106,4.81,4.4464,4.263,4.0777,3.7763,4.0376,4.3257,4.4106,4.9703,5.466,5.6688,5.8852,6.0174,5.9947,6.0356,6.0471,5.9988,6.0446,6.0798,6.0842,6.0724,6.0878,6.1359,6.1323,6.1337,6.1398,6.132,6.1306,6.1306,6.1306,6.1306,6.1306,6.1224,6.1136,6.1019,6.1135,6.1385,6.1699,6.1699,6.1501,6.1191,6.1191,6.1191,6.1191,6.1191,6.1029,6.0806,6.0806,6.0806,6.0806,6.0806,6.0806,6.0806,6.0806,6.0806,6.0806,6.0806,6.0806,6.0806,6.0806,6.0806,6.0806,6.0806,6.0806,6.0806,6.0806,6.0806,6.0806,6.0806,6.0806,6.0806,6.0806,6.0806,6.0806,6.0806,6.0806,6.0806,6.0806,6.0806,6.0806,6.0806,6.0806,6.0806,6.0806,6.0806,6.0806,6.0806,6.0806,6.0806,6.0806,6.0806,6.0806,6.0806,6.0806,6.0806,6.0806,6.0806,6.0806,6.0806,6.0806,6.0806,6.0806,6.0806,6.0806,5.2574,5.3972,5.4664,5.4664,5.376,5.176,4.7485,4.5772,4.3705,3.8782,3.7608,3.6738,3.4353,3.7424,4.0723,4.1949,4.712,5.231,5.6073,5.7952,5.9588,6.1322,6.1537,6.1537,6.1537,6.1537,6.1579,6.1699,6.1584,6.1537,6.1537,6.1424,6.1415,6.1516,6.1402,6.1344,6.1344,6.1344,6.1344,6.1344,6.1344,6.1344,6.1352,6.1584,6.1699,6.1699,6.1699,6.1699,6.1699,6.1699,6.1699,6.1699,6.1699,6.1387,6.0919,6.0919,6.0896,6.0828,6.0856,6.0858,6.0819,6.0818,6.0806,6.0806,6.0806,6.0806,6.0806,6.0806,6.0806,6.0806,6.0806,6.0806,6.0806,6.0806,6.0806,6.0806,6.0806,6.0806,6.0806,6.0806,6.0806,6.0806,6.0806,6.0806,6.0806,6.0806,6.0806,6.0806,6.0806,6.0806,6.0806,6.0806,6.0806,6.0806,6.0806,6.0806,6.0806,6.0806,6.0806,6.0806,6.0806,6.0806,6.0806,6.0806,6.0806,6.0806,6.0806,6.0806,6.0806,6.0806,6.0806,6.0806,5.3404,5.467,5.5497,5.5497,5.3304,4.9957,4.5455,4.3455,4.1294,3.6935,3.5029,3.3562,3.1691,3.4938,3.8881,4.1869,4.6849,5.2066,5.6952,5.8514,5.9764,6.1463,6.1678,6.1678,6.1678,6.1678,6.1679,6.1699,6.1679,6.1678,6.1678,6.1636,6.1635,6.1658,6.1636,6.1633,6.1633,6.1633,6.1633,6.1633,6.1633,6.1633,6.1634,6.1679,6.1699,6.1699,6.1699,6.1699,6.1699,6.1699,6.1699,6.1699,6.1699,6.1636,6.1535,6.1535,6.133,6.1052,6.1165,6.1093,6.0944,6.0847,6.0806,6.0806,6.0806,6.0806,6.0806,6.0806,6.0806,6.0806,6.0806,6.0806,6.0806,6.0806,6.0806,6.0806,6.0806,6.0806,6.0806,6.0806,6.0806,6.0806,6.0806,6.0806,6.0806,6.0806,6.0806,6.0806,6.0806,6.0806,6.0806,6.0806,6.0806,6.0806,6.0806,6.0806,6.0806,6.0806,6.0806,6.0806,6.0806,6.0806,6.0806,6.0806,6.0806,6.0806,6.0806,6.0806,6.0806,6.0806,6.0806,6.0806,5.3626,5.4824,5.5708,5.5708,5.3224,4.9451,4.4287,4.1151,3.7902,3.2797,3.1163,3.0121,2.8405,3.2029,3.5957,3.8047,4.3125,4.8613,5.3789,5.6055,5.8125,6.0723,6.1426,6.1699,6.1699,6.1699,6.1699,6.1699,6.1699,6.1699,6.1699,6.1699,6.1699,6.1699,6.1699,6.1699,6.1699,6.1699,6.1699,6.1699,6.1699,6.1699,6.1699,6.1699,6.1699,6.1699,6.1699,6.1699,6.1699,6.1699,6.1699,6.1699,6.1699,6.1699,6.1699,6.1699,6.1502,6.1256,6.1289,6.1237,6.1147,6.1083,6.0929,6.0806,6.0806,6.0806,6.0806,6.0806,6.0806,6.0806,6.0806,6.0806,6.0806,6.0806,6.0806,6.0806,6.0806,6.0806,6.0806,6.0806,6.0806,6.0806,6.0806,6.0806,6.0806,6.0806,6.0806,6.0806,6.0806,6.0806,6.0806,6.0806,6.0806,6.0806,6.0806,6.0806,6.0806,6.0806,6.0806,6.0806,6.0806,6.0806,6.0806,6.0806,6.0806,6.0806,6.0806,6.0806,6.0806,6.0806,6.0806,6.0806,5.3581,5.4713,5.5379,5.5278,5.2725,4.8684,4.274,3.8961,3.5126,2.9373,2.7906,2.7312,2.6191,2.9453,3.2891,3.4687,3.9277,4.4668,5.0566,5.3496,5.6367,5.9961,6.1172,6.1699,6.1699,6.1699,6.1699,6.1699,6.1699,6.1699,6.1699,6.1699,6.1699,6.1699,6.1699,6.1699,6.1699,6.1699,6.1699,6.1699,6.1699,6.1699,6.1699,6.1699,6.1699,6.1699,6.1699,6.1699,6.1699,6.1699,6.1699,6.1699,6.1699,6.1699,6.1699,6.1699,6.1609,6.1452,6.1398,6.1379,6.1334,6.1334,6.1116,6.0845,6.0845,6.0819,6.0806,6.0806,6.0806,6.0806,6.0806,6.0806,6.0806,6.0806,6.0806,6.0806,6.0806,6.0806,6.0806,6.0806,6.0806,6.0806,6.0806,6.0806,6.0806,6.0806,6.0806,6.0806,6.0806,6.0806,6.0806,6.0806,6.0806,6.0806,6.0806,6.0806,6.0806,6.0806,6.0806,6.0806,6.0806,6.0806,6.0806,6.0806,6.0806,6.0806,6.0806,6.0806,6.0806,6.0806,6.0806,6.0806,5.3422,5.4351,5.4322,5.3908,5.0923,4.6316,3.9582,3.695,3.4436,2.9262,2.6984,2.6113,2.6758,2.793,3.0332,3.5117,3.7676,4.1953,5.0234,5.2969,5.5683,5.9902,6.1172,6.1699,6.1699,6.1699,6.1699,6.1699,6.1699,6.1699,6.1699,6.1699,6.1699,6.1699,6.1699,6.1699,6.1699,6.1699,6.1699,6.1699,6.1699,6.1699,6.1699,6.1699,6.1699,6.1699,6.1699,6.1699,0.0,6.1699,6.1699,6.1699,6.1699,6.1699,6.1699,6.1699,6.1699,6.1679,6.1678,6.1581,6.1472,6.1472,6.125,6.099,6.099,6.0899,6.0806,6.0806,6.0806,6.0806,6.0806,6.0806,6.0806,6.0806,6.0806,6.0806,6.0806,6.0806,6.0806,6.0806,6.0806,6.0806,6.0806,6.0806,6.0806,6.0806,6.0806,6.0806,6.0806,6.0806,6.0806,6.0806,6.0806,6.0806,6.0806,6.0806,6.0806,6.0806,6.0806,6.0806,6.0806,6.0806,6.0806,6.0806,6.0806,6.0806,6.0806,6.0806,6.0806,6.0806,6.0806,6.0806,5.123,5.2785,5.302,5.1213,4.8297,4.407,3.7179,3.4953,3.3058,2.8432,2.6522,2.5801,2.6152,2.6934,2.8711,3.2344,3.4355,3.7754,4.4336,4.7637,5.1152,5.5976,5.8242,6.0019,6.1543,6.1699,6.1699,6.1699,6.1699,6.1699,6.1699,6.1699,6.1699,6.1699,6.1699,6.1699,6.1699,6.1699,6.1699,6.1699,6.1699,6.1699,6.1699,6.1699,6.1699,6.1699,6.1699,6.1699,0.0,6.1699,6.1699,6.1699,6.1699,6.1699,6.1699,6.1699,6.1699,6.1699,6.1699,6.1678,6.1612,6.1612,6.1528,6.1399,6.1233,6.1063,6.093,6.093,6.0869,6.0806,6.0806,6.0806,6.0806,6.0806,6.0806,6.0806,6.0806,6.0806,6.0806,6.0806,6.0806,6.0806,6.0806,6.0806,6.0806,6.0806,6.0806,6.0806,6.0806,6.0806,6.0806,6.0806,6.0806,6.0806,6.0806,6.0806,6.0806,6.0806,6.0806,6.0806,6.0806,6.0806,6.0806,6.0806,6.0806,6.0806,6.0806,6.0806,6.0806,6.0806,6.0806,6.1075,4.8047,5.0227,5.1163,4.9352,4.6797,4.3105,3.6973,3.4453,3.2187,2.7871,2.6309,2.5703,2.5703,2.6406,2.7773,3.0137,3.2148,3.5234,4.0469,4.3926,4.7656,5.2324,5.4941,5.7363,5.9941,6.1113,6.1699,6.1699,6.1699,6.1699,6.1699,6.1699,6.1699,6.1699,6.1699,6.1699,6.1699,6.1699,6.1699,6.1699,6.1699,6.1699,6.1699,6.1699,6.1699,6.1699,6.1699,6.1699,0.0,6.1699,6.1699,6.1699,6.1699,6.1699,6.1699,6.1699,6.1699,6.1699,6.1699,6.1699,6.1699,6.1699,6.1699,6.1658,6.1488,6.1267,6.1097,6.1097,6.0987,6.0842,6.081,6.0806,6.0806,6.0806,6.0806,6.0806,6.0806,6.0806,6.0806,6.0806,6.0806,6.0806,6.0806,6.0806,6.0806,6.0806,6.0806,6.0806,6.0806,6.0806,6.0806,6.0806,6.0806,6.0806,6.0806,6.0806,6.0806,6.0806,6.0806,6.0806,6.0806,6.0806,6.0806,6.0806,6.0806,6.0806,6.0806,6.0806,6.0941,6.1172,6.1172,6.1787,4.3991,4.6612,4.8604,4.8843,4.6933,4.3867,3.9531,3.5879,3.2187,2.7871,2.6309,2.5703,2.5703,2.6406,2.7578,2.9336,3.1738,3.5234,4.0469,4.3398,4.6308,4.9824,5.1738,5.3789,5.6406,5.9707,6.1699,6.1699,6.1699,6.1699,6.1699,6.1699,6.1699,6.1699,6.1699,6.1699,6.1699,6.1699,6.1699,6.1699,6.1699,6.1699,6.1699,6.1699,6.1699,6.1699,6.1699,6.1699,0.0,6.1699,6.1699,6.1699,6.1699,6.1699,6.1699,6.1699,6.1699,6.1699,6.1699,6.1699,6.1699,6.1699,6.1699,6.1699,6.1699,6.1508,6.1303,6.1303,6.1158,6.0962,6.0828,6.0806,6.0806,6.0806,6.0806,6.0806,6.0806,6.0806,6.0806,6.0806,6.0806,6.0806,6.0806,6.0806,6.0806,6.0806,6.0806,6.0806,6.0806,6.0806,6.0806,6.0806,6.0806,6.0806,6.0806,6.0806,6.0806,6.0806,6.0806,6.0806,6.0806,6.0806,6.0806,6.0806,6.0806,6.0806,6.0806,6.0806,6.1248,6.2095,6.2095,6.298,3.8592,4.0855,4.2223,4.1116,3.9837,3.7871,3.418,3.2012,2.9902,2.6758,2.5898,2.5703,2.5703,2.5937,2.7441,3.1523,3.2871,3.5019,3.9668,4.4043,4.7637,4.9922,5.5312,5.918,6.0019,6.1055,6.1699,6.1699,6.1699,6.1699,6.1699,6.1699,6.1699,6.1699,6.1699,6.1699,6.1699,6.1699,6.1699,6.1699,6.1699,6.1699,6.1699,6.1699,6.1699,6.1699,6.1699,6.1699,6.1699,6.1699,6.1699,6.1699,6.1699,6.1699,6.1699,6.1699,6.1699,6.1699,6.1699,6.1699,6.1699,6.1699,6.1699,6.1699,6.1699,6.1579,6.1424,6.1334,6.125,6.1165,6.0986,6.1044,6.112,6.0963,6.1049,6.1136,6.1136,6.1136,6.1136,6.1136,6.1136,6.1136,6.1136,6.1136,6.1108,6.0968,6.094,6.0895,6.081,6.0806,6.0806,6.0806,6.0806,6.0806,6.0806,6.0806,6.0806,6.0806,6.0806,6.0806,6.0806,6.0883,6.0894,6.0806,6.0888,6.0888,6.0806,6.0806,6.1248,6.2114,6.2666,6.3512,3.3899,3.6321,3.7563,3.6864,3.5853,3.4297,3.1523,2.9961,2.8457,2.6172,2.5703,2.5703,2.5703,2.623,2.7734,3.0957,3.2832,3.5156,3.8821,4.3505,4.7665,5.0712,5.6182,5.9858,6.0234,6.1133,6.1699,6.1699,6.1699,6.1699,6.1699,6.1699,6.1699,6.1699,6.1699,6.1699,6.1699,6.1699,6.1699,6.1699,6.1699,6.1699,6.1699,6.1699,6.1699,6.1699,6.1699,6.1699,0.0,6.1699,6.1699,6.1699,6.1699,6.1699,6.1699,6.1699,6.1699,6.1699,6.1699,6.1699,6.1699,6.1699,6.1699,6.1699,6.1699,6.1636,6.1548,6.1402,6.1386,6.1336,6.1153,6.1176,6.1197,6.1077,6.1179,6.1306,6.1306,6.1318,6.1341,6.1341,6.1312,6.1306,6.1306,6.1306,6.1253,6.112,6.1101,6.1073,6.1007,6.0919,6.0894,6.0974,6.0919,6.0876,6.0876,6.0831,6.0806,6.0806,6.0806,6.0819,6.0871,6.0959,6.099,6.0983,6.1072,6.1034,6.0876,6.1455,6.2012,6.257,6.3743,6.457,0.0,3.2445,3.3985,3.4862,3.3926,3.2344,3.0723,2.9141,0.0,2.5937,2.5605,2.5684,2.5937,2.7246,2.8437,2.8867,3.2285,3.5797,3.8405,4.2617,4.7318,5.2449,5.5246,5.7113,5.7988,6.0273,6.1699,6.1699,6.1699,6.1699,6.1699,6.1699,6.1699,6.1699,6.1699,6.1699,6.1699,6.1699,6.1699,6.1699,6.1699,6.1699,6.1699,6.1699,6.1699,6.1699,6.1699,6.1699,6.1699,6.1699,6.1699,6.1699,6.1699,6.1699,6.1699,6.1699,6.1699,6.1699,6.1699,6.1699,6.1699,6.1699,6.1699,6.1699,6.1699,6.1699,6.1679,6.1548,6.1511,6.1474,6.1336,6.1237,6.1142,6.1112,6.1214,6.1337,6.1337,6.1385,6.1412,6.1412,6.1376,6.1337,6.1337,6.1337,6.1334,6.1323,6.1304,6.1317,6.1306,6.1147,6.1081,6.1271,6.112,6.1023,6.1023,6.0888,6.0816,6.0816,6.0816,6.0871,6.1014,6.102,6.1112,6.1303,6.1306,6.1204,6.1001,6.2505,6.3261,6.3333,6.5013,6.5846,2.3531,0.0,2.6681,2.6308,2.6367,2.625,0.0,2.5176,2.5195,2.4785,2.4707,2.5527,2.8184,2.8476,2.9805,3.4434,3.6035,3.8004,4.1769,4.7628,5.3232,5.784,5.9529,6.0162,5.9843,6.0957,6.1699,6.1699,6.1699,6.1699,6.1699,6.1699,6.1699,6.1699,6.1699,6.1699,6.1699,6.1699,6.1699,6.1699,6.1699,6.1699,6.1699,6.1699,6.1699,6.1699,6.1699,6.1699,6.1699,6.1699,6.1699,6.1699,6.1699,6.1699,6.1699,6.1699,6.1699,6.1699,6.1699,6.1699,6.1699,6.1699,6.1699,6.1699,6.1699,6.1699,6.1699,6.1658,6.1657,6.161,6.1428,6.1477,6.1516,6.1309,6.1424,6.1608,6.1608,6.1612,6.1635,6.1635,6.1612,6.1608,6.1608,6.1608,6.1577,6.1464,6.1453,6.1424,6.1301,6.1253,6.1243,6.1283,6.1253,6.123,6.123,6.1068,6.0954,6.0954,6.0954,6.1042,6.122,6.1325,6.1366,6.1306,6.1306,6.1204,6.1001,6.2036,6.2804,6.3333,6.4397,6.5263,2.1004,2.3028,2.4997,2.4941,2.5273,2.5586,2.5547,2.4941,2.4512,2.4902,2.5,2.582,2.8516,2.9546,3.1203,3.4902,3.7758,4.1367,4.6693,5.1231,5.5511,5.9538,6.0492,6.0838,6.0902,6.1385,6.1699,6.1699,6.1699,6.1699,6.1699,6.1699,6.1699,6.1699,6.1699,6.1699,6.1699,6.1699,6.1699,6.1699,6.1699,6.1699,6.1699,6.1699,6.1699,6.1699,6.1699,6.1699,6.1699,6.1699,6.1699,6.1699,6.1699,6.1699,6.1699,6.1699,6.1699,6.1699,6.1699,6.1699,6.1699,6.1699,6.1699,6.1699,6.1699,6.1699,6.1699,6.1699,6.1699,6.1679,6.1561,6.1613,6.1658,6.1514,6.1585,6.1699,6.1699,6.1699,6.1699,6.1699,6.1699,6.1699,6.1699,6.1699,6.1679,6.1607,6.1584,6.1575,6.1499,6.1434,6.1422,6.1488,6.1434,6.1383,6.1383,6.1298,6.1198,6.1131,6.1147,6.1211,6.1378,6.1458,6.148,6.1474,6.143,6.149,6.1686,6.2489,6.3234,6.391,6.4782,6.5455,2.097,2.3648,2.6289,2.623,2.6602,2.7129,2.7598,2.6094,2.4844,2.5723,2.5898,2.6621,2.9003,3.1075,3.2917,3.4484,3.9292,4.5104,5.1571,5.3865,5.6106,5.9388,6.0003,6.0447,6.1201,6.1499,6.1635,6.1635,6.1635,6.1656,6.1678,6.1678,6.1679,6.1699,6.1699,6.1699,6.1699,6.1699,6.1699,6.1699,6.1699,6.1699,6.1699,6.1699,6.1699,6.1699,6.1699,0.0,6.1699,6.1699,6.1699,6.1699,6.1699,6.1699,6.1699,6.1699,6.1699,6.1699,6.1699,6.1699,6.1699,6.1699,6.1699,6.1699,6.1699,6.1699,6.1699,6.1699,6.1699,6.1699,6.1699,6.1699,6.1699,6.1699,6.1699,6.1699,6.1699,6.1699,6.1699,6.1699,6.1699,6.1699,6.1699,6.1699,6.1699,6.1699,6.1699,6.1699,6.1699,6.1606,6.1578,6.1699,6.1606,6.154,6.154,6.154,6.1472,6.1379,6.1334,6.138,6.1517,6.154,6.1581,6.1699,6.172,6.2005,6.2541,6.341,6.4106,6.4643,6.5499,6.5904,2.3204,2.6344,2.7988,2.373,2.4863,2.6641,2.5293,2.5254,2.5742,2.6621,2.6797,2.8416,3.3678,3.444,3.5709,4.006,4.3851,4.8116,5.3466,5.5605,5.7392,5.9467,6.0388,6.0685,6.0269,6.093,6.1354,6.1354,6.1354,6.142,6.1516,6.154,6.1581,6.1699,6.1699,6.1699,6.1699,6.1699,6.1699,6.1699,6.1699,6.1699,6.1699,6.1699,6.1699,6.1699,0.0,6.1699,6.1699,6.1699,6.1699,6.1699,6.1699,6.1699,6.1699,6.1699,6.1699,6.1699,6.1699,6.1699,6.1699,6.1699,6.1699,6.1699,6.1699,6.1699,6.1699,6.1699,6.1699,6.1699,6.1699,6.1699,6.1699,6.1699,6.1699,6.1699,6.1699,6.1699,6.1699,6.1699,6.1699,6.1699,6.1699,6.1699,6.1699,6.1699,6.1699,6.1699,6.1699,6.1679,6.1679,6.1699,6.1679,6.1678,6.1678,6.1678,6.1658,6.1635,6.152,6.1538,6.1658,6.1678,6.1679,6.1699,6.2402,6.276,6.2753,6.4182,6.4839,6.4788,6.5544,6.5904,2.2027,2.4862,2.7031,2.5137,2.8281,3.1777,3.1445,3.0957,3.0684,3.1074,3.1152,3.2263,3.5836,3.7321,3.9928,4.5796,4.8438,5.1032,5.468,5.6248,5.7643,5.9396,6.005,6.04,6.053,6.1,6.1306,6.1306,6.1306,6.1337,6.14,6.1383,6.1426,6.1472,6.155,6.1552,6.1474,6.1633,6.1699,6.1699,6.1699,6.1699,6.1699,6.1699,6.1699,6.1699,0.0,6.1699,6.1699,6.1699,6.1699,6.1699,6.1699,6.1699,6.1699,6.1699,6.1699,6.1699,6.1699,6.1699,6.1699,6.1699,6.1699,6.1699,6.1699,6.1699,6.1699,6.1699,6.1699,6.1699,6.1699,6.1699,6.1699,6.1699,6.1699,6.1699,6.1699,6.1699,6.1699,6.1699,6.1699,6.1699,6.1699,6.1699,6.1699,6.1699,6.1699,6.1699,6.1699,6.1699,6.1699,6.1699,6.1699,6.1699,6.1699,6.1699,6.1699,6.1699,6.1636,6.1634,6.1699,6.1699,6.1699,6.1699,6.2558,6.3108,6.3346,6.4526,6.5196,6.5399,6.5741,6.5904,2.1328,2.3691,2.6309,2.7598,3.123,3.4941,3.6601,3.5801,3.4922,3.57,3.5875,3.6354,3.7936,4.0258,4.3795,4.9508,5.1342,5.3044,5.5917,5.6882,5.794,5.9608,5.9943,6.0282,6.0896,6.1092,6.1184,6.1184,6.1184,6.1202,6.1227,6.123,6.1246,6.1306,6.1409,6.1394,6.1306,6.1505,6.1612,6.1657,6.1679,6.1699,6.1699,6.1699,6.1699,6.1699,6.1699,6.1699,6.1699,6.1699,6.1699,6.1699,6.1699,6.1699,6.1699,6.1699,6.1699,6.1699,6.1699,6.1699,6.1699,6.1699,6.1699,6.1699,6.1699,6.1699,6.1699,6.1699,6.1699,6.1699,6.1699,6.1699,6.1699,6.1699,6.1699,6.1699,6.1699,6.1699,6.1699,6.1699,6.1699,6.1699,6.1699,6.1699,6.1699,6.1699,6.1699,6.1699,6.1699,6.1699,6.1699,6.1699,6.1699,6.1699,6.1699,6.1699,6.1699,6.1699,6.1699,6.1699,6.1699,6.1699,6.1699,6.1699,6.2733,6.346,6.3876,6.4857,6.5547,6.5956,6.5916,6.5904,2.3477,2.5488,2.75,3.0,3.0332,3.1113,3.5176,3.5371,3.5584,3.8691,3.9347,3.9794,4.1272,4.3573,4.6227,4.92,5.0942,5.3367,5.753,5.8165,5.8838,6.0517,6.0727,6.0758,6.0821,6.0839,6.085,6.085,6.085,6.0892,6.1014,6.1027,6.1116,6.128,6.1317,6.1317,6.1306,6.1329,6.1383,6.1512,6.1635,6.1699,6.1699,6.1699,6.1699,6.1699,6.1699,6.1699,6.1699,6.1699,6.1699,6.1699,6.1699,6.1699,6.1699,6.1699,6.1699,6.1699,6.1699,6.1699,6.1699,6.1699,6.1699,6.1699,6.1699,6.1699,6.1699,6.1699,6.1699,6.1699,6.1699,6.1699,6.1699,6.1699,6.1699,6.1699,6.1699,6.1699,6.1699,6.1699,6.1699,6.1699,6.1699,6.1699,6.1699,6.1699,6.1699,6.1699,6.1699,6.1699,6.1699,6.1699,6.1699,6.1699,6.1699,6.1699,6.1699,6.1699,6.1699,6.1699,6.1699,6.1699,6.1699,6.1699,6.3237,6.4039,6.4084,6.5397,6.606,6.6075,6.5967,6.5904,2.1777,2.4797,2.804,2.9572,3.1282,3.3583,3.7434,3.9665,4.1289,4.2557,4.3635,4.4362,4.4321,4.6324,4.8465,5.0029,5.2512,5.5011,5.719,5.8396,5.9281,5.9915,6.0473,6.0806,6.0806,6.0806,6.0806,6.0806,6.0806,6.0814,6.0871,6.0876,6.0904,6.0983,6.1072,6.1076,6.0988,6.1199,6.1268,6.1195,6.138,6.1481,6.1579,6.1579,6.1612,6.1699,6.1699,6.1699,6.1699,6.1699,6.1699,6.1699,6.1699,6.1699,6.1699,6.1699,6.1699,6.1699,6.1699,6.1699,6.1699,6.1699,6.1699,6.1699,6.1699,6.1699,6.1699,6.1699,6.1699,6.1699,6.1699,6.1699,6.1699,6.1699,6.1699,6.1699,6.1699,6.1699,6.1699,6.1699,6.1699,6.1699,6.1699,6.1699,6.1699,6.1699,6.1699,6.1699,6.1699,6.1699,6.1699,6.1699,6.1699,6.1699,6.1699,6.1699,6.1699,6.1699,6.1699,6.1699,6.1699,6.1699,6.1699,6.1699,6.3272,6.4045,6.3928,6.5386,6.6064,6.5963,6.5921,6.5904,2.1773,2.4682,2.8107,2.9747,3.2071,3.509,3.9418,4.2208,4.4249,4.5563,4.6518,4.691,4.6263,4.7694,4.9356,5.0515,5.3304,5.5708,5.6843,5.7998,5.8819,5.9088,5.9877,6.0396,6.0396,6.0646,6.0806,6.0806,6.0806,6.0806,6.0806,6.0806,6.0806,6.0806,6.0883,6.0894,6.0806,6.1024,6.1063,6.0945,6.1087,6.1246,6.144,6.144,6.1509,6.1635,6.1635,6.1658,6.1699,6.1699,6.1699,6.1699,6.1699,6.1699,6.1699,6.1699,6.1699,6.1699,6.1699,6.1699,6.1699,6.1699,6.1699,6.1699,6.1699,6.1699,6.1699,6.1699,6.1699,6.1699,6.1699,6.1699,6.1699,6.1699,6.1699,6.1699,6.1699,6.1699,6.1699,6.1699,6.1699,6.1699,6.1699,6.1699,6.1699,6.1699,6.1699,6.1699,6.1699,6.1699,6.1699,6.1699,6.1699,6.1699,6.1699,6.1699,6.1699,6.1699,6.1699,6.1699,6.1699,6.1699,6.1679,6.1635,6.32,6.3925,6.3734,6.5291,6.5997,6.5904,6.5904,6.5904,2.4282,2.5588,2.7712,3.0989,3.2449,3.464,4.0565,4.2031,4.3302,4.7472,4.756,4.6908,4.6908,4.7582,4.8682,5.0418,5.2842,5.5074,5.6747,5.6983,5.7324,5.8184,5.9006,5.9492,5.9492,6.0281,6.0787,6.0787,6.0806,6.0806,6.0806,6.0806,6.0806,6.0806,6.0806,6.0806,6.0806,6.0806,6.0806,6.0806,6.0806,6.0964,6.1303,6.1303,6.1364,6.1502,6.1502,6.1579,6.1699,6.1699,6.1699,6.1699,6.1699,6.1699,6.1699,6.1699,6.1699,6.1699,6.1699,6.1699,6.1699,6.1699,6.1699,6.1699,6.1699,6.1699,6.1699,6.1699,6.1699,6.1699,6.1699,6.1699,6.1699,6.1699,6.1699,6.1699,6.1699,6.1699,6.1699,6.1699,6.1699,6.1699,6.1699,6.1699,6.1699,6.1699,6.1699,6.1699,6.1699,6.1699,6.1699,6.1699,6.1699,6.1699,6.1699,6.1699,6.1699,6.1699,6.1699,6.1699,6.1699,6.1699,6.1635,6.1523,6.3005,6.3731,6.3612,6.5144,6.5904,6.5904,6.5904,6.5904,2.2555,2.5955,2.9858,3.135,3.5494,3.9964,4.293,4.4083,4.5588,4.9238,4.8786,4.7735,4.7735,4.8933,5.0091,5.0611,5.2842,5.4876,5.5939,5.6613,5.7099,5.7343,5.8146,5.866,5.866,5.9396,5.9896,5.9896,6.0454,6.0806,6.0806,6.0806,6.0806,6.0806,6.0806,6.0806,6.0806,6.0806,6.0806,6.0806,6.0806,6.0908,6.1097,6.1097,6.1184,6.1357,6.1457,6.1516,6.1575,6.1658,6.1699,6.1699,6.1699,6.1699,6.1699,6.1699,6.1699,6.1699,6.1699,6.1699,6.1699,6.1699,6.1699,6.1699,6.1699,6.1699,6.1699,6.1699,6.1699,6.1699,6.1699,6.1699,6.1699,6.1699,6.1699,6.1699,6.1699,6.1699,6.1699,6.1699,6.1699,6.1699,6.1699,6.1699,6.1699,6.1699,6.1699,6.1699,6.1699,6.1699,6.1699,6.1699,6.1699,6.1699,6.1699,6.1699,6.1699,6.1699,6.1699,6.1699,6.1699,6.1699,6.1982,6.2618,6.2938,6.3545,6.4444,6.5413,6.5904,6.5904,6.5904,6.5904,2.53,2.8595,3.2253,3.5028,3.8513,4.2085,4.5124,4.6475,4.7783,5.0207,4.9591,4.8721,4.9067,5.024,5.1279,5.165,5.3535,5.5151,5.5631,5.6151,5.6478,5.6478,5.7247,5.778,5.778,5.855,5.9031,5.9031,5.98,6.0281,6.0281,6.0614,6.0806,6.0806,6.0806,6.0806,6.0806,6.0806,6.0806,6.0806,6.0806,6.0839,6.093,6.093,6.1027,6.1181,6.1406,6.1504,6.1509,6.1636,6.1699,6.1699,6.1699,6.1699,6.1699,6.1699,6.1699,6.1699,6.1699,6.1699,6.1699,6.1699,6.1699,6.1699,6.1699,6.1699,6.1699,6.1699,6.1699,6.1699,6.1699,6.1699,6.1699,6.1699,6.1699,6.1699,6.1699,6.1699,6.1699,6.1699,6.1699,6.1699,6.1699,6.1699,6.1699,6.1699,6.1699,6.1699,6.1699,6.1699,6.1699,6.1699,6.1699,6.1699,6.1699,6.1699,6.1699,6.1699,6.1699,6.1699,6.1699,6.1699,6.1968,6.2535,6.3155,6.3823,6.4565,6.5451,6.5904,6.5904,6.5904,6.5904,3.0186,3.2155,3.4457,4.0146,4.1335,4.2301,4.6932,4.8721,4.9649,5.0515,5.0072,4.9764,5.0553,5.1356,5.2159,5.2947,5.4491,5.5593,5.5593,5.5651,5.5708,5.5708,5.6401,5.6882,5.6882,5.7665,5.8184,5.8184,5.8934,5.9396,5.9396,6.0204,6.0691,6.0691,6.0768,6.0806,6.0806,6.0806,6.0806,6.0806,6.0806,6.0806,6.0806,6.0806,6.0871,6.1023,6.1313,6.147,6.1508,6.1634,6.1699,6.1699,6.1699,6.1699,6.1699,6.1699,6.1699,6.1699,6.1699,6.1699,6.1699,6.1699,6.1699,6.1699,6.1699,6.1699,6.1699,6.1699,6.1699,6.1699,6.1699,6.1699,6.1699,6.1699,6.1699,6.1699,6.1699,6.1699,6.1699,6.1699,6.1699,6.1699,6.1699,6.1699,6.1699,6.1699,6.1699,6.1699,6.1699,6.1699,6.1699,6.1699,6.1699,6.1699,6.1699,6.1699,6.1699,6.1699,6.1699,6.1679,6.1614,6.1679,6.1699,6.1699,6.3473,6.4377,6.4365,6.5384,6.5904,6.5904,6.5904,6.5904,2.7181,3.0332,3.411,3.8694,4.2701,4.5812,4.6908,4.8317,4.9649,5.0515,5.0553,5.0476,5.0668,5.1356,5.1962,5.2159,5.3626,5.4761,5.4761,5.5304,5.5708,5.5708,5.5862,5.5978,5.5978,5.6766,5.7286,5.7286,5.8069,5.8569,5.8569,5.9338,5.9781,5.9781,6.0435,6.0806,6.0806,6.0806,6.0806,6.0806,6.0806,6.0806,6.0806,6.0806,6.0871,6.1006,6.1081,6.1256,6.1504,6.152,6.1608,6.1699,6.1699,6.1699,6.1699,6.1699,6.1699,6.1699,6.1699,6.1699,6.1699,6.1699,6.1699,6.1699,6.1699,6.1699,6.1699,6.1699,6.1699,6.1699,6.1699,6.1699,6.1699,6.1699,6.1699,6.1699,6.1699,6.1699,6.1699,6.1699,6.1699,6.1699,6.1699,6.1699,6.1699,6.1699,6.1699,6.1699,6.1699,6.1699,6.1699,6.1699,6.1699,6.1699,6.1699,6.1699,6.1699,6.1699,6.1699,6.1491,6.1018,6.1451,6.1699,6.1699,6.2924,6.4212,6.5532,6.5788,6.5904,6.5904,6.5904,6.5904,2.7976,3.1295,3.4979,4.0854,4.4321,4.6394,4.6793,4.7582,4.8432,4.9279,5.0111,5.0707,5.0707,5.1356,5.1904,5.1904,5.3005,5.3876,5.3876,5.4607,5.5131,5.5131,5.5478,5.5708,5.5708,5.6112,5.6382,5.6382,5.719,5.7684,5.7684,5.8473,5.8934,5.8934,5.9377,5.9781,6.0165,6.0185,6.0396,6.0806,6.0806,6.0806,6.0806,6.0806,6.0834,6.0905,6.0972,6.1089,6.1267,6.1352,6.1474,6.1608,6.1608,6.1636,6.1699,6.1699,6.1699,6.1699,6.1699,6.1699,6.1699,6.1699,6.1699,6.1699,6.1699,6.1699,6.1699,6.1699,6.1699,6.1699,6.1699,6.1699,6.1699,6.1699,6.1699,6.1699,6.1699,6.1699,6.1699,6.1699,6.1699,6.1699,6.1699,6.1699,6.1699,6.1699,6.1699,6.1699,6.1699,6.1699,6.1699,6.1699,6.1699,6.1699,6.1699,6.1699,6.1699,6.1699,6.1699,6.1559,6.1244,6.1256,6.127,6.127,6.1814,6.3358,6.5904,6.5904,6.5904,6.5904,6.5904,6.5904,2.8951,3.2679,3.6511,4.3436,4.5379,4.5782,4.6509,4.6793,4.7081,4.7755,4.926,5.0476,5.0476,5.1144,5.1697,5.1697,5.2409,5.2986,5.2986,5.3722,5.428,5.428,5.4991,5.5497,5.5497,5.5612,5.5708,5.5708,5.6362,5.6786,5.6786,5.7607,5.8088,5.8088,5.8223,5.8627,5.93,5.93,5.9723,6.0569,6.0729,6.0806,6.0806,6.0806,6.0806,6.0818,6.0925,6.0981,6.1014,6.1186,6.1352,6.1504,6.1504,6.1581,6.1699,6.1699,6.1699,6.1699,6.1699,6.1699,6.1699,6.1699,6.1699,6.1699,6.1699,6.1699,6.1699,6.1699,6.1699,6.1699,6.1699,6.1699,6.1699,6.1699,6.1699,6.1699,6.1699,6.1699,6.1699,6.1699,6.1699,6.1699,6.1699,6.1699,6.1699,6.1699,6.1699,6.1699,6.1699,6.1699,6.1699,6.1699,6.1699,6.1699,6.1699,6.1699,6.1699,6.1699,6.1699,6.1699,6.1699,6.122,6.1183,6.1672,6.1095,6.2474,6.5904,6.5904,6.5904,6.5904,6.5904,6.5904,2.531,3.1695,3.845,4.2431,4.4532,4.5633,4.5744,4.6355,4.6928,4.7043,4.8394,4.9567,4.9567,5.0284,5.0861,5.0861,5.1548,5.2077,5.2077,5.2813,5.3371,5.3371,5.4145,5.4664,5.4664,5.5285,5.5708,5.5708,5.5805,5.5862,5.5862,5.6709,5.717,5.717,5.7915,5.8352,5.8467,5.8467,5.8877,5.9685,6.0441,6.0806,6.0806,6.0806,6.0806,6.0806,6.0827,6.0894,6.1001,6.1031,6.122,6.1504,6.1504,6.1581,6.1699,6.1699,6.1699,6.1699,6.1699,6.1699,6.1699,6.1699,6.1699,6.1699,6.1699,6.1699,6.1699,6.1699,6.1699,6.1699,6.1699,6.1699,6.1699,6.1699,6.1699,6.1699,6.1699,6.1699,6.1699,6.1699,6.1699,6.1699,6.1699,6.1699,6.1699,6.1699,6.1699,6.1699,6.1699,6.1699,6.1699,6.1699,6.1699,6.1699,6.1699,6.1699,6.1699,6.1699,6.1699,6.1699,6.1699,6.1614,6.2723,6.5172,6.23,6.2474,6.5904,6.5904,6.5904,6.5904,6.5904,6.5904,2.6703,3.2288,3.7657,4.2008,4.3989,4.4994,4.5494,4.5898,4.6163,4.6163,4.7144,4.8298,4.9221,4.9707,5.013,5.0611,5.0996,5.1221,5.1221,5.1947,5.2467,5.2467,5.3236,5.378,5.378,5.453,5.503,5.503,5.5458,5.5708,5.5708,5.6055,5.6266,5.6266,5.6646,5.7088,5.7574,5.7574,5.7992,5.8838,5.9665,6.0069,6.0089,6.0569,6.0806,6.0806,6.0806,6.0823,6.0883,6.0883,6.1092,6.1398,6.1398,6.1512,6.1699,6.1699,6.1699,6.1699,6.1699,6.1699,6.1699,6.1699,6.1699,6.1699,6.1699,6.1699,6.1699,6.1699,6.1699,6.1699,6.1699,6.1699,6.1699,6.1699,6.1699,6.1699,6.1699,6.1699,6.1699,6.1699,6.1699,6.1699,6.1699,6.1699,6.1699,6.1699,6.1699,6.1699,6.1699,6.1699,6.1699,6.1699,6.1699,6.1699,6.1699,6.1699,6.1699,6.1699,6.1699,6.1699,6.1699,6.1699,6.2128,6.3023,6.3461,6.4403,6.5904,6.5904,6.5904,6.5904,6.5904,6.5904,2.6754,3.0965,3.4734,3.9623,4.1931,4.3378,4.4667,4.5128,4.5321,4.5556,4.6129,4.7028,4.849,4.8933,4.9356,5.0226,5.0361,5.0457,5.0668,5.1221,5.1601,5.1601,5.2351,5.287,5.287,5.3664,5.4164,5.4164,5.4934,5.5401,5.5401,5.5593,5.5708,5.5708,5.5708,5.6016,5.6651,5.6887,5.7324,5.7973,5.88,5.9204,5.9223,6.0089,6.0473,6.0473,6.0704,6.0806,6.0806,6.0806,6.0997,6.1306,6.1306,6.146,6.1699,6.1699,6.1699,6.1699,6.1699,6.1699,6.1699,6.1699,6.1699,6.1699,6.1699,6.1699,6.1699,6.1699,6.1699,6.1699,6.1699,6.1699,6.1699,6.1699,6.1699,6.1699,6.1699,6.1699,6.1699,6.1699,6.1699,6.1699,6.1699,6.1699,6.1699,6.1699,6.1699,6.1699,6.1699,6.1699,6.1699,6.1699,6.1699,6.1699,6.1699,6.1699,6.1699,6.1699,6.1699,6.1699,6.1699,6.1699,6.1491,6.1038,6.4249,6.5904,6.5904,6.5904,6.5904,6.5904,6.5904,6.5904,2.2451,2.568,2.9316,3.3606,3.7126,4.0204,4.2662,4.3816,4.4609,4.5436,4.5633,4.5956,4.6851,4.7658,4.8452,4.9336,4.9471,4.9764,5.0572,5.0745,5.0765,5.0765,5.1491,5.1962,5.1962,5.2755,5.3274,5.3274,5.4068,5.4549,5.4549,5.5285,5.5708,5.5708,5.5708,5.5728,5.5766,5.6593,5.7016,5.7074,5.7953,5.8352,5.8396,5.9204,5.9569,5.9608,6.0441,6.0806,6.0806,6.0806,6.0997,6.1306,6.1306,6.146,6.1699,6.1699,6.1699,6.1699,6.1699,6.1699,6.1699,6.1699,6.1699,6.1699,6.1699,6.1699,6.1699,6.1699,6.1699,6.1699,6.1699,6.1699,6.1699,6.1699,6.1699,6.1699,6.1699,6.1699,6.1699,6.1699,6.1699,6.1699,6.1699,6.1699,6.1699,6.1699,6.1699,6.1699,6.1699,6.1699,6.1699,6.1699,6.1699,6.1699,6.1699,6.1699,6.1699,6.1699,6.1699,6.1699,6.1699,6.1699,6.1699,6.1658,6.4446,6.5904,6.5904,6.5904,6.5904,6.5904,6.5904,6.5904,2.2029,2.4505,2.7118,3.083,3.4715,3.8027,3.9488,4.2143,4.4397,4.4705,4.5205,4.5706,4.6013,4.6759,4.7601,4.8432,4.8567,4.8663,4.899,4.951,4.988,4.988,5.0606,5.1125,5.1125,5.187,5.237,5.237,5.3159,5.3664,5.3664,5.4472,5.4934,5.4934,5.5439,5.5708,5.5708,5.6016,5.617,5.6189,5.7055,5.7478,5.7497,5.8338,5.9011,5.9511,5.9838,6.0281,6.0806,6.0806,6.0997,6.13,6.121,6.1385,6.1699,6.1699,6.1699,6.1699,6.1699,6.1699,6.1699,6.1699,6.1699,6.1699,6.1699,6.1699,6.1699,6.1699,6.1699,6.1699,6.1699,6.1699,6.1699,6.1699,6.1699,6.1699,6.1699,6.1699,6.1699,6.1699,6.1699,6.1699,6.1699,6.1699,6.1699,6.1699,6.1699,6.1699,6.1699,6.1699,6.1699,6.1699,6.1699,6.1699,6.1699,6.1699,6.1699,6.1699,6.1699,6.1699,6.1699,6.1699,6.1699,6.1699,6.3788,6.5213,6.5904,6.5904,6.5904,6.5904,6.5904,6.5904,2.0587,2.2584,2.4946,2.8646,3.1445,3.4138,3.7276,3.9931,4.2162,4.3605,4.4571,4.5244,4.5556,4.6071,4.674,4.7562,4.7697,4.7793,4.8062,4.8606,4.8952,4.8952,4.9726,5.0265,5.0265,5.101,5.1505,5.1505,5.2274,5.2755,5.2755,5.3587,5.4203,5.4491,5.5016,5.5439,5.5708,5.5708,5.5708,5.5708,5.6285,5.6555,5.6593,5.7473,5.8165,5.8684,5.8973,5.9742,6.0806,6.0806,6.0964,6.1227,6.1127,6.1341,6.1699,6.1699,6.1699,6.1699,6.1699,6.1699,6.1699,6.1699,6.1699,6.1699,6.1699,6.1699,6.1699,6.1699,6.1699,6.1699,6.1699,6.1699,6.1699,6.1699,6.1699,6.1699,6.1699,6.1699,6.1699,6.1699,6.1699,6.1699,6.1699,6.1699,6.1699,6.1699,6.1699,6.1699,6.1699,6.1699,6.1699,6.1699,6.1699,6.1699,6.1699,6.1699,6.1699,6.1699,6.1699,6.1699,6.1699,6.1699,6.1699,6.1699,6.2832,6.4345,6.6234,6.6051,6.5931,6.5904,6.5904,6.5904,0.0,0.0,0.0,2.6653,2.7104,2.8503,3.593,3.7081,3.7792,4.2047,4.3566,4.4436,4.5379,4.5556,4.5859,4.6716,4.6851,4.7139,4.7928,4.8043,4.8062,4.8062,4.8836,4.9375,4.9394,5.0168,5.0668,5.0707,5.1414,5.1865,5.1865,5.2697,5.3568,5.4434,5.4491,5.4876,5.567,5.5689,5.5708,5.5708,5.5708,5.5708,5.5728,5.6574,5.6983,5.706,5.7896,5.9204,6.0729,6.0748,6.088,6.1054,6.1085,6.1337,6.1699,6.1699,6.1699,6.1699,6.1699,6.1699,6.1699,6.1699,6.1699,6.1699,6.1699,6.1699,6.1699,6.1699,6.1699,6.1699,6.1699,6.1699,6.1699,6.1699,6.1699,6.1699,6.1699,6.1699,6.1699,6.1699,6.1699,6.1699,6.1699,6.1699,6.1699,6.1699,6.1699,6.1699,6.1699,6.1699,6.1699,6.1699,6.1699,6.1699,6.1699,6.1699,6.1699,6.1699,6.1699,6.1699,6.1699,6.1699,6.1699,6.1699,6.1699,6.3379,6.6758,6.6286,6.5998,6.5903,6.591,6.5904,1.8825,0.0,0.0,0.0,0.0,0.0,2.8327,3.1484,3.4811,3.785,3.9642,4.1493,4.4167,4.4667,4.4936,4.5821,4.5956,4.6033,4.6263,4.6836,4.7235,4.7235,4.7966,4.8702,4.9336,4.963,5.0014,5.0649,5.0919,5.1034,5.1034,5.1813,5.2659,5.353,5.4164,5.4607,5.4818,5.542,5.5708,5.5708,5.5708,5.5708,5.5708,5.5958,5.6401,5.7003,5.7247,5.7973,5.905,5.9627,5.9852,5.9949,6.0626,6.1217,6.1699,6.1699,6.1699,6.1699,6.1699,6.1699,6.1699,6.1699,6.1699,6.1699,6.1699,6.1699,6.1699,6.1699,6.1699,6.1699,6.1699,6.1699,6.1699,6.1699,6.1699,6.1699,6.1699,6.1699,6.1699,6.1699,6.1699,6.1699,6.1699,6.1699,6.1699,6.1699,6.1699,6.1699,6.1699,6.1699,6.1699,6.1699,6.1699,6.1699,6.1699,6.1699,6.1699,6.1699,6.1699,6.1699,6.1699,6.1699,6.1699,6.1699,6.1699,6.2168,6.3144,6.4345,6.5342,6.6114,6.5973,6.5904,1.9846,2.0322,2.1241,2.2628,0.0,0.0,2.7321,2.9448,3.1929,3.5888,3.7796,3.9569,4.2224,4.3008,4.3547,4.4417,4.484,4.5186,4.5556,4.6033,4.6355,4.6355,4.7081,4.7793,4.8317,4.899,4.961,5.0111,5.0495,5.0707,5.0707,5.1144,5.1793,5.264,5.314,5.376,5.4491,5.4972,5.5381,5.5708,5.5708,5.5708,5.5708,5.5708,5.5978,5.6459,5.6459,5.6747,5.728,5.8107,5.8781,5.9349,5.9978,6.0813,6.1699,6.1699,6.1699,6.1699,6.1699,6.1699,6.1699,6.1699,6.1699,6.1699,6.1699,6.1699,6.1699,6.1699,6.1699,6.1699,6.1699,6.1699,6.1699,6.1699,6.1699,6.1699,6.1699,6.1699,6.1699,6.1699,6.1699,6.1699,6.1699,6.1699,6.1699,6.1699,6.1699,6.1699,6.1699,6.1699,6.1699,6.1699,6.1699,6.1699,6.1699,6.1699,6.1699,6.1699,6.1699,6.1699,6.1699,6.1699,6.1699,6.1699,6.1699,6.1699,6.1719,6.4265,6.5709,6.6078,6.5943,6.5904,2.1357,2.1702,2.3011,2.5756,2.4439,0.0,2.9341,2.9113,2.922,3.4369,3.6138,3.7334,3.9281,4.0373,4.1235,4.2104,4.3258,4.4397,4.5455,4.5594,4.5594,4.5594,4.6278,4.6793,4.6889,4.8259,4.9163,4.924,5.0053,5.0553,5.0553,5.0649,5.1034,5.1736,5.1846,5.264,5.4203,5.4395,5.4857,5.5574,5.567,5.5708,5.5708,5.5708,5.5708,5.5708,5.5708,5.5708,5.5766,5.6536,5.7594,5.8762,5.9082,5.9992,6.1152,6.1348,6.1465,6.1523,6.166,6.1699,6.1699,6.1699,6.1699,6.1699,6.1699,6.1699,6.1699,6.1699,6.1699,6.1699,6.1699,6.1699,6.1699,6.1699,6.1699,6.1699,6.1699,6.1699,6.1699,6.1699,6.1699,6.1699,6.1699,6.1699,6.1699,6.1699,6.1699,6.1699,6.1699,6.1699,6.1699,6.1699,6.1699,6.1699,6.1699,6.1699,6.1699,6.1699,6.1699,6.1699,6.1699,6.1699,6.1699,6.1699,6.1699,6.1699,6.1719,6.5195,6.6584,6.6011,6.5927,6.5904,2.5117,2.5287,2.5723,2.5023,2.6333,0.0,2.421,2.5266,2.6983,2.7423,2.8214,2.9967,3.3699,3.5106,3.5968,3.685,3.9965,4.3066,4.5282,4.5594,4.5594,4.5594,4.5744,4.6124,4.6831,4.7197,4.7658,4.8293,4.9163,4.9649,4.9649,5.0322,5.0765,5.0938,5.1563,5.2058,5.2409,5.3799,5.4587,5.4741,5.5401,5.5708,5.5708,5.5708,5.5708,5.5708,5.5708,5.5708,5.5708,5.5882,5.6112,5.6477,5.76,5.7847,5.7773,5.918,5.9961,6.0469,6.1387,6.1699,6.1699,6.1699,6.1699,6.1699,6.1699,6.1699,6.1699,6.1699,6.1699,6.1699,6.1699,6.1699,6.1699,6.1699,6.1699,6.1699,6.1699,6.1699,6.1699,6.1699,6.1699,6.1699,6.1699,6.1699,6.1699,6.1699,6.1699,6.1699,6.1699,6.1699,6.1699,6.1699,6.1699,6.1699,6.1699,6.1699,6.1699,6.1699,6.1699,6.1699,6.1699,6.1699,6.1699,6.1699,6.1699,6.1699,6.1719,6.5195,6.6831,6.6695,6.6153,6.5904,2.7051,2.664,2.6948,2.6938,2.7197,0.0,0.0,2.576,2.6476,2.8189,2.7855,2.8275,3.1679,3.266,3.3237,3.4061,3.7777,4.07,4.1104,4.3724,4.5594,4.5594,4.5594,4.5763,4.6201,4.6639,4.7235,4.8043,4.8509,4.8933,4.9375,4.9803,5.0245,5.0688,5.1087,5.1486,5.1904,5.2774,5.3645,5.4491,5.4914,5.5304,5.5708,5.5708,5.5708,5.5708,5.5708,5.5708,5.5708,5.5708,5.5708,5.5775,5.6614,5.6745,5.662,5.8026,5.8808,5.9316,6.0469,6.0859,6.0957,6.1523,6.1699,6.1699,6.1699,6.1699,6.1699,6.1699,6.1699,6.1699,6.1699,6.1699,6.1699,6.1699,6.1699,6.1699,6.1699,6.1699,6.1699,6.1699,6.1699,6.1699,6.1699,6.1699,6.1699,6.1699,6.1699,6.1699,6.1699,6.1699,6.1699,6.1699,6.1699,6.1699,6.1699,6.1699,6.1699,6.1699,6.1699,6.1699,6.1699,6.1699,6.1699,6.1699,6.1699,6.1699,6.1719,6.5195,6.6894,6.6894,6.656,6.6209,2.918,2.8476,2.8867,2.9385,2.8538,2.7725,0.0,0.0,0.0,2.9739,2.8669,2.7902,3.0278,3.058,3.0734,3.1545,3.5145,3.7296,3.5715,4.0335,4.3897,4.3897,4.4628,4.5051,4.4878,4.5355,4.6216,4.7528,4.7158,4.7485,4.8856,4.9221,4.9726,5.0438,5.0611,5.1015,5.1659,5.1827,5.2601,5.3991,5.4337,5.4838,5.5478,5.5631,5.5708,5.5708,5.5708,5.5708,5.5708,5.5708,5.5721,5.5774,5.6081,5.6237,5.6406,5.7493,5.8066,5.8457,5.9609,6.0137,6.0488,6.1406,6.1699,6.1699,6.1699,6.1699,6.1699,6.1699,6.1699,6.1699,6.1699,6.1699,6.1699,6.1699,6.1699,6.1699,6.1699,6.1699,6.1699,6.1699,6.1699,6.1699,6.1699,6.1699,6.1699,6.1699,6.1699,6.1699,6.1699,6.1699,6.1699,6.1699,6.1699,6.1699,6.1699,6.1699,6.1699,6.1699,6.1699,6.1699,6.1699,6.1699,6.1699,6.1699,6.1699,6.1699,6.1719,6.4531,6.623,6.6894,6.6894,6.6613,3.3613,3.3809,3.4101,3.0488,3.2174,3.3028,2.6458,0.0,2.7272,2.5445,0.0,2.5132,2.6852,0.0,0.0,2.7176,3.0275,3.2215,3.125,3.4926,3.7715,3.7715,4.1066,4.3085,4.2312,4.1623,4.2512,4.5648,4.3797,4.3889,4.7024,4.8586,4.9452,4.9529,5.0303,5.0745,5.0842,5.1543,5.2,5.2217,5.376,5.4549,5.4664,5.5381,5.5708,5.5708,5.5708,5.5708,5.5708,5.5708,5.5769,5.5907,5.6125,5.6199,5.6356,5.7488,5.8066,5.8457,5.9609,6.0664,6.1523,6.166,6.1699,6.1699,6.1699,6.1699,6.1699,6.1699,6.1699,6.1699,6.1699,6.1699,6.1699,6.1699,6.1699,6.1699,6.1699,6.1699,6.1699,6.1699,6.1699,6.1699,6.1699,6.1699,6.1699,6.1699,6.1699,6.1699,6.1699,6.1699,6.1699,6.1699,6.1699,6.1699,6.1699,6.1699,6.1699,6.1699,6.1699,6.1699,6.1699,6.1699,6.1699,6.1699,6.1699,6.1699,6.1699,6.2109,6.3887,6.6894,6.6894,6.6854,3.4219,3.4668,3.5215,3.1934,3.2439,3.2512,2.775,2.6657,2.6615,2.6533,0.0,0.0,0.0,0.0,0.0,0.0,2.8621,2.9544,2.7692,3.1115,3.4349,3.5827,3.76,3.9119,4.0239,4.0435,4.1512,4.3974,4.2701,4.3062,4.599,4.7298,4.8394,4.9375,4.9745,5.0188,5.0707,5.1029,5.1428,5.1904,5.264,5.3255,5.378,5.4626,5.4991,5.503,5.5497,5.5708,5.5708,5.5708,5.5738,5.5808,5.6012,5.6172,5.6372,5.6946,5.7226,5.7383,5.7851,5.834,5.9062,6.1055,6.1699,6.1699,6.1699,6.1699,6.1699,6.1699,6.1699,6.1699,6.1699,6.1699,6.1699,6.1699,6.1699,6.1699,6.1699,6.1699,6.1699,6.1699,6.1699,6.1699,6.1699,6.1699,6.1699,6.1699,6.1699,6.1699,6.1699,6.1699,6.1699,6.1699,6.1699,6.1699,6.1699,6.1699,6.1699,6.1699,6.1699,6.1699,6.1699,6.1699,6.1699,6.1699,6.1699,6.1699,6.1699,6.1699,6.3496,6.6894,6.6894,6.6894,3.5605,3.5918,3.623,3.2715,3.2012,3.1387,2.8281,2.7126,2.6976,2.7991,2.7652,0.0,0.0,0.0,0.0,0.0,0.0,2.7604,2.5291,2.7849,3.0638,3.2481,3.3731,3.5369,3.7684,3.8011,3.9184,4.1854,4.0831,4.1581,4.5051,4.6067,4.7221,4.8663,4.9163,4.9707,5.0341,5.0572,5.0996,5.1563,5.1793,5.2236,5.287,5.376,5.426,5.453,5.5131,5.5497,5.5708,5.5708,5.5712,5.5774,5.5978,5.6188,5.639,5.6539,5.6601,5.6601,5.6601,5.6601,5.7012,5.9492,6.0937,6.1699,6.1699,6.1699,6.1699,6.1699,6.1699,6.1699,6.1699,6.1699,6.1699,6.1699,6.1699,6.1699,6.1699,6.1699,6.1699,6.1699,6.1699,6.1699,6.1699,6.1699,6.1699,6.1699,6.1699,6.1699,6.1699,6.1699,6.1699,6.1699,6.1699,6.1699,6.1699,6.1699,6.1699,6.1699,6.1699,6.1699,6.1699,6.1699,6.1699,6.1699,6.1699,6.1699,6.1699,6.1699,6.3496,6.6894,6.6894,6.6894,3.9355,3.9082,3.8359,3.2422,3.1582,3.1074,2.6758,2.7695,2.9237,2.8376,3.0066,3.1422,3.058,0.0,0.0,0.0,0.0,0.0,0.0,2.4928,2.5536,2.5613,2.9291,3.2487,3.4202,3.291,3.4045,3.905,3.71,3.8234,4.4028,4.5167,4.6052,4.6947,4.8548,4.9413,4.9433,5.0284,5.0707,5.0745,5.1524,5.1904,5.1962,5.2832,5.3703,5.4491,5.453,5.4972,5.5708,5.5708,5.5779,5.5912,5.6125,5.6244,5.6326,5.6537,5.6601,5.6601,5.6601,5.6601,5.6621,5.6738,5.9004,6.1699,6.1699,6.1699,6.1699,6.1699,6.1699,6.1699,6.1699,6.1699,6.1699,6.1699,6.1699,6.1699,6.1699,6.1699,6.1699,6.1699,6.1699,6.1699,6.1699,6.1699,6.1699,6.1699,6.1699,6.1699,6.1699,6.1699,6.1699,6.1699,6.1699,6.1699,6.1699,6.1699,6.1699,6.1699,6.1699,6.1699,6.1699,6.1699,6.1699,6.1699,6.1699,6.1699,6.1699,6.1699,6.3496,6.6894,6.6894,6.6894,0.0,0.0,4.1059,3.5624,3.4427,3.3322,2.8515,2.8555,2.918,2.7712,2.9841,3.1496,2.999,0.0,0.0,0.0,0.0,0.0,0.0,2.2985,2.3002,2.3581,2.6928,2.9179,2.9179,3.0698,3.3099,3.6523,3.6484,3.8408,4.3258,4.4301,4.5393,4.6851,4.7966,4.8817,4.9394,5.0265,5.0707,5.0707,5.0976,5.1106,5.1125,5.1967,5.2505,5.2832,5.3991,5.4645,5.4953,5.5478,5.5784,5.5912,5.6024,5.6153,5.6324,5.6537,5.6601,5.6601,5.6601,5.6601,5.6601,5.6601,5.7383,5.875,6.1015,6.1699,6.1699,6.1699,6.1699,6.1699,6.1699,6.1699,6.1699,6.1699,6.1699,6.1699,6.1699,6.1699,6.1699,6.1699,6.1699,6.1699,6.1699,6.1699,6.1699,6.1699,6.1699,6.1699,6.1699,6.1699,6.1699,6.1699,6.1699,6.1699,6.1699,6.1699,6.1699,6.1699,6.1699,6.1699,6.1699,6.1699,6.1699,6.1699,6.1699,6.1699,6.1699,6.1699,6.2305,6.3515,6.582,6.6894,4.3134,4.3223,0.0,3.7914,3.6719,0.0,3.0651,3.072,3.1267,2.9526,3.0887,3.24,3.2411,0.0,0.0,0.0,0.0,0.0,0.0,2.212,2.1947,2.1927,2.4663,2.6565,2.6601,2.831,3.0868,3.433,3.5061,3.7353,4.1935,4.3239,4.4528,4.5928,4.7081,4.8082,4.8933,4.9803,5.038,5.0707,5.0707,5.0707,5.0726,5.1241,5.162,5.1962,5.3082,5.3933,5.453,5.5054,5.5519,5.5912,5.6028,5.6155,5.6324,5.6537,5.6601,5.6601,5.6601,5.6601,5.6601,5.6601,5.6601,5.7246,6.0664,6.1699,6.1699,6.1699,6.1699,6.1699,6.1699,6.1699,6.1699,6.1699,6.1699,6.1699,6.1699,6.1699,6.1699,6.1699,6.1699,6.1699,6.1699,6.1699,6.1699,6.1699,6.1699,6.1699,6.1699,6.1699,6.1699,6.1699,6.1699,6.1699,6.1699,6.1699,6.1699,6.1699,6.1699,6.1699,6.1699,6.1699,6.1699,6.1699,6.1699,6.1699,6.1699,6.1699,6.1699,6.1758,6.4004,6.5723]}]]